<?xml version='1.0' encoding='UTF-8'?>
<gpx version="1.1" creator="https://www.komoot.de" xmlns="http://www.topografix.com/GPX/1/1" xmlns:xsi="http://www.w3.org/2001/XMLSchema-instance" xsi:schemaLocation="http://www.topografix.com/GPX/1/1 http://www.topografix.com/GPX/1/1/gpx.xsd">
  <metadata>
    <name>55_510HottingenWehr</name>
    <author>
      <link href="https://www.komoot.de">
        <text>komoot</text>
        <type>text/html</type>
      </link>
    </author>
  </metadata>
  <trk>
    <name>55_510HottingenWehr</name>
    <trkseg>
      <trkpt lat="47.541144" lon="7.871012">
        <ele>340.500347</ele>
        <time>2021-11-14T13:23:47.191Z</time>
      </trkpt>
      <trkpt lat="47.541345" lon="7.870845">
        <ele>340.500347</ele>
        <time>2021-11-14T13:23:51.280Z</time>
      </trkpt>
      <trkpt lat="47.541410" lon="7.870791">
        <ele>340.500347</ele>
        <time>2021-11-14T13:23:52.378Z</time>
      </trkpt>
      <trkpt lat="47.541576" lon="7.870664">
        <ele>340.500347</ele>
        <time>2021-11-14T13:23:56.521Z</time>
      </trkpt>
      <trkpt lat="47.541796" lon="7.871042">
        <ele>340.500347</ele>
        <time>2021-11-14T13:24:03.623Z</time>
      </trkpt>
      <trkpt lat="47.541953" lon="7.871286">
        <ele>341.025753</ele>
        <time>2021-11-14T13:24:08.445Z</time>
      </trkpt>
      <trkpt lat="47.542039" lon="7.871556">
        <ele>341.700381</ele>
        <time>2021-11-14T13:24:12.829Z</time>
      </trkpt>
      <trkpt lat="47.542067" lon="7.871664">
        <ele>341.961810</ele>
        <time>2021-11-14T13:24:14.501Z</time>
      </trkpt>
      <trkpt lat="47.542091" lon="7.871721">
        <ele>342.113614</ele>
        <time>2021-11-14T13:24:15.099Z</time>
      </trkpt>
      <trkpt lat="47.542218" lon="7.871866">
        <ele>342.650357</ele>
        <time>2021-11-14T13:24:20.206Z</time>
      </trkpt>
      <trkpt lat="47.542394" lon="7.872341">
        <ele>343.874773</ele>
        <time>2021-11-14T13:24:30.259Z</time>
      </trkpt>
      <trkpt lat="47.542436" lon="7.872494">
        <ele>344.247999</ele>
        <time>2021-11-14T13:24:33.650Z</time>
      </trkpt>
      <trkpt lat="47.542537" lon="7.872430">
        <ele>344.615725</ele>
        <time>2021-11-14T13:24:35.762Z</time>
      </trkpt>
      <trkpt lat="47.542714" lon="7.872334">
        <ele>345.246690</ele>
        <time>2021-11-14T13:24:42.718Z</time>
      </trkpt>
      <trkpt lat="47.542814" lon="7.872280">
        <ele>345.602984</ele>
        <time>2021-11-14T13:24:45.732Z</time>
      </trkpt>
      <trkpt lat="47.542919" lon="7.872226">
        <ele>345.975046</ele>
        <time>2021-11-14T13:24:49.571Z</time>
      </trkpt>
      <trkpt lat="47.543013" lon="7.872182">
        <ele>346.305043</ele>
        <time>2021-11-14T13:24:53.077Z</time>
      </trkpt>
      <trkpt lat="47.543233" lon="7.872082">
        <ele>347.538691</ele>
        <time>2021-11-14T13:25:00.316Z</time>
      </trkpt>
      <trkpt lat="47.543251" lon="7.872152">
        <ele>347.849481</ele>
        <time>2021-11-14T13:25:03.689Z</time>
      </trkpt>
      <trkpt lat="47.543332" lon="7.872237">
        <ele>348.459591</ele>
        <time>2021-11-14T13:25:06.995Z</time>
      </trkpt>
      <trkpt lat="47.544390" lon="7.872423">
        <ele>355.008089</ele>
        <time>2021-11-14T13:25:48.714Z</time>
      </trkpt>
      <trkpt lat="47.544883" lon="7.872555">
        <ele>358.137803</ele>
        <time>2021-11-14T13:26:11.123Z</time>
      </trkpt>
      <trkpt lat="47.545131" lon="7.872664">
        <ele>359.884784</ele>
        <time>2021-11-14T13:26:22.127Z</time>
      </trkpt>
      <trkpt lat="47.545375" lon="7.872836">
        <ele>361.709628</ele>
        <time>2021-11-14T13:26:33.068Z</time>
      </trkpt>
      <trkpt lat="47.545478" lon="7.872968">
        <ele>362.629370</ele>
        <time>2021-11-14T13:26:39.876Z</time>
      </trkpt>
      <trkpt lat="47.545515" lon="7.873015">
        <ele>362.958521</ele>
        <time>2021-11-14T13:26:41.832Z</time>
      </trkpt>
      <trkpt lat="47.545746" lon="7.873302">
        <ele>364.994522</ele>
        <time>2021-11-14T13:26:55.032Z</time>
      </trkpt>
      <trkpt lat="47.545934" lon="7.873549">
        <ele>366.691495</ele>
        <time>2021-11-14T13:27:05.132Z</time>
      </trkpt>
      <trkpt lat="47.546077" lon="7.873763">
        <ele>368.064178</ele>
        <time>2021-11-14T13:27:14.328Z</time>
      </trkpt>
      <trkpt lat="47.546135" lon="7.873859">
        <ele>368.651486</ele>
        <time>2021-11-14T13:27:17.567Z</time>
      </trkpt>
      <trkpt lat="47.546309" lon="7.874154">
        <ele>370.181306</ele>
        <time>2021-11-14T13:27:28.682Z</time>
      </trkpt>
      <trkpt lat="47.547126" lon="7.875801">
        <ele>376.158154</ele>
        <time>2021-11-14T13:28:14.443Z</time>
      </trkpt>
      <trkpt lat="47.547574" lon="7.876801">
        <ele>377.467596</ele>
        <time>2021-11-14T13:28:33.439Z</time>
      </trkpt>
      <trkpt lat="47.547992" lon="7.877974">
        <ele>377.381578</ele>
        <time>2021-11-14T13:28:46.239Z</time>
      </trkpt>
      <trkpt lat="47.548234" lon="7.878638">
        <ele>376.939362</ele>
        <time>2021-11-14T13:28:51.552Z</time>
      </trkpt>
      <trkpt lat="47.548422" lon="7.878959">
        <ele>375.815030</ele>
        <time>2021-11-14T13:28:54.394Z</time>
      </trkpt>
      <trkpt lat="47.548718" lon="7.879258">
        <ele>374.410869</ele>
        <time>2021-11-14T13:28:57.933Z</time>
      </trkpt>
      <trkpt lat="47.549140" lon="7.879391">
        <ele>372.719843</ele>
        <time>2021-11-14T13:29:02.119Z</time>
      </trkpt>
      <trkpt lat="47.549318" lon="7.879398">
        <ele>372.021932</ele>
        <time>2021-11-14T13:29:03.746Z</time>
      </trkpt>
      <trkpt lat="47.549327" lon="7.879547">
        <ele>371.626182</ele>
        <time>2021-11-14T13:29:04.733Z</time>
      </trkpt>
      <trkpt lat="47.549726" lon="7.880786">
        <ele>368.088971</ele>
        <time>2021-11-14T13:29:13.667Z</time>
      </trkpt>
      <trkpt lat="47.549927" lon="7.881490">
        <ele>366.149929</ele>
        <time>2021-11-14T13:29:18.699Z</time>
      </trkpt>
      <trkpt lat="47.550234" lon="7.883221">
        <ele>361.457525</ele>
        <time>2021-11-14T13:29:31.100Z</time>
      </trkpt>
      <trkpt lat="47.550332" lon="7.884727">
        <ele>357.315539</ele>
        <time>2021-11-14T13:29:40.944Z</time>
      </trkpt>
      <trkpt lat="47.550391" lon="7.885109">
        <ele>356.242735</ele>
        <time>2021-11-14T13:29:43.477Z</time>
      </trkpt>
      <trkpt lat="47.550548" lon="7.885799">
        <ele>353.542391</ele>
        <time>2021-11-14T13:29:48.081Z</time>
      </trkpt>
      <trkpt lat="47.550677" lon="7.886476">
        <ele>350.931792</ele>
        <time>2021-11-14T13:29:52.511Z</time>
      </trkpt>
      <trkpt lat="47.550758" lon="7.887295">
        <ele>347.859972</ele>
        <time>2021-11-14T13:29:57.654Z</time>
      </trkpt>
      <trkpt lat="47.550789" lon="7.887816">
        <ele>345.859536</ele>
        <time>2021-11-14T13:30:00.885Z</time>
      </trkpt>
      <trkpt lat="47.550831" lon="7.888611">
        <ele>342.489718</ele>
        <time>2021-11-14T13:30:05.841Z</time>
      </trkpt>
      <trkpt lat="47.550833" lon="7.889069">
        <ele>340.554245</ele>
        <time>2021-11-14T13:30:08.651Z</time>
      </trkpt>
      <trkpt lat="47.550915" lon="7.890600">
        <ele>334.316080</ele>
        <time>2021-11-14T13:30:18.044Z</time>
      </trkpt>
      <trkpt lat="47.550904" lon="7.891725">
        <ele>330.733376</ele>
        <time>2021-11-14T13:30:25.048Z</time>
      </trkpt>
      <trkpt lat="47.550892" lon="7.893176">
        <ele>326.452186</ele>
        <time>2021-11-14T13:30:34.660Z</time>
      </trkpt>
      <trkpt lat="47.550908" lon="7.894308">
        <ele>325.356526</ele>
        <time>2021-11-14T13:30:43.865Z</time>
      </trkpt>
      <trkpt lat="47.550878" lon="7.895158">
        <ele>324.532869</ele>
        <time>2021-11-14T13:30:51.050Z</time>
      </trkpt>
      <trkpt lat="47.550838" lon="7.895509">
        <ele>324.188404</ele>
        <time>2021-11-14T13:30:54.214Z</time>
      </trkpt>
      <trkpt lat="47.550660" lon="7.896255">
        <ele>323.057403</ele>
        <time>2021-11-14T13:31:00.703Z</time>
      </trkpt>
      <trkpt lat="47.550639" lon="7.896345">
        <ele>322.909043</ele>
        <time>2021-11-14T13:31:01.890Z</time>
      </trkpt>
      <trkpt lat="47.550648" lon="7.896481">
        <ele>322.696144</ele>
        <time>2021-11-14T13:31:02.845Z</time>
      </trkpt>
      <trkpt lat="47.550819" lon="7.898109">
        <ele>320.129248</ele>
        <time>2021-11-14T13:31:14.593Z</time>
      </trkpt>
      <trkpt lat="47.550801" lon="7.900244">
        <ele>314.277129</ele>
        <time>2021-11-14T13:31:28.431Z</time>
      </trkpt>
      <trkpt lat="47.550769" lon="7.901362">
        <ele>311.240568</ele>
        <time>2021-11-14T13:31:35.702Z</time>
      </trkpt>
      <trkpt lat="47.550757" lon="7.901591">
        <ele>310.665420</ele>
        <time>2021-11-14T13:31:37.838Z</time>
      </trkpt>
      <trkpt lat="47.550688" lon="7.902451">
        <ele>308.496794</ele>
        <time>2021-11-14T13:31:46.272Z</time>
      </trkpt>
      <trkpt lat="47.550498" lon="7.903445">
        <ele>305.909893</ele>
        <time>2021-11-14T13:31:56.523Z</time>
      </trkpt>
      <trkpt lat="47.550302" lon="7.904164">
        <ele>303.931192</ele>
        <time>2021-11-14T13:32:03.782Z</time>
      </trkpt>
      <trkpt lat="47.550025" lon="7.904774">
        <ele>302.049112</ele>
        <time>2021-11-14T13:32:10.707Z</time>
      </trkpt>
      <trkpt lat="47.549868" lon="7.905010">
        <ele>301.200835</ele>
        <time>2021-11-14T13:32:13.839Z</time>
      </trkpt>
      <trkpt lat="47.549867" lon="7.905155">
        <ele>300.829624</ele>
        <time>2021-11-14T13:32:15.236Z</time>
      </trkpt>
      <trkpt lat="47.550067" lon="7.905245">
        <ele>300.036848</ele>
        <time>2021-11-14T13:32:18.161Z</time>
      </trkpt>
      <trkpt lat="47.550283" lon="7.905413">
        <ele>299.111581</ele>
        <time>2021-11-14T13:32:21.610Z</time>
      </trkpt>
      <trkpt lat="47.550497" lon="7.905558">
        <ele>298.410003</ele>
        <time>2021-11-14T13:32:24.969Z</time>
      </trkpt>
      <trkpt lat="47.549539" lon="7.908625">
        <ele>293.225510</ele>
        <time>2021-11-14T13:32:49.420Z</time>
      </trkpt>
      <trkpt lat="47.549520" lon="7.908678">
        <ele>293.162982</ele>
        <time>2021-11-14T13:32:49.932Z</time>
      </trkpt>
      <trkpt lat="47.549376" lon="7.909155">
        <ele>292.618544</ele>
        <time>2021-11-14T13:32:54.203Z</time>
      </trkpt>
      <trkpt lat="47.549296" lon="7.909422">
        <ele>292.314173</ele>
        <time>2021-11-14T13:32:56.544Z</time>
      </trkpt>
      <trkpt lat="47.549226" lon="7.909652">
        <ele>292.051297</ele>
        <time>2021-11-14T13:32:58.655Z</time>
      </trkpt>
      <trkpt lat="47.549195" lon="7.909756">
        <ele>291.932841</ele>
        <time>2021-11-14T13:32:59.549Z</time>
      </trkpt>
      <trkpt lat="47.549102" lon="7.910058">
        <ele>291.586979</ele>
        <time>2021-11-14T13:33:02.270Z</time>
      </trkpt>
      <trkpt lat="47.549012" lon="7.910340">
        <ele>291.307461</ele>
        <time>2021-11-14T13:33:04.770Z</time>
      </trkpt>
      <trkpt lat="47.548412" lon="7.912168">
        <ele>289.757129</ele>
        <time>2021-11-14T13:33:21.104Z</time>
      </trkpt>
      <trkpt lat="47.548027" lon="7.913334">
        <ele>289.125523</ele>
        <time>2021-11-14T13:33:31.865Z</time>
      </trkpt>
      <trkpt lat="47.547994" lon="7.913433">
        <ele>289.089055</ele>
        <time>2021-11-14T13:33:32.786Z</time>
      </trkpt>
      <trkpt lat="47.547423" lon="7.915080">
        <ele>288.548802</ele>
        <time>2021-11-14T13:33:50.262Z</time>
      </trkpt>
      <trkpt lat="47.547113" lon="7.915971">
        <ele>288.784553</ele>
        <time>2021-11-14T13:34:00.709Z</time>
      </trkpt>
      <trkpt lat="47.547091" lon="7.916039">
        <ele>288.802288</ele>
        <time>2021-11-14T13:34:01.734Z</time>
      </trkpt>
      <trkpt lat="47.547032" lon="7.916218">
        <ele>288.849138</ele>
        <time>2021-11-14T13:34:03.937Z</time>
      </trkpt>
      <trkpt lat="47.546821" lon="7.916867">
        <ele>289.018558</ele>
        <time>2021-11-14T13:34:12.046Z</time>
      </trkpt>
      <trkpt lat="47.546262" lon="7.919081">
        <ele>289.675597</ele>
        <time>2021-11-14T13:34:39.557Z</time>
      </trkpt>
      <trkpt lat="47.546128" lon="7.919617">
        <ele>289.841733</ele>
        <time>2021-11-14T13:34:45.026Z</time>
      </trkpt>
      <trkpt lat="47.545973" lon="7.920313">
        <ele>290.220500</ele>
        <time>2021-11-14T13:34:53.489Z</time>
      </trkpt>
      <trkpt lat="47.545913" lon="7.920765">
        <ele>290.519536</ele>
        <time>2021-11-14T13:34:57.662Z</time>
      </trkpt>
      <trkpt lat="47.545881" lon="7.921096">
        <ele>290.736597</ele>
        <time>2021-11-14T13:35:01.679Z</time>
      </trkpt>
      <trkpt lat="47.545810" lon="7.921755">
        <ele>291.169801</ele>
        <time>2021-11-14T13:35:10.587Z</time>
      </trkpt>
      <trkpt lat="47.545778" lon="7.921947">
        <ele>291.298181</ele>
        <time>2021-11-14T13:35:14.196Z</time>
      </trkpt>
      <trkpt lat="47.545714" lon="7.922249">
        <ele>291.503660</ele>
        <time>2021-11-14T13:35:17.395Z</time>
      </trkpt>
      <trkpt lat="47.545699" lon="7.922325">
        <ele>291.555061</ele>
        <time>2021-11-14T13:35:18.592Z</time>
      </trkpt>
      <trkpt lat="47.545690" lon="7.922369">
        <ele>291.584906</ele>
        <time>2021-11-14T13:35:20.690Z</time>
      </trkpt>
      <trkpt lat="47.545641" lon="7.922610">
        <ele>291.979031</ele>
        <time>2021-11-14T13:35:23.044Z</time>
      </trkpt>
      <trkpt lat="47.545587" lon="7.922895">
        <ele>292.622890</ele>
        <time>2021-11-14T13:35:28.840Z</time>
      </trkpt>
      <trkpt lat="47.545553" lon="7.923142">
        <ele>293.171194</ele>
        <time>2021-11-14T13:35:31.487Z</time>
      </trkpt>
      <trkpt lat="47.545536" lon="7.923407">
        <ele>293.750191</ele>
        <time>2021-11-14T13:35:37.377Z</time>
      </trkpt>
      <trkpt lat="47.545521" lon="7.923709">
        <ele>294.408844</ele>
        <time>2021-11-14T13:35:41.531Z</time>
      </trkpt>
      <trkpt lat="47.545481" lon="7.924396">
        <ele>295.908682</ele>
        <time>2021-11-14T13:35:56.134Z</time>
      </trkpt>
      <trkpt lat="47.545466" lon="7.924880">
        <ele>296.962537</ele>
        <time>2021-11-14T13:36:07.440Z</time>
      </trkpt>
      <trkpt lat="47.545446" lon="7.925350">
        <ele>297.929736</ele>
        <time>2021-11-14T13:36:17.815Z</time>
      </trkpt>
      <trkpt lat="47.545417" lon="7.925848">
        <ele>298.902133</ele>
        <time>2021-11-14T13:36:28.294Z</time>
      </trkpt>
      <trkpt lat="47.545409" lon="7.926773">
        <ele>300.701757</ele>
        <time>2021-11-14T13:36:45.495Z</time>
      </trkpt>
      <trkpt lat="47.545407" lon="7.927001">
        <ele>301.145341</ele>
        <time>2021-11-14T13:36:49.304Z</time>
      </trkpt>
      <trkpt lat="47.545406" lon="7.927306">
        <ele>301.738689</ele>
        <time>2021-11-14T13:36:53.909Z</time>
      </trkpt>
      <trkpt lat="47.545421" lon="7.927686">
        <ele>302.479196</ele>
        <time>2021-11-14T13:36:59.444Z</time>
      </trkpt>
      <trkpt lat="47.545475" lon="7.928419">
        <ele>302.233678</ele>
        <time>2021-11-14T13:37:08.762Z</time>
      </trkpt>
      <trkpt lat="47.545563" lon="7.929641">
        <ele>301.496264</ele>
        <time>2021-11-14T13:37:18.641Z</time>
      </trkpt>
      <trkpt lat="47.545661" lon="7.930955">
        <ele>300.446092</ele>
        <time>2021-11-14T13:37:28.037Z</time>
      </trkpt>
      <trkpt lat="47.545696" lon="7.931497">
        <ele>299.863315</ele>
        <time>2021-11-14T13:37:32.006Z</time>
      </trkpt>
      <trkpt lat="47.545721" lon="7.931992">
        <ele>299.332012</ele>
        <time>2021-11-14T13:37:35.798Z</time>
      </trkpt>
      <trkpt lat="47.545724" lon="7.932758">
        <ele>298.512113</ele>
        <time>2021-11-14T13:37:42.008Z</time>
      </trkpt>
      <trkpt lat="47.545702" lon="7.933290">
        <ele>298.271291</ele>
        <time>2021-11-14T13:37:46.651Z</time>
      </trkpt>
      <trkpt lat="47.545674" lon="7.933625">
        <ele>298.412394</ele>
        <time>2021-11-14T13:37:49.851Z</time>
      </trkpt>
      <trkpt lat="47.545457" lon="7.935110">
        <ele>299.047523</ele>
        <time>2021-11-14T13:38:07.986Z</time>
      </trkpt>
      <trkpt lat="47.545074" lon="7.936484">
        <ele>300.318796</ele>
        <time>2021-11-14T13:38:29.513Z</time>
      </trkpt>
      <trkpt lat="47.544903" lon="7.936917">
        <ele>300.890596</ele>
        <time>2021-11-14T13:38:36.830Z</time>
      </trkpt>
      <trkpt lat="47.544705" lon="7.937395">
        <ele>301.529833</ele>
        <time>2021-11-14T13:38:45.014Z</time>
      </trkpt>
      <trkpt lat="47.544472" lon="7.937932">
        <ele>302.257460</ele>
        <time>2021-11-14T13:38:54.421Z</time>
      </trkpt>
      <trkpt lat="47.543826" lon="7.939433">
        <ele>304.366523</ele>
        <time>2021-11-14T13:39:21.303Z</time>
      </trkpt>
      <trkpt lat="47.543435" lon="7.940670">
        <ele>305.733627</ele>
        <time>2021-11-14T13:39:41.263Z</time>
      </trkpt>
      <trkpt lat="47.543161" lon="7.942213">
        <ele>306.659304</ele>
        <time>2021-11-14T13:40:02.112Z</time>
      </trkpt>
      <trkpt lat="47.543007" lon="7.943867">
        <ele>306.114074</ele>
        <time>2021-11-14T13:40:17.657Z</time>
      </trkpt>
      <trkpt lat="47.542913" lon="7.945267">
        <ele>304.839478</ele>
        <time>2021-11-14T13:40:28.416Z</time>
      </trkpt>
      <trkpt lat="47.542872" lon="7.945781">
        <ele>304.140560</ele>
        <time>2021-11-14T13:40:32.012Z</time>
      </trkpt>
      <trkpt lat="47.542875" lon="7.946089">
        <ele>303.607252</ele>
        <time>2021-11-14T13:40:34.103Z</time>
      </trkpt>
      <trkpt lat="47.542902" lon="7.946514">
        <ele>302.868183</ele>
        <time>2021-11-14T13:40:36.982Z</time>
      </trkpt>
      <trkpt lat="47.542943" lon="7.946806">
        <ele>302.351812</ele>
        <time>2021-11-14T13:40:39.029Z</time>
      </trkpt>
      <trkpt lat="47.542974" lon="7.946965">
        <ele>302.065278</ele>
        <time>2021-11-14T13:40:40.220Z</time>
      </trkpt>
      <trkpt lat="47.542979" lon="7.946989">
        <ele>302.021792</ele>
        <time>2021-11-14T13:40:40.375Z</time>
      </trkpt>
      <trkpt lat="47.543007" lon="7.947104">
        <ele>301.810134</ele>
        <time>2021-11-14T13:40:41.243Z</time>
      </trkpt>
      <trkpt lat="47.543087" lon="7.947317">
        <ele>301.388121</ele>
        <time>2021-11-14T13:40:42.986Z</time>
      </trkpt>
      <trkpt lat="47.543191" lon="7.947615">
        <ele>300.807312</ele>
        <time>2021-11-14T13:40:45.427Z</time>
      </trkpt>
      <trkpt lat="47.543242" lon="7.947745">
        <ele>300.546990</ele>
        <time>2021-11-14T13:40:46.557Z</time>
      </trkpt>
      <trkpt lat="47.543273" lon="7.947816">
        <ele>300.400594</ele>
        <time>2021-11-14T13:40:47.179Z</time>
      </trkpt>
      <trkpt lat="47.543358" lon="7.947967">
        <ele>300.060193</ele>
        <time>2021-11-14T13:40:48.627Z</time>
      </trkpt>
      <trkpt lat="47.543455" lon="7.948127">
        <ele>299.954225</ele>
        <time>2021-11-14T13:40:50.294Z</time>
      </trkpt>
      <trkpt lat="47.543532" lon="7.948214">
        <ele>299.911290</ele>
        <time>2021-11-14T13:40:51.365Z</time>
      </trkpt>
      <trkpt lat="47.543579" lon="7.948287">
        <ele>299.881098</ele>
        <time>2021-11-14T13:40:52.111Z</time>
      </trkpt>
      <trkpt lat="47.543760" lon="7.948548">
        <ele>299.769110</ele>
        <time>2021-11-14T13:40:55.033Z</time>
      </trkpt>
      <trkpt lat="47.543855" lon="7.948682">
        <ele>299.710952</ele>
        <time>2021-11-14T13:40:56.523Z</time>
      </trkpt>
      <trkpt lat="47.543864" lon="7.948694">
        <ele>299.705583</ele>
        <time>2021-11-14T13:40:56.780Z</time>
      </trkpt>
      <trkpt lat="47.544239" lon="7.949202">
        <ele>299.480290</ele>
        <time>2021-11-14T13:41:04.143Z</time>
      </trkpt>
      <trkpt lat="47.544521" lon="7.949558">
        <ele>299.316023</ele>
        <time>2021-11-14T13:41:10.317Z</time>
      </trkpt>
      <trkpt lat="47.544901" lon="7.950044">
        <ele>299.312436</ele>
        <time>2021-11-14T13:41:19.625Z</time>
      </trkpt>
      <trkpt lat="47.545166" lon="7.950366">
        <ele>299.440130</ele>
        <time>2021-11-14T13:41:26.263Z</time>
      </trkpt>
      <trkpt lat="47.545434" lon="7.950668">
        <ele>299.565582</ele>
        <time>2021-11-14T13:41:32.053Z</time>
      </trkpt>
      <trkpt lat="47.545542" lon="7.950842">
        <ele>299.625029</ele>
        <time>2021-11-14T13:41:34.478Z</time>
      </trkpt>
      <trkpt lat="47.545667" lon="7.950979">
        <ele>299.682959</ele>
        <time>2021-11-14T13:41:37.083Z</time>
      </trkpt>
      <trkpt lat="47.545737" lon="7.951055">
        <ele>299.715293</ele>
        <time>2021-11-14T13:41:38.337Z</time>
      </trkpt>
      <trkpt lat="47.545876" lon="7.951233">
        <ele>299.783746</ele>
        <time>2021-11-14T13:41:40.730Z</time>
      </trkpt>
      <trkpt lat="47.546112" lon="7.951485">
        <ele>299.872250</ele>
        <time>2021-11-14T13:41:45.273Z</time>
      </trkpt>
      <trkpt lat="47.546164" lon="7.951520">
        <ele>299.849300</ele>
        <time>2021-11-14T13:41:45.907Z</time>
      </trkpt>
      <trkpt lat="47.546212" lon="7.951535">
        <ele>299.829589</ele>
        <time>2021-11-14T13:41:46.672Z</time>
      </trkpt>
      <trkpt lat="47.546231" lon="7.951558">
        <ele>299.819730</ele>
        <time>2021-11-14T13:41:47.402Z</time>
      </trkpt>
      <trkpt lat="47.546421" lon="7.951793">
        <ele>299.720279</ele>
        <time>2021-11-14T13:41:50.583Z</time>
      </trkpt>
      <trkpt lat="47.546634" lon="7.952024">
        <ele>299.614213</ele>
        <time>2021-11-14T13:41:54.117Z</time>
      </trkpt>
      <trkpt lat="47.546695" lon="7.952091">
        <ele>299.583701</ele>
        <time>2021-11-14T13:41:55.072Z</time>
      </trkpt>
      <trkpt lat="47.546776" lon="7.952185">
        <ele>299.542358</ele>
        <time>2021-11-14T13:41:56.259Z</time>
      </trkpt>
      <trkpt lat="47.546935" lon="7.952372">
        <ele>299.460787</ele>
        <time>2021-11-14T13:41:59.194Z</time>
      </trkpt>
      <trkpt lat="47.547090" lon="7.952543">
        <ele>299.383136</ele>
        <time>2021-11-14T13:42:01.831Z</time>
      </trkpt>
      <trkpt lat="47.547400" lon="7.952910">
        <ele>299.223691</ele>
        <time>2021-11-14T13:42:07.133Z</time>
      </trkpt>
      <trkpt lat="47.547458" lon="7.952975">
        <ele>299.194470</ele>
        <time>2021-11-14T13:42:08.052Z</time>
      </trkpt>
      <trkpt lat="47.547550" lon="7.953078">
        <ele>299.142033</ele>
        <time>2021-11-14T13:42:09.543Z</time>
      </trkpt>
      <trkpt lat="47.547624" lon="7.953160">
        <ele>299.085573</ele>
        <time>2021-11-14T13:42:10.784Z</time>
      </trkpt>
      <trkpt lat="47.547797" lon="7.953355">
        <ele>298.952758</ele>
        <time>2021-11-14T13:42:13.789Z</time>
      </trkpt>
      <trkpt lat="47.547871" lon="7.953437">
        <ele>298.896297</ele>
        <time>2021-11-14T13:42:15.084Z</time>
      </trkpt>
      <trkpt lat="47.547994" lon="7.953584">
        <ele>298.799742</ele>
        <time>2021-11-14T13:42:17.264Z</time>
      </trkpt>
      <trkpt lat="47.548115" lon="7.953729">
        <ele>298.704656</ele>
        <time>2021-11-14T13:42:19.414Z</time>
      </trkpt>
      <trkpt lat="47.548251" lon="7.953895">
        <ele>298.596993</ele>
        <time>2021-11-14T13:42:21.815Z</time>
      </trkpt>
      <trkpt lat="47.548335" lon="7.953779">
        <ele>298.526833</ele>
        <time>2021-11-14T13:42:23.721Z</time>
      </trkpt>
      <trkpt lat="47.548918" lon="7.953469">
        <ele>298.148380</ele>
        <time>2021-11-14T13:42:35.087Z</time>
      </trkpt>
      <trkpt lat="47.549296" lon="7.953268">
        <ele>297.629811</ele>
        <time>2021-11-14T13:42:42.066Z</time>
      </trkpt>
      <trkpt lat="47.549442" lon="7.953195">
        <ele>297.372780</ele>
        <time>2021-11-14T13:42:44.618Z</time>
      </trkpt>
      <trkpt lat="47.549640" lon="7.953086">
        <ele>297.020443</ele>
        <time>2021-11-14T13:42:48.332Z</time>
      </trkpt>
      <trkpt lat="47.549673" lon="7.953076">
        <ele>296.964258</ele>
        <time>2021-11-14T13:42:48.891Z</time>
      </trkpt>
      <trkpt lat="47.549687" lon="7.953071">
        <ele>296.940236</ele>
        <time>2021-11-14T13:42:49.083Z</time>
      </trkpt>
      <trkpt lat="47.550567" lon="7.953069">
        <ele>295.472346</ele>
        <time>2021-11-14T13:43:03.256Z</time>
      </trkpt>
      <trkpt lat="47.550656" lon="7.953072">
        <ele>295.323850</ele>
        <time>2021-11-14T13:43:04.572Z</time>
      </trkpt>
      <trkpt lat="47.550967" lon="7.953063">
        <ele>294.748347</ele>
        <time>2021-11-14T13:43:09.336Z</time>
      </trkpt>
      <trkpt lat="47.551166" lon="7.953009">
        <ele>294.336129</ele>
        <time>2021-11-14T13:43:12.311Z</time>
      </trkpt>
      <trkpt lat="47.551254" lon="7.952986">
        <ele>294.154055</ele>
        <time>2021-11-14T13:43:13.749Z</time>
      </trkpt>
      <trkpt lat="47.551295" lon="7.952900">
        <ele>294.009258</ele>
        <time>2021-11-14T13:43:14.813Z</time>
      </trkpt>
      <trkpt lat="47.551334" lon="7.952777">
        <ele>293.822371</ele>
        <time>2021-11-14T13:43:17.488Z</time>
      </trkpt>
      <trkpt lat="47.551339" lon="7.952761">
        <ele>293.798124</ele>
        <time>2021-11-14T13:43:17.859Z</time>
      </trkpt>
      <trkpt lat="47.551381" lon="7.952341">
        <ele>293.214231</ele>
        <time>2021-11-14T13:43:26.640Z</time>
      </trkpt>
      <trkpt lat="47.551506" lon="7.950255">
        <ele>291.192365</ele>
        <time>2021-11-14T13:44:12.176Z</time>
      </trkpt>
      <trkpt lat="47.551525" lon="7.950027">
        <ele>291.131812</ele>
        <time>2021-11-14T13:44:17.637Z</time>
      </trkpt>
      <trkpt lat="47.551581" lon="7.949830">
        <ele>291.075470</ele>
        <time>2021-11-14T13:44:22.790Z</time>
      </trkpt>
      <trkpt lat="47.551673" lon="7.949634">
        <ele>291.012543</ele>
        <time>2021-11-14T13:44:28.876Z</time>
      </trkpt>
      <trkpt lat="47.551794" lon="7.949387">
        <ele>290.932097</ele>
        <time>2021-11-14T13:44:36.437Z</time>
      </trkpt>
      <trkpt lat="47.552010" lon="7.949039">
        <ele>290.807481</ele>
        <time>2021-11-14T13:44:48.607Z</time>
      </trkpt>
      <trkpt lat="47.552049" lon="7.948982">
        <ele>290.786088</ele>
        <time>2021-11-14T13:44:50.747Z</time>
      </trkpt>
      <trkpt lat="47.552094" lon="7.948926">
        <ele>290.763138</ele>
        <time>2021-11-14T13:44:53.094Z</time>
      </trkpt>
      <trkpt lat="47.552202" lon="7.949003">
        <ele>290.716331</ele>
        <time>2021-11-14T13:44:57.753Z</time>
      </trkpt>
      <trkpt lat="47.552351" lon="7.949099">
        <ele>290.689535</ele>
        <time>2021-11-14T13:45:04.094Z</time>
      </trkpt>
      <trkpt lat="47.552382" lon="7.949119">
        <ele>290.688274</ele>
        <time>2021-11-14T13:45:05.525Z</time>
      </trkpt>
      <trkpt lat="47.552518" lon="7.949236">
        <ele>290.682408</ele>
        <time>2021-11-14T13:45:11.852Z</time>
      </trkpt>
      <trkpt lat="47.552953" lon="7.948775">
        <ele>290.662462</ele>
        <time>2021-11-14T13:45:33.117Z</time>
      </trkpt>
      <trkpt lat="47.553197" lon="7.948543">
        <ele>290.651649</ele>
        <time>2021-11-14T13:45:43.972Z</time>
      </trkpt>
      <trkpt lat="47.553368" lon="7.948399">
        <ele>290.644313</ele>
        <time>2021-11-14T13:45:57.611Z</time>
      </trkpt>
      <trkpt lat="47.553815" lon="7.949414">
        <ele>290.256878</ele>
        <time>2021-11-14T13:46:25.412Z</time>
      </trkpt>
      <trkpt lat="47.553815" lon="7.949414">
        <ele>290.256878</ele>
        <time>2021-11-14T13:46:25.417Z</time>
      </trkpt>
      <trkpt lat="47.554192" lon="7.950296">
        <ele>289.481204</ele>
        <time>2021-11-14T13:46:48.706Z</time>
      </trkpt>
      <trkpt lat="47.554240" lon="7.950300">
        <ele>289.428278</ele>
        <time>2021-11-14T13:46:50.261Z</time>
      </trkpt>
      <trkpt lat="47.554303" lon="7.950312">
        <ele>289.358353</ele>
        <time>2021-11-14T13:46:51.019Z</time>
      </trkpt>
      <trkpt lat="47.554392" lon="7.950331">
        <ele>289.259363</ele>
        <time>2021-11-14T13:46:52.080Z</time>
      </trkpt>
      <trkpt lat="47.554652" lon="7.950448">
        <ele>288.960227</ele>
        <time>2021-11-14T13:46:55.354Z</time>
      </trkpt>
      <trkpt lat="47.554759" lon="7.950515">
        <ele>288.832348</ele>
        <time>2021-11-14T13:46:56.732Z</time>
      </trkpt>
      <trkpt lat="47.554954" lon="7.950665">
        <ele>288.633526</ele>
        <time>2021-11-14T13:46:59.402Z</time>
      </trkpt>
      <trkpt lat="47.555474" lon="7.951144">
        <ele>288.479810</ele>
        <time>2021-11-14T13:47:07.117Z</time>
      </trkpt>
      <trkpt lat="47.555687" lon="7.951449">
        <ele>288.405447</ele>
        <time>2021-11-14T13:47:11.207Z</time>
      </trkpt>
      <trkpt lat="47.556339" lon="7.952382">
        <ele>288.234536</ele>
        <time>2021-11-14T13:47:25.270Z</time>
      </trkpt>
      <trkpt lat="47.556386" lon="7.952449">
        <ele>288.273367</ele>
        <time>2021-11-14T13:47:26.439Z</time>
      </trkpt>
      <trkpt lat="47.556400" lon="7.952468">
        <ele>288.284671</ele>
        <time>2021-11-14T13:47:26.751Z</time>
      </trkpt>
      <trkpt lat="47.557120" lon="7.953536">
        <ele>288.891235</ele>
        <time>2021-11-14T13:47:44.778Z</time>
      </trkpt>
      <trkpt lat="47.557517" lon="7.954117">
        <ele>289.223453</ele>
        <time>2021-11-14T13:47:54.625Z</time>
      </trkpt>
      <trkpt lat="47.557687" lon="7.954371">
        <ele>289.289410</ele>
        <time>2021-11-14T13:47:58.738Z</time>
      </trkpt>
      <trkpt lat="47.557874" lon="7.954579">
        <ele>289.322046</ele>
        <time>2021-11-14T13:48:02.466Z</time>
      </trkpt>
      <trkpt lat="47.557899" lon="7.954581">
        <ele>289.325540</ele>
        <time>2021-11-14T13:48:02.963Z</time>
      </trkpt>
      <trkpt lat="47.557935" lon="7.954571">
        <ele>289.330653</ele>
        <time>2021-11-14T13:48:03.613Z</time>
      </trkpt>
      <trkpt lat="47.558070" lon="7.954468">
        <ele>289.351846</ele>
        <time>2021-11-14T13:48:05.982Z</time>
      </trkpt>
      <trkpt lat="47.558107" lon="7.954410">
        <ele>289.359364</ele>
        <time>2021-11-14T13:48:06.912Z</time>
      </trkpt>
      <trkpt lat="47.558161" lon="7.954466">
        <ele>289.368563</ele>
        <time>2021-11-14T13:48:07.904Z</time>
      </trkpt>
      <trkpt lat="47.558201" lon="7.954539">
        <ele>289.377420</ele>
        <time>2021-11-14T13:48:08.985Z</time>
      </trkpt>
      <trkpt lat="47.558360" lon="7.955074">
        <ele>289.432483</ele>
        <time>2021-11-14T13:48:15.190Z</time>
      </trkpt>
      <trkpt lat="47.558659" lon="7.956055">
        <ele>289.448224</ele>
        <time>2021-11-14T13:48:25.491Z</time>
      </trkpt>
      <trkpt lat="47.558756" lon="7.956469">
        <ele>289.284337</ele>
        <time>2021-11-14T13:48:29.384Z</time>
      </trkpt>
      <trkpt lat="47.559224" lon="7.958738">
        <ele>288.552343</ele>
        <time>2021-11-14T13:48:49.828Z</time>
      </trkpt>
      <trkpt lat="47.559324" lon="7.959601">
        <ele>288.638797</ele>
        <time>2021-11-14T13:48:58.186Z</time>
      </trkpt>
      <trkpt lat="47.559346" lon="7.959868">
        <ele>288.665354</ele>
        <time>2021-11-14T13:49:01.280Z</time>
      </trkpt>
      <trkpt lat="47.559406" lon="7.960730">
        <ele>288.750914</ele>
        <time>2021-11-14T13:49:10.763Z</time>
      </trkpt>
      <trkpt lat="47.559408" lon="7.961845">
        <ele>289.166967</ele>
        <time>2021-11-14T13:49:24.528Z</time>
      </trkpt>
      <trkpt lat="47.559368" lon="7.962709">
        <ele>289.588166</ele>
        <time>2021-11-14T13:49:35.769Z</time>
      </trkpt>
      <trkpt lat="47.559232" lon="7.963800">
        <ele>290.075334</ele>
        <time>2021-11-14T13:49:48.362Z</time>
      </trkpt>
      <trkpt lat="47.559029" lon="7.964894">
        <ele>290.029232</ele>
        <time>2021-11-14T13:50:00.065Z</time>
      </trkpt>
      <trkpt lat="47.558949" lon="7.965326">
        <ele>290.011030</ele>
        <time>2021-11-14T13:50:04.300Z</time>
      </trkpt>
      <trkpt lat="47.558732" lon="7.966356">
        <ele>289.969163</ele>
        <time>2021-11-14T13:50:14.183Z</time>
      </trkpt>
      <trkpt lat="47.558606" lon="7.966985">
        <ele>289.956042</ele>
        <time>2021-11-14T13:50:20.439Z</time>
      </trkpt>
      <trkpt lat="47.558448" lon="7.967701">
        <ele>289.940978</ele>
        <time>2021-11-14T13:50:27.694Z</time>
      </trkpt>
      <trkpt lat="47.558430" lon="7.967788">
        <ele>289.939158</ele>
        <time>2021-11-14T13:50:28.578Z</time>
      </trkpt>
      <trkpt lat="47.558327" lon="7.968108">
        <ele>289.932068</ele>
        <time>2021-11-14T13:50:32.531Z</time>
      </trkpt>
      <trkpt lat="47.558313" lon="7.968259">
        <ele>289.929020</ele>
        <time>2021-11-14T13:50:33.990Z</time>
      </trkpt>
      <trkpt lat="47.558296" lon="7.968403">
        <ele>289.926097</ele>
        <time>2021-11-14T13:50:35.792Z</time>
      </trkpt>
      <trkpt lat="47.558225" lon="7.968807">
        <ele>289.917709</ele>
        <time>2021-11-14T13:50:40.246Z</time>
      </trkpt>
      <trkpt lat="47.558045" lon="7.969704">
        <ele>289.874235</ele>
        <time>2021-11-14T13:50:49.817Z</time>
      </trkpt>
      <trkpt lat="47.557756" lon="7.971140">
        <ele>289.804623</ele>
        <time>2021-11-14T13:51:04.508Z</time>
      </trkpt>
      <trkpt lat="47.557538" lon="7.972196">
        <ele>289.645705</ele>
        <time>2021-11-14T13:51:14.192Z</time>
      </trkpt>
      <trkpt lat="47.557419" lon="7.972636">
        <ele>289.565374</ele>
        <time>2021-11-14T13:51:18.447Z</time>
      </trkpt>
      <trkpt lat="47.557323" lon="7.972992">
        <ele>289.500405</ele>
        <time>2021-11-14T13:51:22.063Z</time>
      </trkpt>
      <trkpt lat="47.557235" lon="7.973507">
        <ele>289.410375</ele>
        <time>2021-11-14T13:51:27.142Z</time>
      </trkpt>
      <trkpt lat="47.557108" lon="7.974186">
        <ele>289.490695</ele>
        <time>2021-11-14T13:51:34.294Z</time>
      </trkpt>
      <trkpt lat="47.557045" lon="7.974526">
        <ele>289.663472</ele>
        <time>2021-11-14T13:51:38.329Z</time>
      </trkpt>
      <trkpt lat="47.556769" lon="7.976421">
        <ele>290.613471</ele>
        <time>2021-11-14T13:52:02.489Z</time>
      </trkpt>
      <trkpt lat="47.556668" lon="7.978159">
        <ele>291.413464</ele>
        <time>2021-11-14T13:52:24.403Z</time>
      </trkpt>
      <trkpt lat="47.557185" lon="7.988787">
        <ele>293.686676</ele>
        <time>2021-11-14T13:54:18.737Z</time>
      </trkpt>
      <trkpt lat="47.557298" lon="7.990679">
        <ele>294.129131</ele>
        <time>2021-11-14T13:54:39.961Z</time>
      </trkpt>
      <trkpt lat="47.557377" lon="7.991413">
        <ele>294.304474</ele>
        <time>2021-11-14T13:54:48.249Z</time>
      </trkpt>
      <trkpt lat="47.557666" lon="7.996934">
        <ele>295.429004</ele>
        <time>2021-11-14T13:55:47.106Z</time>
      </trkpt>
      <trkpt lat="47.557611" lon="7.998828">
        <ele>296.073182</ele>
        <time>2021-11-14T13:56:09.733Z</time>
      </trkpt>
      <trkpt lat="47.557595" lon="7.999065">
        <ele>296.166937</ele>
        <time>2021-11-14T13:56:12.758Z</time>
      </trkpt>
      <trkpt lat="47.557590" lon="7.999121">
        <ele>296.189172</ele>
        <time>2021-11-14T13:56:13.417Z</time>
      </trkpt>
      <trkpt lat="47.557569" lon="7.999330">
        <ele>296.272346</ele>
        <time>2021-11-14T13:56:19.005Z</time>
      </trkpt>
      <trkpt lat="47.557552" lon="7.999488">
        <ele>296.335324</ele>
        <time>2021-11-14T13:56:21.023Z</time>
      </trkpt>
      <trkpt lat="47.557421" lon="8.000151">
        <ele>296.607254</ele>
        <time>2021-11-14T13:56:29.221Z</time>
      </trkpt>
      <trkpt lat="47.556859" lon="8.003033">
        <ele>296.625785</ele>
        <time>2021-11-14T13:56:58.935Z</time>
      </trkpt>
      <trkpt lat="47.556414" lon="8.004608">
        <ele>295.958700</ele>
        <time>2021-11-14T13:57:13.703Z</time>
      </trkpt>
      <trkpt lat="47.555689" lon="8.008075">
        <ele>294.339244</ele>
        <time>2021-11-14T13:57:45.371Z</time>
      </trkpt>
      <trkpt lat="47.555492" lon="8.008854">
        <ele>293.846565</ele>
        <time>2021-11-14T13:57:52.391Z</time>
      </trkpt>
      <trkpt lat="47.555373" lon="8.009365">
        <ele>293.526421</ele>
        <time>2021-11-14T13:57:56.875Z</time>
      </trkpt>
      <trkpt lat="47.555124" lon="8.010557">
        <ele>292.801375</ele>
        <time>2021-11-14T13:58:07.203Z</time>
      </trkpt>
      <trkpt lat="47.555069" lon="8.010772">
        <ele>292.710336</ele>
        <time>2021-11-14T13:58:09.035Z</time>
      </trkpt>
      <trkpt lat="47.554818" lon="8.011865">
        <ele>292.253196</ele>
        <time>2021-11-14T13:58:18.740Z</time>
      </trkpt>
      <trkpt lat="47.554682" lon="8.012449">
        <ele>292.008582</ele>
        <time>2021-11-14T13:58:24.444Z</time>
      </trkpt>
      <trkpt lat="47.554665" lon="8.012540">
        <ele>291.971195</ele>
        <time>2021-11-14T13:58:25.283Z</time>
      </trkpt>
      <trkpt lat="47.554546" lon="8.013079">
        <ele>291.795212</ele>
        <time>2021-11-14T13:58:30.785Z</time>
      </trkpt>
      <trkpt lat="47.554393" lon="8.013577">
        <ele>291.959590</ele>
        <time>2021-11-14T13:58:36.568Z</time>
      </trkpt>
      <trkpt lat="47.554329" lon="8.013807">
        <ele>292.034328</ele>
        <time>2021-11-14T13:58:39.442Z</time>
      </trkpt>
      <trkpt lat="47.553882" lon="8.015749">
        <ele>292.675171</ele>
        <time>2021-11-14T13:59:03.244Z</time>
      </trkpt>
      <trkpt lat="47.553715" lon="8.016236">
        <ele>292.892159</ele>
        <time>2021-11-14T13:59:09.706Z</time>
      </trkpt>
      <trkpt lat="47.553318" lon="8.017064">
        <ele>293.295617</ele>
        <time>2021-11-14T13:59:21.589Z</time>
      </trkpt>
      <trkpt lat="47.553229" lon="8.017328">
        <ele>293.412841</ele>
        <time>2021-11-14T13:59:25.199Z</time>
      </trkpt>
      <trkpt lat="47.553159" lon="8.017677">
        <ele>293.557467</ele>
        <time>2021-11-14T13:59:29.799Z</time>
      </trkpt>
      <trkpt lat="47.553012" lon="8.018748">
        <ele>293.757983</ele>
        <time>2021-11-14T13:59:41.427Z</time>
      </trkpt>
      <trkpt lat="47.553028" lon="8.018988">
        <ele>293.791280</ele>
        <time>2021-11-14T13:59:43.751Z</time>
      </trkpt>
      <trkpt lat="47.553030" lon="8.019182">
        <ele>293.818067</ele>
        <time>2021-11-14T13:59:45.445Z</time>
      </trkpt>
      <trkpt lat="47.553055" lon="8.019647">
        <ele>293.882471</ele>
        <time>2021-11-14T13:59:50.123Z</time>
      </trkpt>
      <trkpt lat="47.553064" lon="8.019820">
        <ele>293.906427</ele>
        <time>2021-11-14T13:59:51.628Z</time>
      </trkpt>
      <trkpt lat="47.553056" lon="8.019871">
        <ele>293.913656</ele>
        <time>2021-11-14T13:59:52.123Z</time>
      </trkpt>
      <trkpt lat="47.553031" lon="8.019915">
        <ele>293.921596</ele>
        <time>2021-11-14T13:59:52.794Z</time>
      </trkpt>
      <trkpt lat="47.552961" lon="8.019989">
        <ele>293.939187</ele>
        <time>2021-11-14T13:59:54.262Z</time>
      </trkpt>
      <trkpt lat="47.552879" lon="8.020034">
        <ele>293.957075</ele>
        <time>2021-11-14T13:59:55.834Z</time>
      </trkpt>
      <trkpt lat="47.552872" lon="8.020109">
        <ele>293.967529</ele>
        <time>2021-11-14T13:59:56.441Z</time>
      </trkpt>
      <trkpt lat="47.552813" lon="8.020595">
        <ele>294.228517</ele>
        <time>2021-11-14T14:00:02.272Z</time>
      </trkpt>
      <trkpt lat="47.552776" lon="8.021316">
        <ele>294.890584</ele>
        <time>2021-11-14T14:00:10.813Z</time>
      </trkpt>
      <trkpt lat="47.552959" lon="8.021335">
        <ele>295.139461</ele>
        <time>2021-11-14T14:00:14.608Z</time>
      </trkpt>
      <trkpt lat="47.553099" lon="8.021417">
        <ele>295.343694</ele>
        <time>2021-11-14T14:00:17.360Z</time>
      </trkpt>
      <trkpt lat="47.553183" lon="8.021466">
        <ele>295.466166</ele>
        <time>2021-11-14T14:00:19.396Z</time>
      </trkpt>
      <trkpt lat="47.553232" lon="8.021484">
        <ele>295.534655</ele>
        <time>2021-11-14T14:00:20.599Z</time>
      </trkpt>
      <trkpt lat="47.553266" lon="8.021493">
        <ele>295.581511</ele>
        <time>2021-11-14T14:00:21.344Z</time>
      </trkpt>
      <trkpt lat="47.553291" lon="8.021502">
        <ele>295.616415</ele>
        <time>2021-11-14T14:00:21.906Z</time>
      </trkpt>
      <trkpt lat="47.553305" lon="8.021505">
        <ele>295.635605</ele>
        <time>2021-11-14T14:00:22.200Z</time>
      </trkpt>
      <trkpt lat="47.553565" lon="8.021501">
        <ele>295.988354</ele>
        <time>2021-11-14T14:00:27.440Z</time>
      </trkpt>
      <trkpt lat="47.553607" lon="8.021497">
        <ele>296.045451</ele>
        <time>2021-11-14T14:00:28.514Z</time>
      </trkpt>
      <trkpt lat="47.553614" lon="8.021587">
        <ele>296.128401</ele>
        <time>2021-11-14T14:00:29.900Z</time>
      </trkpt>
      <trkpt lat="47.553615" lon="8.021606">
        <ele>296.145851</ele>
        <time>2021-11-14T14:00:30.192Z</time>
      </trkpt>
      <trkpt lat="47.553619" lon="8.021667">
        <ele>296.201966</ele>
        <time>2021-11-14T14:00:31.012Z</time>
      </trkpt>
      <trkpt lat="47.553685" lon="8.022501">
        <ele>297.682759</ele>
        <time>2021-11-14T14:00:44.968Z</time>
      </trkpt>
      <trkpt lat="47.553695" lon="8.022619">
        <ele>297.938139</ele>
        <time>2021-11-14T14:00:47.324Z</time>
      </trkpt>
      <trkpt lat="47.553699" lon="8.022667">
        <ele>298.041995</ele>
        <time>2021-11-14T14:00:48.259Z</time>
      </trkpt>
      <trkpt lat="47.553719" lon="8.022919">
        <ele>298.586863</ele>
        <time>2021-11-14T14:00:53.294Z</time>
      </trkpt>
      <trkpt lat="47.553732" lon="8.023128">
        <ele>299.037566</ele>
        <time>2021-11-14T14:00:57.539Z</time>
      </trkpt>
      <trkpt lat="47.553811" lon="8.023113">
        <ele>299.290982</ele>
        <time>2021-11-14T14:00:59.687Z</time>
      </trkpt>
      <trkpt lat="47.554021" lon="8.023095">
        <ele>299.960271</ele>
        <time>2021-11-14T14:01:05.940Z</time>
      </trkpt>
      <trkpt lat="47.554299" lon="8.023080">
        <ele>300.845390</ele>
        <time>2021-11-14T14:01:13.660Z</time>
      </trkpt>
      <trkpt lat="47.554701" lon="8.023055">
        <ele>302.125589</ele>
        <time>2021-11-14T14:01:25.363Z</time>
      </trkpt>
      <trkpt lat="47.554871" lon="8.023042">
        <ele>302.757228</ele>
        <time>2021-11-14T14:01:30.429Z</time>
      </trkpt>
      <trkpt lat="47.555073" lon="8.023022">
        <ele>303.516719</ele>
        <time>2021-11-14T14:01:36.522Z</time>
      </trkpt>
      <trkpt lat="47.555384" lon="8.022959">
        <ele>304.694285</ele>
        <time>2021-11-14T14:01:45.142Z</time>
      </trkpt>
      <trkpt lat="47.555814" lon="8.022759">
        <ele>306.385031</ele>
        <time>2021-11-14T14:01:57.527Z</time>
      </trkpt>
      <trkpt lat="47.556133" lon="8.022482">
        <ele>307.772105</ele>
        <time>2021-11-14T14:02:09.010Z</time>
      </trkpt>
      <trkpt lat="47.556317" lon="8.022276">
        <ele>308.637255</ele>
        <time>2021-11-14T14:02:17.395Z</time>
      </trkpt>
      <trkpt lat="47.556533" lon="8.022036">
        <ele>309.924750</ele>
        <time>2021-11-14T14:02:25.600Z</time>
      </trkpt>
      <trkpt lat="47.556863" lon="8.021668">
        <ele>312.050796</ele>
        <time>2021-11-14T14:02:39.412Z</time>
      </trkpt>
      <trkpt lat="47.557042" lon="8.021611">
        <ele>312.993269</ele>
        <time>2021-11-14T14:02:45.810Z</time>
      </trkpt>
      <trkpt lat="47.557190" lon="8.021670">
        <ele>313.782215</ele>
        <time>2021-11-14T14:02:50.466Z</time>
      </trkpt>
      <trkpt lat="47.557232" lon="8.021693">
        <ele>314.012710</ele>
        <time>2021-11-14T14:02:52.713Z</time>
      </trkpt>
      <trkpt lat="47.557354" lon="8.021790">
        <ele>314.725421</ele>
        <time>2021-11-14T14:02:56.699Z</time>
      </trkpt>
      <trkpt lat="47.557374" lon="8.021813">
        <ele>314.855742</ele>
        <time>2021-11-14T14:02:58.396Z</time>
      </trkpt>
      <trkpt lat="47.557721" lon="8.022248">
        <ele>317.195456</ele>
        <time>2021-11-14T14:03:14.000Z</time>
      </trkpt>
      <trkpt lat="47.558325" lon="8.023268">
        <ele>323.058068</ele>
        <time>2021-11-14T14:03:52.754Z</time>
      </trkpt>
      <trkpt lat="47.558843" lon="8.023745">
        <ele>327.161946</ele>
        <time>2021-11-14T14:04:19.286Z</time>
      </trkpt>
      <trkpt lat="47.559393" lon="8.024159">
        <ele>331.140418</ele>
        <time>2021-11-14T14:04:44.577Z</time>
      </trkpt>
      <trkpt lat="47.559502" lon="8.024274">
        <ele>331.891174</ele>
        <time>2021-11-14T14:04:50.726Z</time>
      </trkpt>
      <trkpt lat="47.559958" lon="8.024826">
        <ele>335.194886</ele>
        <time>2021-11-14T14:05:14.601Z</time>
      </trkpt>
      <trkpt lat="47.560078" lon="8.025111">
        <ele>336.466809</ele>
        <time>2021-11-14T14:05:23.385Z</time>
      </trkpt>
      <trkpt lat="47.560303" lon="8.026133">
        <ele>340.451760</ele>
        <time>2021-11-14T14:05:47.951Z</time>
      </trkpt>
      <trkpt lat="47.560381" lon="8.026393">
        <ele>340.991273</ele>
        <time>2021-11-14T14:05:53.520Z</time>
      </trkpt>
      <trkpt lat="47.560481" lon="8.026632">
        <ele>341.524486</ele>
        <time>2021-11-14T14:05:57.836Z</time>
      </trkpt>
      <trkpt lat="47.560798" lon="8.027161">
        <ele>342.865931</ele>
        <time>2021-11-14T14:06:10.293Z</time>
      </trkpt>
      <trkpt lat="47.561018" lon="8.027383">
        <ele>343.613803</ele>
        <time>2021-11-14T14:06:17.008Z</time>
      </trkpt>
      <trkpt lat="47.561969" lon="8.028038">
        <ele>346.108994</ele>
        <time>2021-11-14T14:06:42.312Z</time>
      </trkpt>
      <trkpt lat="47.562307" lon="8.028432">
        <ele>346.838976</ele>
        <time>2021-11-14T14:06:51.434Z</time>
      </trkpt>
      <trkpt lat="47.562445" lon="8.028648">
        <ele>347.179697</ele>
        <time>2021-11-14T14:06:55.495Z</time>
      </trkpt>
      <trkpt lat="47.562458" lon="8.028671">
        <ele>347.214063</ele>
        <time>2021-11-14T14:06:56.022Z</time>
      </trkpt>
      <trkpt lat="47.562597" lon="8.028906">
        <ele>347.572017</ele>
        <time>2021-11-14T14:07:00.327Z</time>
      </trkpt>
      <trkpt lat="47.562762" lon="8.029240">
        <ele>348.046164</ele>
        <time>2021-11-14T14:07:06.070Z</time>
      </trkpt>
      <trkpt lat="47.562862" lon="8.029514">
        <ele>348.402979</ele>
        <time>2021-11-14T14:07:10.405Z</time>
      </trkpt>
      <trkpt lat="47.562908" lon="8.029661">
        <ele>348.576612</ele>
        <time>2021-11-14T14:07:12.801Z</time>
      </trkpt>
      <trkpt lat="47.562995" lon="8.029987">
        <ele>348.936501</ele>
        <time>2021-11-14T14:07:17.735Z</time>
      </trkpt>
      <trkpt lat="47.563183" lon="8.030459">
        <ele>349.499163</ele>
        <time>2021-11-14T14:07:24.952Z</time>
      </trkpt>
      <trkpt lat="47.563345" lon="8.030793">
        <ele>349.921428</ele>
        <time>2021-11-14T14:07:30.252Z</time>
      </trkpt>
      <trkpt lat="47.563394" lon="8.030849">
        <ele>350.015566</ele>
        <time>2021-11-14T14:07:31.409Z</time>
      </trkpt>
      <trkpt lat="47.563725" lon="8.031208">
        <ele>350.639588</ele>
        <time>2021-11-14T14:07:39.322Z</time>
      </trkpt>
      <trkpt lat="47.564393" lon="8.032053">
        <ele>352.913654</ele>
        <time>2021-11-14T14:08:00.507Z</time>
      </trkpt>
      <trkpt lat="47.564511" lon="8.032311">
        <ele>353.625321</ele>
        <time>2021-11-14T14:08:05.832Z</time>
      </trkpt>
      <trkpt lat="47.564569" lon="8.032525">
        <ele>354.151891</ele>
        <time>2021-11-14T14:08:10.170Z</time>
      </trkpt>
      <trkpt lat="47.564678" lon="8.032921">
        <ele>355.128416</ele>
        <time>2021-11-14T14:08:17.517Z</time>
      </trkpt>
      <trkpt lat="47.564702" lon="8.033000">
        <ele>355.326235</ele>
        <time>2021-11-14T14:08:20.319Z</time>
      </trkpt>
      <trkpt lat="47.564933" lon="8.033469">
        <ele>356.652044</ele>
        <time>2021-11-14T14:08:33.271Z</time>
      </trkpt>
      <trkpt lat="47.565189" lon="8.033686">
        <ele>357.846451</ele>
        <time>2021-11-14T14:08:42.687Z</time>
      </trkpt>
      <trkpt lat="47.565871" lon="8.033704">
        <ele>361.435472</ele>
        <time>2021-11-14T14:09:06.802Z</time>
      </trkpt>
      <trkpt lat="47.566001" lon="8.033711">
        <ele>362.119940</ele>
        <time>2021-11-14T14:09:13.030Z</time>
      </trkpt>
      <trkpt lat="47.566321" lon="8.033776">
        <ele>363.819411</ele>
        <time>2021-11-14T14:09:24.313Z</time>
      </trkpt>
      <trkpt lat="47.566670" lon="8.033967">
        <ele>365.776930</ele>
        <time>2021-11-14T14:09:37.696Z</time>
      </trkpt>
      <trkpt lat="47.566763" lon="8.034017">
        <ele>366.297466</ele>
        <time>2021-11-14T14:09:41.430Z</time>
      </trkpt>
      <trkpt lat="47.567079" lon="8.034308">
        <ele>368.012511</ele>
        <time>2021-11-14T14:09:54.475Z</time>
      </trkpt>
      <trkpt lat="47.567313" lon="8.034591">
        <ele>369.343939</ele>
        <time>2021-11-14T14:10:05.547Z</time>
      </trkpt>
      <trkpt lat="47.567673" lon="8.035162">
        <ele>371.668419</ele>
        <time>2021-11-14T14:10:22.629Z</time>
      </trkpt>
      <trkpt lat="47.568018" lon="8.035824">
        <ele>374.156457</ele>
        <time>2021-11-14T14:10:39.287Z</time>
      </trkpt>
      <trkpt lat="47.568240" lon="8.036333">
        <ele>375.769740</ele>
        <time>2021-11-14T14:10:51.537Z</time>
      </trkpt>
      <trkpt lat="47.568395" lon="8.036764">
        <ele>377.005761</ele>
        <time>2021-11-14T14:11:00.852Z</time>
      </trkpt>
      <trkpt lat="47.568512" lon="8.037290">
        <ele>378.407403</ele>
        <time>2021-11-14T14:11:11.018Z</time>
      </trkpt>
      <trkpt lat="47.568537" lon="8.037570">
        <ele>379.122187</ele>
        <time>2021-11-14T14:11:16.836Z</time>
      </trkpt>
      <trkpt lat="47.568540" lon="8.037665">
        <ele>379.362870</ele>
        <time>2021-11-14T14:11:18.697Z</time>
      </trkpt>
      <trkpt lat="47.568562" lon="8.038275">
        <ele>380.908823</ele>
        <time>2021-11-14T14:11:30.925Z</time>
      </trkpt>
      <trkpt lat="47.568633" lon="8.038920">
        <ele>383.146353</ele>
        <time>2021-11-14T14:11:44.780Z</time>
      </trkpt>
      <trkpt lat="47.568715" lon="8.039132">
        <ele>384.084947</ele>
        <time>2021-11-14T14:11:51.588Z</time>
      </trkpt>
      <trkpt lat="47.568916" lon="8.039421">
        <ele>385.679143</ele>
        <time>2021-11-14T14:12:01.699Z</time>
      </trkpt>
      <trkpt lat="47.568992" lon="8.039490">
        <ele>386.186512</ele>
        <time>2021-11-14T14:12:05.807Z</time>
      </trkpt>
      <trkpt lat="47.569043" lon="8.039527">
        <ele>386.509758</ele>
        <time>2021-11-14T14:12:08.047Z</time>
      </trkpt>
      <trkpt lat="47.569103" lon="8.039554">
        <ele>386.866720</ele>
        <time>2021-11-14T14:12:10.141Z</time>
      </trkpt>
      <trkpt lat="47.569159" lon="8.039571">
        <ele>387.192133</ele>
        <time>2021-11-14T14:12:12.114Z</time>
      </trkpt>
      <trkpt lat="47.569259" lon="8.039574">
        <ele>387.761525</ele>
        <time>2021-11-14T14:12:16.119Z</time>
      </trkpt>
      <trkpt lat="47.569285" lon="8.039568">
        <ele>387.911321</ele>
        <time>2021-11-14T14:12:17.317Z</time>
      </trkpt>
      <trkpt lat="47.569469" lon="8.039531">
        <ele>388.968385</ele>
        <time>2021-11-14T14:12:24.588Z</time>
      </trkpt>
      <trkpt lat="47.569586" lon="8.039479">
        <ele>389.663739</ele>
        <time>2021-11-14T14:12:29.164Z</time>
      </trkpt>
      <trkpt lat="47.569710" lon="8.039373">
        <ele>390.478634</ele>
        <time>2021-11-14T14:12:35.511Z</time>
      </trkpt>
      <trkpt lat="47.569840" lon="8.039218">
        <ele>391.428429</ele>
        <time>2021-11-14T14:12:41.517Z</time>
      </trkpt>
      <trkpt lat="47.570037" lon="8.038979">
        <ele>393.012532</ele>
        <time>2021-11-14T14:12:52.662Z</time>
      </trkpt>
      <trkpt lat="47.571009" lon="8.037816">
        <ele>400.920937</ele>
        <time>2021-11-14T14:13:45.055Z</time>
      </trkpt>
      <trkpt lat="47.571259" lon="8.037413">
        <ele>403.247070</ele>
        <time>2021-11-14T14:13:58.743Z</time>
      </trkpt>
      <trkpt lat="47.571475" lon="8.036863">
        <ele>405.797218</ele>
        <time>2021-11-14T14:14:12.299Z</time>
      </trkpt>
      <trkpt lat="47.571515" lon="8.036741">
        <ele>406.340763</ele>
        <time>2021-11-14T14:14:15.526Z</time>
      </trkpt>
      <trkpt lat="47.571572" lon="8.036534">
        <ele>407.236673</ele>
        <time>2021-11-14T14:14:20.997Z</time>
      </trkpt>
      <trkpt lat="47.571799" lon="8.035252">
        <ele>412.547817</ele>
        <time>2021-11-14T14:14:56.055Z</time>
      </trkpt>
      <trkpt lat="47.571997" lon="8.034962">
        <ele>414.350244</ele>
        <time>2021-11-14T14:15:07.729Z</time>
      </trkpt>
      <trkpt lat="47.572189" lon="8.034875">
        <ele>415.932199</ele>
        <time>2021-11-14T14:15:17.527Z</time>
      </trkpt>
      <trkpt lat="47.572273" lon="8.034877">
        <ele>416.594152</ele>
        <time>2021-11-14T14:15:21.153Z</time>
      </trkpt>
      <trkpt lat="47.572364" lon="8.034904">
        <ele>417.325400</ele>
        <time>2021-11-14T14:15:25.290Z</time>
      </trkpt>
      <trkpt lat="47.572533" lon="8.035069">
        <ele>418.919935</ele>
        <time>2021-11-14T14:15:34.613Z</time>
      </trkpt>
      <trkpt lat="47.572641" lon="8.035341">
        <ele>420.597680</ele>
        <time>2021-11-14T14:15:43.535Z</time>
      </trkpt>
      <trkpt lat="47.572671" lon="8.035496">
        <ele>421.454876</ele>
        <time>2021-11-14T14:15:49.814Z</time>
      </trkpt>
      <trkpt lat="47.572708" lon="8.035770">
        <ele>422.940311</ele>
        <time>2021-11-14T14:15:58.380Z</time>
      </trkpt>
      <trkpt lat="47.572715" lon="8.035848">
        <ele>423.358600</ele>
        <time>2021-11-14T14:16:00.351Z</time>
      </trkpt>
      <trkpt lat="47.572755" lon="8.036163">
        <ele>425.062498</ele>
        <time>2021-11-14T14:16:11.588Z</time>
      </trkpt>
      <trkpt lat="47.572795" lon="8.036376">
        <ele>426.237821</ele>
        <time>2021-11-14T14:16:18.282Z</time>
      </trkpt>
      <trkpt lat="47.572842" lon="8.036541">
        <ele>427.189911</ele>
        <time>2021-11-14T14:16:25.456Z</time>
      </trkpt>
      <trkpt lat="47.573030" lon="8.037075">
        <ele>429.961941</ele>
        <time>2021-11-14T14:16:45.604Z</time>
      </trkpt>
      <trkpt lat="47.573382" lon="8.037609">
        <ele>433.241316</ele>
        <time>2021-11-14T14:17:07.049Z</time>
      </trkpt>
      <trkpt lat="47.574184" lon="8.038572">
        <ele>439.824419</ele>
        <time>2021-11-14T14:17:46.333Z</time>
      </trkpt>
      <trkpt lat="47.574759" lon="8.039036">
        <ele>442.339189</ele>
        <time>2021-11-14T14:18:06.452Z</time>
      </trkpt>
      <trkpt lat="47.575257" lon="8.039153">
        <ele>444.275980</ele>
        <time>2021-11-14T14:18:20.478Z</time>
      </trkpt>
      <trkpt lat="47.575923" lon="8.038951">
        <ele>446.949767</ele>
        <time>2021-11-14T14:18:38.541Z</time>
      </trkpt>
      <trkpt lat="47.576406" lon="8.038533">
        <ele>449.481104</ele>
        <time>2021-11-14T14:18:56.258Z</time>
      </trkpt>
      <trkpt lat="47.576805" lon="8.038021">
        <ele>451.869606</ele>
        <time>2021-11-14T14:19:13.306Z</time>
      </trkpt>
      <trkpt lat="47.577033" lon="8.037627">
        <ele>453.454536</ele>
        <time>2021-11-14T14:19:25.563Z</time>
      </trkpt>
      <trkpt lat="47.577177" lon="8.037276">
        <ele>454.720523</ele>
        <time>2021-11-14T14:19:36.025Z</time>
      </trkpt>
      <trkpt lat="47.577575" lon="8.036311">
        <ele>459.441221</ele>
        <time>2021-11-14T14:20:05.251Z</time>
      </trkpt>
      <trkpt lat="47.577907" lon="8.035891">
        <ele>462.141583</ele>
        <time>2021-11-14T14:20:23.470Z</time>
      </trkpt>
      <trkpt lat="47.578436" lon="8.035601">
        <ele>465.631108</ele>
        <time>2021-11-14T14:20:46.199Z</time>
      </trkpt>
      <trkpt lat="47.578978" lon="8.035646">
        <ele>469.324222</ele>
        <time>2021-11-14T14:21:08.215Z</time>
      </trkpt>
      <trkpt lat="47.579283" lon="8.035709">
        <ele>471.429613</ele>
        <time>2021-11-14T14:21:21.481Z</time>
      </trkpt>
      <trkpt lat="47.579422" lon="8.035733">
        <ele>472.386362</ele>
        <time>2021-11-14T14:21:27.823Z</time>
      </trkpt>
      <trkpt lat="47.579822" lon="8.035743">
        <ele>475.121498</ele>
        <time>2021-11-14T14:21:44.977Z</time>
      </trkpt>
      <trkpt lat="47.580022" lon="8.035662">
        <ele>476.538982</ele>
        <time>2021-11-14T14:21:53.162Z</time>
      </trkpt>
      <trkpt lat="47.580118" lon="8.035593">
        <ele>477.268396</ele>
        <time>2021-11-14T14:21:58.215Z</time>
      </trkpt>
      <trkpt lat="47.580238" lon="8.035490">
        <ele>478.207477</ele>
        <time>2021-11-14T14:22:04.528Z</time>
      </trkpt>
      <trkpt lat="47.580445" lon="8.035225">
        <ele>479.931053</ele>
        <time>2021-11-14T14:22:16.110Z</time>
      </trkpt>
      <trkpt lat="47.580541" lon="8.035017">
        <ele>481.002412</ele>
        <time>2021-11-14T14:22:23.007Z</time>
      </trkpt>
      <trkpt lat="47.580850" lon="8.034146">
        <ele>485.185825</ele>
        <time>2021-11-14T14:22:50.629Z</time>
      </trkpt>
      <trkpt lat="47.581054" lon="8.033717">
        <ele>487.417060</ele>
        <time>2021-11-14T14:23:05.585Z</time>
      </trkpt>
      <trkpt lat="47.581473" lon="8.033185">
        <ele>490.411172</ele>
        <time>2021-11-14T14:23:24.454Z</time>
      </trkpt>
      <trkpt lat="47.581815" lon="8.032893">
        <ele>492.074523</ele>
        <time>2021-11-14T14:23:36.880Z</time>
      </trkpt>
      <trkpt lat="47.582168" lon="8.032628">
        <ele>493.742151</ele>
        <time>2021-11-14T14:23:48.759Z</time>
      </trkpt>
      <trkpt lat="47.582305" lon="8.032518">
        <ele>494.398797</ele>
        <time>2021-11-14T14:23:53.474Z</time>
      </trkpt>
      <trkpt lat="47.582379" lon="8.032452">
        <ele>494.762767</ele>
        <time>2021-11-14T14:23:55.973Z</time>
      </trkpt>
      <trkpt lat="47.582534" lon="8.032340">
        <ele>495.489495</ele>
        <time>2021-11-14T14:24:01.485Z</time>
      </trkpt>
      <trkpt lat="47.582877" lon="8.032131">
        <ele>497.054231</ele>
        <time>2021-11-14T14:24:12.856Z</time>
      </trkpt>
      <trkpt lat="47.583028" lon="8.032087">
        <ele>497.736066</ele>
        <time>2021-11-14T14:24:17.364Z</time>
      </trkpt>
      <trkpt lat="47.583316" lon="8.032065">
        <ele>499.013796</ele>
        <time>2021-11-14T14:24:26.350Z</time>
      </trkpt>
      <trkpt lat="47.583557" lon="8.032062">
        <ele>500.081629</ele>
        <time>2021-11-14T14:24:33.511Z</time>
      </trkpt>
      <trkpt lat="47.583770" lon="8.032077">
        <ele>501.026430</ele>
        <time>2021-11-14T14:24:39.873Z</time>
      </trkpt>
      <trkpt lat="47.584000" lon="8.032100">
        <ele>502.047803</ele>
        <time>2021-11-14T14:24:47.261Z</time>
      </trkpt>
      <trkpt lat="47.584568" lon="8.032176">
        <ele>504.574662</ele>
        <time>2021-11-14T14:25:06.466Z</time>
      </trkpt>
      <trkpt lat="47.585091" lon="8.032467">
        <ele>507.982842</ele>
        <time>2021-11-14T14:25:27.982Z</time>
      </trkpt>
      <trkpt lat="47.585583" lon="8.032905">
        <ele>511.675676</ele>
        <time>2021-11-14T14:25:51.126Z</time>
      </trkpt>
      <trkpt lat="47.586980" lon="8.033883">
        <ele>522.280010</ele>
        <time>2021-11-14T14:26:58.453Z</time>
      </trkpt>
      <trkpt lat="47.587928" lon="8.034180">
        <ele>529.332660</ele>
        <time>2021-11-14T14:27:41.728Z</time>
      </trkpt>
      <trkpt lat="47.588478" lon="8.034510">
        <ele>533.019771</ele>
        <time>2021-11-14T14:28:06.989Z</time>
      </trkpt>
      <trkpt lat="47.588642" lon="8.034658">
        <ele>534.196489</ele>
        <time>2021-11-14T14:28:14.798Z</time>
      </trkpt>
      <trkpt lat="47.588947" lon="8.035308">
        <ele>537.469741</ele>
        <time>2021-11-14T14:28:35.344Z</time>
      </trkpt>
      <trkpt lat="47.589239" lon="8.036386">
        <ele>541.827056</ele>
        <time>2021-11-14T14:29:03.997Z</time>
      </trkpt>
      <trkpt lat="47.589499" lon="8.036832">
        <ele>543.584407</ele>
        <time>2021-11-14T14:29:16.856Z</time>
      </trkpt>
      <trkpt lat="47.589772" lon="8.037159">
        <ele>545.135603</ele>
        <time>2021-11-14T14:29:27.656Z</time>
      </trkpt>
      <trkpt lat="47.589825" lon="8.037196">
        <ele>545.394528</ele>
        <time>2021-11-14T14:29:29.967Z</time>
      </trkpt>
      <trkpt lat="47.589869" lon="8.037227">
        <ele>545.609846</ele>
        <time>2021-11-14T14:29:31.696Z</time>
      </trkpt>
      <trkpt lat="47.590067" lon="8.037365">
        <ele>546.576863</ele>
        <time>2021-11-14T14:29:38.342Z</time>
      </trkpt>
      <trkpt lat="47.590476" lon="8.037474">
        <ele>548.413599</ele>
        <time>2021-11-14T14:29:51.058Z</time>
      </trkpt>
      <trkpt lat="47.591044" lon="8.037455">
        <ele>550.891576</ele>
        <time>2021-11-14T14:30:07.912Z</time>
      </trkpt>
      <trkpt lat="47.591150" lon="8.037443">
        <ele>551.354667</ele>
        <time>2021-11-14T14:30:11.552Z</time>
      </trkpt>
      <trkpt lat="47.591397" lon="8.037383">
        <ele>552.444969</ele>
        <time>2021-11-14T14:30:19.340Z</time>
      </trkpt>
      <trkpt lat="47.591489" lon="8.037361">
        <ele>552.850909</ele>
        <time>2021-11-14T14:30:22.706Z</time>
      </trkpt>
      <trkpt lat="47.591840" lon="8.037249">
        <ele>554.414905</ele>
        <time>2021-11-14T14:30:33.579Z</time>
      </trkpt>
      <trkpt lat="47.592197" lon="8.037045">
        <ele>556.081518</ele>
        <time>2021-11-14T14:30:46.162Z</time>
      </trkpt>
      <trkpt lat="47.592446" lon="8.036889">
        <ele>557.565544</ele>
        <time>2021-11-14T14:30:55.394Z</time>
      </trkpt>
      <trkpt lat="47.592676" lon="8.036726">
        <ele>559.102931</ele>
        <time>2021-11-14T14:31:05.778Z</time>
      </trkpt>
      <trkpt lat="47.593028" lon="8.036477">
        <ele>561.454990</ele>
        <time>2021-11-14T14:31:21.757Z</time>
      </trkpt>
      <trkpt lat="47.593393" lon="8.036130">
        <ele>564.069824</ele>
        <time>2021-11-14T14:31:38.120Z</time>
      </trkpt>
      <trkpt lat="47.593868" lon="8.035603">
        <ele>567.692062</ele>
        <time>2021-11-14T14:32:01.837Z</time>
      </trkpt>
      <trkpt lat="47.593897" lon="8.035570">
        <ele>567.941497</ele>
        <time>2021-11-14T14:32:04.513Z</time>
      </trkpt>
      <trkpt lat="47.594584" lon="8.034488">
        <ele>574.780032</ele>
        <time>2021-11-14T14:32:46.650Z</time>
      </trkpt>
      <trkpt lat="47.594810" lon="8.034086">
        <ele>577.188366</ele>
        <time>2021-11-14T14:33:02.269Z</time>
      </trkpt>
      <trkpt lat="47.595055" lon="8.033631">
        <ele>579.822598</ele>
        <time>2021-11-14T14:33:19.007Z</time>
      </trkpt>
      <trkpt lat="47.595255" lon="8.033138">
        <ele>582.052128</ele>
        <time>2021-11-14T14:33:33.956Z</time>
      </trkpt>
      <trkpt lat="47.595292" lon="8.033047">
        <ele>582.463909</ele>
        <time>2021-11-14T14:33:36.655Z</time>
      </trkpt>
      <trkpt lat="47.595337" lon="8.032814">
        <ele>583.403130</ele>
        <time>2021-11-14T14:33:43.107Z</time>
      </trkpt>
      <trkpt lat="47.595354" lon="8.032569">
        <ele>584.357566</ele>
        <time>2021-11-14T14:33:49.419Z</time>
      </trkpt>
      <trkpt lat="47.595342" lon="8.032391">
        <ele>585.050790</ele>
        <time>2021-11-14T14:33:53.785Z</time>
      </trkpt>
      <trkpt lat="47.595259" lon="8.032045">
        <ele>586.473914</ele>
        <time>2021-11-14T14:34:03.165Z</time>
      </trkpt>
      <trkpt lat="47.595161" lon="8.031839">
        <ele>587.450855</ele>
        <time>2021-11-14T14:34:09.245Z</time>
      </trkpt>
      <trkpt lat="47.595010" lon="8.031571">
        <ele>588.804196</ele>
        <time>2021-11-14T14:34:17.301Z</time>
      </trkpt>
      <trkpt lat="47.594896" lon="8.031227">
        <ele>590.252932</ele>
        <time>2021-11-14T14:34:26.526Z</time>
      </trkpt>
      <trkpt lat="47.594838" lon="8.030933">
        <ele>591.322990</ele>
        <time>2021-11-14T14:34:34.231Z</time>
      </trkpt>
      <trkpt lat="47.594842" lon="8.030492">
        <ele>592.863653</ele>
        <time>2021-11-14T14:34:44.945Z</time>
      </trkpt>
      <trkpt lat="47.594873" lon="8.030160">
        <ele>594.034476</ele>
        <time>2021-11-14T14:34:52.813Z</time>
      </trkpt>
      <trkpt lat="47.594932" lon="8.029751">
        <ele>595.495536</ele>
        <time>2021-11-14T14:35:02.449Z</time>
      </trkpt>
      <trkpt lat="47.595230" lon="8.028319">
        <ele>600.945531</ele>
        <time>2021-11-14T14:35:37.997Z</time>
      </trkpt>
      <trkpt lat="47.595674" lon="8.026721">
        <ele>607.850616</ele>
        <time>2021-11-14T14:36:24.441Z</time>
      </trkpt>
      <trkpt lat="47.595910" lon="8.026431">
        <ele>609.666465</ele>
        <time>2021-11-14T14:36:35.581Z</time>
      </trkpt>
      <trkpt lat="47.596130" lon="8.026412">
        <ele>611.070543</ele>
        <time>2021-11-14T14:36:43.952Z</time>
      </trkpt>
      <trkpt lat="47.596214" lon="8.026449">
        <ele>611.636993</ele>
        <time>2021-11-14T14:36:48.358Z</time>
      </trkpt>
      <trkpt lat="47.596280" lon="8.026505">
        <ele>612.128539</ele>
        <time>2021-11-14T14:36:51.458Z</time>
      </trkpt>
      <trkpt lat="47.596433" lon="8.026770">
        <ele>613.649282</ele>
        <time>2021-11-14T14:37:00.707Z</time>
      </trkpt>
      <trkpt lat="47.596560" lon="8.027658">
        <ele>617.606342</ele>
        <time>2021-11-14T14:37:24.548Z</time>
      </trkpt>
      <trkpt lat="47.596702" lon="8.027901">
        <ele>619.008010</ele>
        <time>2021-11-14T14:37:33.599Z</time>
      </trkpt>
      <trkpt lat="47.596826" lon="8.027986">
        <ele>619.891080</ele>
        <time>2021-11-14T14:37:39.966Z</time>
      </trkpt>
      <trkpt lat="47.596954" lon="8.028045">
        <ele>620.757561</ele>
        <time>2021-11-14T14:37:46.061Z</time>
      </trkpt>
      <trkpt lat="47.597162" lon="8.027954">
        <ele>622.179766</ele>
        <time>2021-11-14T14:37:56.291Z</time>
      </trkpt>
      <trkpt lat="47.597667" lon="8.027380">
        <ele>626.423284</ele>
        <time>2021-11-14T14:38:21.961Z</time>
      </trkpt>
      <trkpt lat="47.597967" lon="8.027239">
        <ele>628.522160</ele>
        <time>2021-11-14T14:38:34.539Z</time>
      </trkpt>
      <trkpt lat="47.598069" lon="8.027222">
        <ele>629.206711</ele>
        <time>2021-11-14T14:38:40.275Z</time>
      </trkpt>
      <trkpt lat="47.598126" lon="8.027230">
        <ele>629.588560</ele>
        <time>2021-11-14T14:38:43.014Z</time>
      </trkpt>
      <trkpt lat="47.598361" lon="8.027263">
        <ele>631.162858</ele>
        <time>2021-11-14T14:38:51.871Z</time>
      </trkpt>
      <trkpt lat="47.598361" lon="8.027263">
        <ele>631.162858</ele>
        <time>2021-11-14T14:38:51.986Z</time>
      </trkpt>
      <trkpt lat="47.598472" lon="8.027302">
        <ele>631.923645</ele>
        <time>2021-11-14T14:38:57.038Z</time>
      </trkpt>
      <trkpt lat="47.598821" lon="8.027385">
        <ele>634.265376</ele>
        <time>2021-11-14T14:39:10.483Z</time>
      </trkpt>
      <trkpt lat="47.599102" lon="8.027378">
        <ele>636.101604</ele>
        <time>2021-11-14T14:39:20.778Z</time>
      </trkpt>
      <trkpt lat="47.599389" lon="8.027316">
        <ele>637.996567</ele>
        <time>2021-11-14T14:39:30.875Z</time>
      </trkpt>
      <trkpt lat="47.599613" lon="8.027185">
        <ele>639.569805</ele>
        <time>2021-11-14T14:39:43.488Z</time>
      </trkpt>
      <trkpt lat="47.599844" lon="8.026999">
        <ele>641.287203</ele>
        <time>2021-11-14T14:39:53.192Z</time>
      </trkpt>
      <trkpt lat="47.600101" lon="8.026650">
        <ele>643.563988</ele>
        <time>2021-11-14T14:40:07.234Z</time>
      </trkpt>
      <trkpt lat="47.600516" lon="8.025753">
        <ele>648.544806</ele>
        <time>2021-11-14T14:40:37.994Z</time>
      </trkpt>
      <trkpt lat="47.600550" lon="8.025678">
        <ele>648.967201</ele>
        <time>2021-11-14T14:40:41.622Z</time>
      </trkpt>
      <trkpt lat="47.600581" lon="8.025609">
        <ele>649.354724</ele>
        <time>2021-11-14T14:40:45.341Z</time>
      </trkpt>
      <trkpt lat="47.601301" lon="8.024297">
        <ele>657.260952</ele>
        <time>2021-11-14T14:41:33.754Z</time>
      </trkpt>
      <trkpt lat="47.601427" lon="8.024003">
        <ele>658.534913</ele>
        <time>2021-11-14T14:41:43.292Z</time>
      </trkpt>
      <trkpt lat="47.601526" lon="8.023755">
        <ele>659.469260</ele>
        <time>2021-11-14T14:41:51.692Z</time>
      </trkpt>
      <trkpt lat="47.601889" lon="8.022433">
        <ele>664.096877</ele>
        <time>2021-11-14T14:42:22.097Z</time>
      </trkpt>
      <trkpt lat="47.602034" lon="8.021886">
        <ele>666.002340</ele>
        <time>2021-11-14T14:42:34.621Z</time>
      </trkpt>
      <trkpt lat="47.602462" lon="8.021174">
        <ele>668.695439</ele>
        <time>2021-11-14T14:42:54.083Z</time>
      </trkpt>
      <trkpt lat="47.602662" lon="8.020843">
        <ele>669.924344</ele>
        <time>2021-11-14T14:43:03.798Z</time>
      </trkpt>
      <trkpt lat="47.603104" lon="8.020091">
        <ele>672.682666</ele>
        <time>2021-11-14T14:43:25.935Z</time>
      </trkpt>
      <trkpt lat="47.603225" lon="8.019699">
        <ele>673.821641</ele>
        <time>2021-11-14T14:43:34.803Z</time>
      </trkpt>
      <trkpt lat="47.603538" lon="8.018606">
        <ele>675.631388</ele>
        <time>2021-11-14T14:43:57.180Z</time>
      </trkpt>
      <trkpt lat="47.603564" lon="8.018549">
        <ele>675.736267</ele>
        <time>2021-11-14T14:43:58.404Z</time>
      </trkpt>
      <trkpt lat="47.603949" lon="8.017906">
        <ele>677.046806</ele>
        <time>2021-11-14T14:44:11.686Z</time>
      </trkpt>
      <trkpt lat="47.604386" lon="8.017343">
        <ele>677.920033</ele>
        <time>2021-11-14T14:44:20.329Z</time>
      </trkpt>
      <trkpt lat="47.604931" lon="8.016761">
        <ele>678.199365</ele>
        <time>2021-11-14T14:44:30.087Z</time>
      </trkpt>
      <trkpt lat="47.605303" lon="8.016420">
        <ele>678.381261</ele>
        <time>2021-11-14T14:44:36.638Z</time>
      </trkpt>
      <trkpt lat="47.605349" lon="8.016390">
        <ele>678.402162</ele>
        <time>2021-11-14T14:44:37.415Z</time>
      </trkpt>
      <trkpt lat="47.605617" lon="8.016217">
        <ele>678.523734</ele>
        <time>2021-11-14T14:44:42.423Z</time>
      </trkpt>
      <trkpt lat="47.605788" lon="8.016160">
        <ele>678.666311</ele>
        <time>2021-11-14T14:44:45.827Z</time>
      </trkpt>
      <trkpt lat="47.607499" lon="8.015932">
        <ele>681.251984</ele>
        <time>2021-11-14T14:45:23.325Z</time>
      </trkpt>
      <trkpt lat="47.607936" lon="8.015773">
        <ele>680.993138</ele>
        <time>2021-11-14T14:45:32.098Z</time>
      </trkpt>
      <trkpt lat="47.607997" lon="8.015736">
        <ele>680.949914</ele>
        <time>2021-11-14T14:45:33.769Z</time>
      </trkpt>
      <trkpt lat="47.608546" lon="8.015408">
        <ele>680.561734</ele>
        <time>2021-11-14T14:45:43.468Z</time>
      </trkpt>
      <trkpt lat="47.608990" lon="8.015226">
        <ele>680.259615</ele>
        <time>2021-11-14T14:45:48.816Z</time>
      </trkpt>
      <trkpt lat="47.609093" lon="8.015216">
        <ele>680.191917</ele>
        <time>2021-11-14T14:45:49.864Z</time>
      </trkpt>
      <trkpt lat="47.609541" lon="8.015211">
        <ele>678.564445</ele>
        <time>2021-11-14T14:45:54.180Z</time>
      </trkpt>
      <trkpt lat="47.609987" lon="8.015356">
        <ele>676.263107</ele>
        <time>2021-11-14T14:45:58.351Z</time>
      </trkpt>
      <trkpt lat="47.610061" lon="8.015390">
        <ele>675.872641</ele>
        <time>2021-11-14T14:45:59.034Z</time>
      </trkpt>
      <trkpt lat="47.610254" lon="8.015477">
        <ele>674.855934</ele>
        <time>2021-11-14T14:46:00.888Z</time>
      </trkpt>
      <trkpt lat="47.611129" lon="8.015861">
        <ele>671.121515</ele>
        <time>2021-11-14T14:46:09.410Z</time>
      </trkpt>
      <trkpt lat="47.611516" lon="8.016031">
        <ele>671.356754</ele>
        <time>2021-11-14T14:46:13.482Z</time>
      </trkpt>
      <trkpt lat="47.611716" lon="8.016114">
        <ele>671.477797</ele>
        <time>2021-11-14T14:46:15.736Z</time>
      </trkpt>
      <trkpt lat="47.613333" lon="8.016808">
        <ele>675.261861</ele>
        <time>2021-11-14T14:47:06.613Z</time>
      </trkpt>
      <trkpt lat="47.613550" lon="8.016884">
        <ele>676.353642</ele>
        <time>2021-11-14T14:47:15.933Z</time>
      </trkpt>
      <trkpt lat="47.613763" lon="8.016931">
        <ele>677.408097</ele>
        <time>2021-11-14T14:47:24.468Z</time>
      </trkpt>
      <trkpt lat="47.614276" lon="8.016874">
        <ele>679.927099</ele>
        <time>2021-11-14T14:47:43.349Z</time>
      </trkpt>
      <trkpt lat="47.614450" lon="8.016786">
        <ele>680.827267</ele>
        <time>2021-11-14T14:47:49.786Z</time>
      </trkpt>
      <trkpt lat="47.614507" lon="8.016749">
        <ele>681.031017</ele>
        <time>2021-11-14T14:47:52.120Z</time>
      </trkpt>
      <trkpt lat="47.614952" lon="8.016327">
        <ele>682.549705</ele>
        <time>2021-11-14T14:48:08.726Z</time>
      </trkpt>
      <trkpt lat="47.615823" lon="8.015017">
        <ele>686.086935</ele>
        <time>2021-11-14T14:48:38.157Z</time>
      </trkpt>
      <trkpt lat="47.616313" lon="8.014507">
        <ele>686.921263</ele>
        <time>2021-11-14T14:48:48.995Z</time>
      </trkpt>
      <trkpt lat="47.616676" lon="8.014297">
        <ele>687.464347</ele>
        <time>2021-11-14T14:48:56.687Z</time>
      </trkpt>
      <trkpt lat="47.617120" lon="8.014238">
        <ele>688.085698</ele>
        <time>2021-11-14T14:49:05.840Z</time>
      </trkpt>
      <trkpt lat="47.617298" lon="8.014271">
        <ele>688.335735</ele>
        <time>2021-11-14T14:49:09.023Z</time>
      </trkpt>
      <trkpt lat="47.617593" lon="8.014382">
        <ele>688.980858</ele>
        <time>2021-11-14T14:49:15.504Z</time>
      </trkpt>
      <trkpt lat="47.617609" lon="8.014390">
        <ele>689.031255</ele>
        <time>2021-11-14T14:49:15.775Z</time>
      </trkpt>
      <trkpt lat="47.617879" lon="8.014526">
        <ele>689.882365</ele>
        <time>2021-11-14T14:49:22.254Z</time>
      </trkpt>
      <trkpt lat="47.618300" lon="8.014824">
        <ele>691.274717</ele>
        <time>2021-11-14T14:49:34.286Z</time>
      </trkpt>
      <trkpt lat="47.618468" lon="8.014944">
        <ele>691.831277</ele>
        <time>2021-11-14T14:49:39.844Z</time>
      </trkpt>
      <trkpt lat="47.619151" lon="8.015995">
        <ele>694.612383</ele>
        <time>2021-11-14T14:50:10.105Z</time>
      </trkpt>
      <trkpt lat="47.619261" lon="8.016064">
        <ele>694.902049</ele>
        <time>2021-11-14T14:50:13.790Z</time>
      </trkpt>
      <trkpt lat="47.619394" lon="8.016117">
        <ele>695.236068</ele>
        <time>2021-11-14T14:50:17.678Z</time>
      </trkpt>
      <trkpt lat="47.619688" lon="8.016135">
        <ele>695.949755</ele>
        <time>2021-11-14T14:50:25.643Z</time>
      </trkpt>
      <trkpt lat="47.620051" lon="8.015912">
        <ele>696.902688</ele>
        <time>2021-11-14T14:50:35.322Z</time>
      </trkpt>
      <trkpt lat="47.620186" lon="8.015747">
        <ele>697.326927</ele>
        <time>2021-11-14T14:50:39.451Z</time>
      </trkpt>
      <trkpt lat="47.620283" lon="8.015578">
        <ele>697.689814</ele>
        <time>2021-11-14T14:50:42.457Z</time>
      </trkpt>
      <trkpt lat="47.620364" lon="8.015366">
        <ele>698.088210</ele>
        <time>2021-11-14T14:50:45.721Z</time>
      </trkpt>
      <trkpt lat="47.620496" lon="8.014586">
        <ele>697.374967</ele>
        <time>2021-11-14T14:50:53.799Z</time>
      </trkpt>
      <trkpt lat="47.620546" lon="8.013967">
        <ele>696.524124</ele>
        <time>2021-11-14T14:50:58.526Z</time>
      </trkpt>
      <trkpt lat="47.620555" lon="8.012850">
        <ele>694.999558</ele>
        <time>2021-11-14T14:51:06.176Z</time>
      </trkpt>
      <trkpt lat="47.620492" lon="8.011288">
        <ele>691.193882</ele>
        <time>2021-11-14T14:51:16.294Z</time>
      </trkpt>
      <trkpt lat="47.620487" lon="8.010965">
        <ele>690.341968</ele>
        <time>2021-11-14T14:51:18.436Z</time>
      </trkpt>
      <trkpt lat="47.620490" lon="8.010580">
        <ele>689.326729</ele>
        <time>2021-11-14T14:51:20.972Z</time>
      </trkpt>
      <trkpt lat="47.620496" lon="8.010474">
        <ele>689.046244</ele>
        <time>2021-11-14T14:51:21.689Z</time>
      </trkpt>
      <trkpt lat="47.620507" lon="8.010219">
        <ele>688.372482</ele>
        <time>2021-11-14T14:51:23.375Z</time>
      </trkpt>
      <trkpt lat="47.620556" lon="8.009809">
        <ele>687.449771</ele>
        <time>2021-11-14T14:51:26.259Z</time>
      </trkpt>
      <trkpt lat="47.620573" lon="8.009731">
        <ele>687.343387</ele>
        <time>2021-11-14T14:51:26.784Z</time>
      </trkpt>
      <trkpt lat="47.620672" lon="8.009286">
        <ele>686.735251</ele>
        <time>2021-11-14T14:51:30.077Z</time>
      </trkpt>
      <trkpt lat="47.620681" lon="8.009249">
        <ele>686.684204</ele>
        <time>2021-11-14T14:51:30.326Z</time>
      </trkpt>
      <trkpt lat="47.620699" lon="8.009176">
        <ele>686.583330</ele>
        <time>2021-11-14T14:51:30.845Z</time>
      </trkpt>
      <trkpt lat="47.620734" lon="8.009059">
        <ele>686.417213</ele>
        <time>2021-11-14T14:51:31.763Z</time>
      </trkpt>
      <trkpt lat="47.620862" lon="8.008648">
        <ele>685.829664</ele>
        <time>2021-11-14T14:51:34.996Z</time>
      </trkpt>
      <trkpt lat="47.620954" lon="8.008357">
        <ele>685.412547</ele>
        <time>2021-11-14T14:51:37.575Z</time>
      </trkpt>
      <trkpt lat="47.621081" lon="8.008034">
        <ele>684.927276</ele>
        <time>2021-11-14T14:51:40.549Z</time>
      </trkpt>
      <trkpt lat="47.621140" lon="8.007875">
        <ele>684.691736</ele>
        <time>2021-11-14T14:51:42.274Z</time>
      </trkpt>
      <trkpt lat="47.621254" lon="8.007569">
        <ele>684.238013</ele>
        <time>2021-11-14T14:51:45.174Z</time>
      </trkpt>
      <trkpt lat="47.621267" lon="8.007537">
        <ele>684.189526</ele>
        <time>2021-11-14T14:51:45.543Z</time>
      </trkpt>
      <trkpt lat="47.621308" lon="8.007429">
        <ele>684.160815</ele>
        <time>2021-11-14T14:51:46.774Z</time>
      </trkpt>
      <trkpt lat="47.621359" lon="8.007338">
        <ele>684.165829</ele>
        <time>2021-11-14T14:51:47.817Z</time>
      </trkpt>
      <trkpt lat="47.621433" lon="8.007225">
        <ele>684.172503</ele>
        <time>2021-11-14T14:51:49.246Z</time>
      </trkpt>
      <trkpt lat="47.621752" lon="8.006948">
        <ele>684.195732</ele>
        <time>2021-11-14T14:51:54.795Z</time>
      </trkpt>
      <trkpt lat="47.622836" lon="8.006672">
        <ele>684.264855</ele>
        <time>2021-11-14T14:52:11.857Z</time>
      </trkpt>
      <trkpt lat="47.623040" lon="8.006578">
        <ele>684.308605</ele>
        <time>2021-11-14T14:52:15.675Z</time>
      </trkpt>
      <trkpt lat="47.623146" lon="8.006521">
        <ele>684.340672</ele>
        <time>2021-11-14T14:52:17.462Z</time>
      </trkpt>
      <trkpt lat="47.623316" lon="8.006410">
        <ele>684.393498</ele>
        <time>2021-11-14T14:52:20.938Z</time>
      </trkpt>
      <trkpt lat="47.623482" lon="8.006277">
        <ele>684.447156</ele>
        <time>2021-11-14T14:52:24.469Z</time>
      </trkpt>
      <trkpt lat="47.623496" lon="8.006267">
        <ele>684.451575</ele>
        <time>2021-11-14T14:52:24.876Z</time>
      </trkpt>
      <trkpt lat="47.624181" lon="8.005412">
        <ele>684.706173</ele>
        <time>2021-11-14T14:52:38.806Z</time>
      </trkpt>
      <trkpt lat="47.624476" lon="8.005261">
        <ele>684.838912</ele>
        <time>2021-11-14T14:52:43.024Z</time>
      </trkpt>
      <trkpt lat="47.624714" lon="8.005192">
        <ele>685.129544</ele>
        <time>2021-11-14T14:52:46.336Z</time>
      </trkpt>
      <trkpt lat="47.624772" lon="8.005176">
        <ele>685.200247</ele>
        <time>2021-11-14T14:52:47.164Z</time>
      </trkpt>
      <trkpt lat="47.624929" lon="8.005099">
        <ele>685.398421</ele>
        <time>2021-11-14T14:52:49.567Z</time>
      </trkpt>
      <trkpt lat="47.625082" lon="8.004976">
        <ele>685.606975</ele>
        <time>2021-11-14T14:52:52.175Z</time>
      </trkpt>
      <trkpt lat="47.625170" lon="8.004881">
        <ele>685.737403</ele>
        <time>2021-11-14T14:52:53.969Z</time>
      </trkpt>
      <trkpt lat="47.625244" lon="8.004783">
        <ele>685.856279</ele>
        <time>2021-11-14T14:52:55.643Z</time>
      </trkpt>
      <trkpt lat="47.625294" lon="8.004699">
        <ele>685.946803</ele>
        <time>2021-11-14T14:52:57.483Z</time>
      </trkpt>
      <trkpt lat="47.625325" lon="8.004642">
        <ele>686.005965</ele>
        <time>2021-11-14T14:52:58.098Z</time>
      </trkpt>
      <trkpt lat="47.625393" lon="8.004515">
        <ele>686.136981</ele>
        <time>2021-11-14T14:52:59.986Z</time>
      </trkpt>
      <trkpt lat="47.625461" lon="8.004337">
        <ele>686.302250</ele>
        <time>2021-11-14T14:53:02.522Z</time>
      </trkpt>
      <trkpt lat="47.625506" lon="8.004231">
        <ele>686.403440</ele>
        <time>2021-11-14T14:53:04.923Z</time>
      </trkpt>
      <trkpt lat="47.625525" lon="8.004123">
        <ele>686.493600</ele>
        <time>2021-11-14T14:53:06.463Z</time>
      </trkpt>
      <trkpt lat="47.625607" lon="8.003576">
        <ele>686.989944</ele>
        <time>2021-11-14T14:53:16.861Z</time>
      </trkpt>
      <trkpt lat="47.625654" lon="8.003373">
        <ele>687.973483</ele>
        <time>2021-11-14T14:53:20.231Z</time>
      </trkpt>
      <trkpt lat="47.625600" lon="8.003335">
        <ele>688.379816</ele>
        <time>2021-11-14T14:53:21.637Z</time>
      </trkpt>
      <trkpt lat="47.625584" lon="8.003324">
        <ele>688.499706</ele>
        <time>2021-11-14T14:53:22.483Z</time>
      </trkpt>
      <trkpt lat="47.625516" lon="8.003226">
        <ele>689.144212</ele>
        <time>2021-11-14T14:53:25.153Z</time>
      </trkpt>
      <trkpt lat="47.625460" lon="8.003067">
        <ele>689.966264</ele>
        <time>2021-11-14T14:53:30.200Z</time>
      </trkpt>
      <trkpt lat="47.625445" lon="8.003025">
        <ele>690.184067</ele>
        <time>2021-11-14T14:53:30.844Z</time>
      </trkpt>
      <trkpt lat="47.625434" lon="8.002984">
        <ele>690.386276</ele>
        <time>2021-11-14T14:53:31.484Z</time>
      </trkpt>
      <trkpt lat="47.625363" lon="8.002731">
        <ele>691.642056</ele>
        <time>2021-11-14T14:53:38.074Z</time>
      </trkpt>
      <trkpt lat="47.625298" lon="8.002451">
        <ele>692.999051</ele>
        <time>2021-11-14T14:53:46.638Z</time>
      </trkpt>
      <trkpt lat="47.625267" lon="8.002292">
        <ele>693.757495</ele>
        <time>2021-11-14T14:53:52.038Z</time>
      </trkpt>
      <trkpt lat="47.625257" lon="8.002056">
        <ele>694.841034</ele>
        <time>2021-11-14T14:54:00.583Z</time>
      </trkpt>
      <trkpt lat="47.625266" lon="8.001860">
        <ele>695.741231</ele>
        <time>2021-11-14T14:54:05.995Z</time>
      </trkpt>
      <trkpt lat="47.625264" lon="8.001765">
        <ele>696.176754</ele>
        <time>2021-11-14T14:54:09.621Z</time>
      </trkpt>
      <trkpt lat="47.625250" lon="8.001673">
        <ele>696.608930</ele>
        <time>2021-11-14T14:54:12.496Z</time>
      </trkpt>
      <trkpt lat="47.625243" lon="8.001627">
        <ele>696.825018</ele>
        <time>2021-11-14T14:54:15.811Z</time>
      </trkpt>
      <trkpt lat="47.625081" lon="8.000955">
        <ele>700.410885</ele>
        <time>2021-11-14T14:54:40.183Z</time>
      </trkpt>
      <trkpt lat="47.624825" lon="7.999740">
        <ele>708.223554</ele>
        <time>2021-11-14T14:55:26.752Z</time>
      </trkpt>
      <trkpt lat="47.624804" lon="7.999651">
        <ele>708.802278</ele>
        <time>2021-11-14T14:55:30.110Z</time>
      </trkpt>
      <trkpt lat="47.624766" lon="7.999435">
        <ele>710.172349</ele>
        <time>2021-11-14T14:55:38.324Z</time>
      </trkpt>
      <trkpt lat="47.624755" lon="7.999366">
        <ele>710.607508</ele>
        <time>2021-11-14T14:55:40.735Z</time>
      </trkpt>
      <trkpt lat="47.624735" lon="7.999119">
        <ele>712.134320</ele>
        <time>2021-11-14T14:55:49.355Z</time>
      </trkpt>
      <trkpt lat="47.624755" lon="7.998076">
        <ele>717.652335</ele>
        <time>2021-11-14T14:56:21.525Z</time>
      </trkpt>
      <trkpt lat="47.624920" lon="7.996906">
        <ele>722.818225</ele>
        <time>2021-11-14T14:56:55.801Z</time>
      </trkpt>
      <trkpt lat="47.624885" lon="7.996580">
        <ele>724.244860</ele>
        <time>2021-11-14T14:57:04.370Z</time>
      </trkpt>
      <trkpt lat="47.624698" lon="7.995870">
        <ele>727.370398</ele>
        <time>2021-11-14T14:57:21.158Z</time>
      </trkpt>
      <trkpt lat="47.624673" lon="7.995663">
        <ele>727.947180</ele>
        <time>2021-11-14T14:57:26.652Z</time>
      </trkpt>
      <trkpt lat="47.624628" lon="7.995481">
        <ele>728.478881</ele>
        <time>2021-11-14T14:57:30.420Z</time>
      </trkpt>
      <trkpt lat="47.624294" lon="7.994823">
        <ele>730.738154</ele>
        <time>2021-11-14T14:57:47.601Z</time>
      </trkpt>
      <trkpt lat="47.624185" lon="7.994374">
        <ele>732.047084</ele>
        <time>2021-11-14T14:57:56.866Z</time>
      </trkpt>
      <trkpt lat="47.624184" lon="7.994362">
        <ele>732.080247</ele>
        <time>2021-11-14T14:57:57.174Z</time>
      </trkpt>
      <trkpt lat="47.624157" lon="7.994038">
        <ele>732.975657</ele>
        <time>2021-11-14T14:58:03.494Z</time>
      </trkpt>
      <trkpt lat="47.624143" lon="7.993701">
        <ele>733.901711</ele>
        <time>2021-11-14T14:58:10.784Z</time>
      </trkpt>
      <trkpt lat="47.624155" lon="7.993221">
        <ele>735.400369</ele>
        <time>2021-11-14T14:58:19.832Z</time>
      </trkpt>
      <trkpt lat="47.624186" lon="7.992743">
        <ele>737.007631</ele>
        <time>2021-11-14T14:58:30.706Z</time>
      </trkpt>
      <trkpt lat="47.624193" lon="7.992632">
        <ele>737.380772</ele>
        <time>2021-11-14T14:58:32.991Z</time>
      </trkpt>
      <trkpt lat="47.624211" lon="7.992346">
        <ele>738.342182</ele>
        <time>2021-11-14T14:58:40.067Z</time>
      </trkpt>
      <trkpt lat="47.624184" lon="7.991951">
        <ele>739.671034</ele>
        <time>2021-11-14T14:58:48.516Z</time>
      </trkpt>
      <trkpt lat="47.624171" lon="7.991894">
        <ele>739.872440</ele>
        <time>2021-11-14T14:58:50.306Z</time>
      </trkpt>
      <trkpt lat="47.624027" lon="7.991299">
        <ele>741.988413</ele>
        <time>2021-11-14T14:59:06.624Z</time>
      </trkpt>
      <trkpt lat="47.624009" lon="7.991173">
        <ele>742.419507</ele>
        <time>2021-11-14T14:59:09.259Z</time>
      </trkpt>
      <trkpt lat="47.623969" lon="7.990843">
        <ele>743.538580</ele>
        <time>2021-11-14T14:59:18.678Z</time>
      </trkpt>
      <trkpt lat="47.623960" lon="7.990765">
        <ele>743.799515</ele>
        <time>2021-11-14T14:59:20.934Z</time>
      </trkpt>
      <trkpt lat="47.623798" lon="7.989389">
        <ele>748.405371</ele>
        <time>2021-11-14T14:59:55.818Z</time>
      </trkpt>
      <trkpt lat="47.623838" lon="7.989292">
        <ele>748.780330</ele>
        <time>2021-11-14T14:59:59.487Z</time>
      </trkpt>
      <trkpt lat="47.623561" lon="7.988865">
        <ele>750.734514</ele>
        <time>2021-11-14T15:00:13.039Z</time>
      </trkpt>
      <trkpt lat="47.623508" lon="7.988782">
        <ele>751.111519</ele>
        <time>2021-11-14T15:00:15.025Z</time>
      </trkpt>
      <trkpt lat="47.623468" lon="7.988687">
        <ele>751.480870</ele>
        <time>2021-11-14T15:00:16.813Z</time>
      </trkpt>
      <trkpt lat="47.623303" lon="7.988291">
        <ele>752.432796</ele>
        <time>2021-11-14T15:00:24.769Z</time>
      </trkpt>
      <trkpt lat="47.623087" lon="7.987725">
        <ele>753.169084</ele>
        <time>2021-11-14T15:00:35.196Z</time>
      </trkpt>
      <trkpt lat="47.622809" lon="7.986987">
        <ele>754.126127</ele>
        <time>2021-11-14T15:00:47.881Z</time>
      </trkpt>
      <trkpt lat="47.622304" lon="7.985646">
        <ele>754.782914</ele>
        <time>2021-11-14T15:01:04.920Z</time>
      </trkpt>
      <trkpt lat="47.622073" lon="7.985033">
        <ele>754.376828</ele>
        <time>2021-11-14T15:01:11.387Z</time>
      </trkpt>
      <trkpt lat="47.622067" lon="7.985017">
        <ele>754.366241</ele>
        <time>2021-11-14T15:01:11.537Z</time>
      </trkpt>
      <trkpt lat="47.621842" lon="7.984392">
        <ele>753.956533</ele>
        <time>2021-11-14T15:01:17.242Z</time>
      </trkpt>
      <trkpt lat="47.621773" lon="7.984199">
        <ele>753.830208</ele>
        <time>2021-11-14T15:01:18.876Z</time>
      </trkpt>
      <trkpt lat="47.621453" lon="7.983289">
        <ele>751.878795</ele>
        <time>2021-11-14T15:01:26.281Z</time>
      </trkpt>
      <trkpt lat="47.621414" lon="7.983181">
        <ele>751.547264</ele>
        <time>2021-11-14T15:01:27.094Z</time>
      </trkpt>
      <trkpt lat="47.621287" lon="7.982952">
        <ele>750.744835</ele>
        <time>2021-11-14T15:01:29.116Z</time>
      </trkpt>
      <trkpt lat="47.621148" lon="7.982684">
        <ele>749.829819</ele>
        <time>2021-11-14T15:01:31.319Z</time>
      </trkpt>
      <trkpt lat="47.620712" lon="7.982017">
        <ele>747.315662</ele>
        <time>2021-11-14T15:01:37.257Z</time>
      </trkpt>
      <trkpt lat="47.620533" lon="7.981699">
        <ele>746.161361</ele>
        <time>2021-11-14T15:01:39.811Z</time>
      </trkpt>
      <trkpt lat="47.620263" lon="7.981105">
        <ele>743.884633</ele>
        <time>2021-11-14T15:01:44.311Z</time>
      </trkpt>
      <trkpt lat="47.619965" lon="7.980295">
        <ele>740.952128</ele>
        <time>2021-11-14T15:01:50.193Z</time>
      </trkpt>
      <trkpt lat="47.619797" lon="7.980012">
        <ele>739.753738</ele>
        <time>2021-11-14T15:01:52.724Z</time>
      </trkpt>
      <trkpt lat="47.619731" lon="7.979949">
        <ele>739.383732</ele>
        <time>2021-11-14T15:01:53.422Z</time>
      </trkpt>
      <trkpt lat="47.619309" lon="7.979839">
        <ele>737.510207</ele>
        <time>2021-11-14T15:01:57.615Z</time>
      </trkpt>
      <trkpt lat="47.619073" lon="7.979702">
        <ele>736.638620</ele>
        <time>2021-11-14T15:02:00.184Z</time>
      </trkpt>
      <trkpt lat="47.618976" lon="7.979589">
        <ele>736.214453</ele>
        <time>2021-11-14T15:02:01.463Z</time>
      </trkpt>
      <trkpt lat="47.618419" lon="7.978768">
        <ele>733.514032</ele>
        <time>2021-11-14T15:02:09.473Z</time>
      </trkpt>
      <trkpt lat="47.617897" lon="7.977926">
        <ele>730.969824</ele>
        <time>2021-11-14T15:02:17.224Z</time>
      </trkpt>
      <trkpt lat="47.617863" lon="7.977860">
        <ele>730.801471</ele>
        <time>2021-11-14T15:02:17.688Z</time>
      </trkpt>
      <trkpt lat="47.617183" lon="7.976739">
        <ele>727.745035</ele>
        <time>2021-11-14T15:02:27.953Z</time>
      </trkpt>
      <trkpt lat="47.617143" lon="7.976643">
        <ele>727.516300</ele>
        <time>2021-11-14T15:02:28.607Z</time>
      </trkpt>
      <trkpt lat="47.617122" lon="7.976576">
        <ele>727.366547</ele>
        <time>2021-11-14T15:02:29.295Z</time>
      </trkpt>
      <trkpt lat="47.617087" lon="7.976456">
        <ele>727.101549</ele>
        <time>2021-11-14T15:02:30.374Z</time>
      </trkpt>
      <trkpt lat="47.617050" lon="7.976280">
        <ele>726.727900</ele>
        <time>2021-11-14T15:02:33.087Z</time>
      </trkpt>
      <trkpt lat="47.617035" lon="7.976194">
        <ele>726.547861</ele>
        <time>2021-11-14T15:02:33.619Z</time>
      </trkpt>
      <trkpt lat="47.616932" lon="7.975644">
        <ele>726.771011</ele>
        <time>2021-11-14T15:02:38.616Z</time>
      </trkpt>
      <trkpt lat="47.616823" lon="7.975315">
        <ele>727.141967</ele>
        <time>2021-11-14T15:02:43.732Z</time>
      </trkpt>
      <trkpt lat="47.616605" lon="7.975163">
        <ele>727.503565</ele>
        <time>2021-11-14T15:02:47.166Z</time>
      </trkpt>
      <trkpt lat="47.616374" lon="7.975153">
        <ele>727.850481</ele>
        <time>2021-11-14T15:02:51.686Z</time>
      </trkpt>
      <trkpt lat="47.615835" lon="7.975151">
        <ele>728.659610</ele>
        <time>2021-11-14T15:03:06.674Z</time>
      </trkpt>
      <trkpt lat="47.615388" lon="7.975207">
        <ele>729.831349</ele>
        <time>2021-11-14T15:03:20.963Z</time>
      </trkpt>
      <trkpt lat="47.615223" lon="7.975285">
        <ele>730.494220</ele>
        <time>2021-11-14T15:03:26.346Z</time>
      </trkpt>
      <trkpt lat="47.614735" lon="7.975625">
        <ele>732.557922</ele>
        <time>2021-11-14T15:03:42.951Z</time>
      </trkpt>
      <trkpt lat="47.614050" lon="7.976273">
        <ele>735.667698</ele>
        <time>2021-11-14T15:04:05.671Z</time>
      </trkpt>
      <trkpt lat="47.613802" lon="7.976286">
        <ele>736.812131</ele>
        <time>2021-11-14T15:04:13.802Z</time>
      </trkpt>
      <trkpt lat="47.613439" lon="7.976020">
        <ele>738.779891</ele>
        <time>2021-11-14T15:04:27.181Z</time>
      </trkpt>
      <trkpt lat="47.613266" lon="7.975808">
        <ele>739.870496</ele>
        <time>2021-11-14T15:04:34.937Z</time>
      </trkpt>
      <trkpt lat="47.613184" lon="7.975689">
        <ele>740.428029</ele>
        <time>2021-11-14T15:04:38.897Z</time>
      </trkpt>
      <trkpt lat="47.612962" lon="7.975399">
        <ele>741.865716</ele>
        <time>2021-11-14T15:04:49.333Z</time>
      </trkpt>
      <trkpt lat="47.612866" lon="7.975328">
        <ele>742.387068</ele>
        <time>2021-11-14T15:04:53.061Z</time>
      </trkpt>
      <trkpt lat="47.612922" lon="7.974981">
        <ele>743.556107</ele>
        <time>2021-11-14T15:05:01.931Z</time>
      </trkpt>
      <trkpt lat="47.613340" lon="7.973232">
        <ele>749.588186</ele>
        <time>2021-11-14T15:05:48.373Z</time>
      </trkpt>
      <trkpt lat="47.613371" lon="7.971800">
        <ele>754.025906</ele>
        <time>2021-11-14T15:06:17.856Z</time>
      </trkpt>
      <trkpt lat="47.613448" lon="7.971306">
        <ele>755.301468</ele>
        <time>2021-11-14T15:06:27.982Z</time>
      </trkpt>
      <trkpt lat="47.613544" lon="7.970739">
        <ele>756.772191</ele>
        <time>2021-11-14T15:06:39.496Z</time>
      </trkpt>
      <trkpt lat="47.613603" lon="7.970296">
        <ele>757.908200</ele>
        <time>2021-11-14T15:06:48.355Z</time>
      </trkpt>
      <trkpt lat="47.613651" lon="7.969763">
        <ele>759.260995</ele>
        <time>2021-11-14T15:06:58.964Z</time>
      </trkpt>
      <trkpt lat="47.613713" lon="7.969291">
        <ele>760.516943</ele>
        <time>2021-11-14T15:07:08.491Z</time>
      </trkpt>
      <trkpt lat="47.613876" lon="7.968615">
        <ele>762.503485</ele>
        <time>2021-11-14T15:07:23.329Z</time>
      </trkpt>
      <trkpt lat="47.614229" lon="7.967867">
        <ele>765.029950</ele>
        <time>2021-11-14T15:07:43.793Z</time>
      </trkpt>
      <trkpt lat="47.614987" lon="7.966716">
        <ele>769.605503</ele>
        <time>2021-11-14T15:08:17.193Z</time>
      </trkpt>
      <trkpt lat="47.615704" lon="7.965149">
        <ele>775.154639</ele>
        <time>2021-11-14T15:08:59.543Z</time>
      </trkpt>
      <trkpt lat="47.615837" lon="7.964647">
        <ele>776.219933</ele>
        <time>2021-11-14T15:09:10.898Z</time>
      </trkpt>
      <trkpt lat="47.615832" lon="7.964368">
        <ele>776.761698</ele>
        <time>2021-11-14T15:09:16.786Z</time>
      </trkpt>
      <trkpt lat="47.615816" lon="7.964301">
        <ele>776.899674</ele>
        <time>2021-11-14T15:09:18.394Z</time>
      </trkpt>
      <trkpt lat="47.615674" lon="7.963901">
        <ele>777.777215</ele>
        <time>2021-11-14T15:09:26.107Z</time>
      </trkpt>
      <trkpt lat="47.615426" lon="7.963657">
        <ele>778.634143</ele>
        <time>2021-11-14T15:09:32.865Z</time>
      </trkpt>
      <trkpt lat="47.615296" lon="7.963621">
        <ele>779.014956</ele>
        <time>2021-11-14T15:09:36.702Z</time>
      </trkpt>
      <trkpt lat="47.615240" lon="7.963619">
        <ele>779.176260</ele>
        <time>2021-11-14T15:09:37.715Z</time>
      </trkpt>
      <trkpt lat="47.615156" lon="7.963615">
        <ele>779.418270</ele>
        <time>2021-11-14T15:09:38.905Z</time>
      </trkpt>
      <trkpt lat="47.614910" lon="7.963756">
        <ele>780.177687</ele>
        <time>2021-11-14T15:09:45.831Z</time>
      </trkpt>
      <trkpt lat="47.614633" lon="7.964032">
        <ele>781.087656</ele>
        <time>2021-11-14T15:09:53.507Z</time>
      </trkpt>
      <trkpt lat="47.614483" lon="7.964169">
        <ele>781.560488</ele>
        <time>2021-11-14T15:09:55.904Z</time>
      </trkpt>
      <trkpt lat="47.614338" lon="7.964238">
        <ele>781.969238</ele>
        <time>2021-11-14T15:09:59.430Z</time>
      </trkpt>
      <trkpt lat="47.614181" lon="7.964246">
        <ele>782.390912</ele>
        <time>2021-11-14T15:10:02.600Z</time>
      </trkpt>
      <trkpt lat="47.614053" lon="7.964220">
        <ele>782.737701</ele>
        <time>2021-11-14T15:10:05.784Z</time>
      </trkpt>
      <trkpt lat="47.613879" lon="7.964086">
        <ele>783.263949</ele>
        <time>2021-11-14T15:10:11.026Z</time>
      </trkpt>
      <trkpt lat="47.613742" lon="7.963873">
        <ele>783.796665</ele>
        <time>2021-11-14T15:10:16.046Z</time>
      </trkpt>
      <trkpt lat="47.613521" lon="7.962842">
        <ele>786.215812</ele>
        <time>2021-11-14T15:10:37.252Z</time>
      </trkpt>
      <trkpt lat="47.613502" lon="7.962714">
        <ele>786.656360</ele>
        <time>2021-11-14T15:10:40.616Z</time>
      </trkpt>
      <trkpt lat="47.613369" lon="7.961915">
        <ele>789.422676</ele>
        <time>2021-11-14T15:11:01.746Z</time>
      </trkpt>
      <trkpt lat="47.613215" lon="7.961187">
        <ele>791.987333</ele>
        <time>2021-11-14T15:11:20.731Z</time>
      </trkpt>
      <trkpt lat="47.613138" lon="7.960868">
        <ele>793.126245</ele>
        <time>2021-11-14T15:11:29.218Z</time>
      </trkpt>
      <trkpt lat="47.613021" lon="7.960583">
        <ele>794.208397</ele>
        <time>2021-11-14T15:11:37.330Z</time>
      </trkpt>
      <trkpt lat="47.612881" lon="7.960311">
        <ele>794.643788</ele>
        <time>2021-11-14T15:11:44.658Z</time>
      </trkpt>
      <trkpt lat="47.612766" lon="7.960065">
        <ele>795.024656</ele>
        <time>2021-11-14T15:11:50.832Z</time>
      </trkpt>
      <trkpt lat="47.612685" lon="7.959801">
        <ele>795.393687</ele>
        <time>2021-11-14T15:11:55.675Z</time>
      </trkpt>
      <trkpt lat="47.612659" lon="7.959516">
        <ele>795.759590</ele>
        <time>2021-11-14T15:12:01.122Z</time>
      </trkpt>
      <trkpt lat="47.612741" lon="7.958660">
        <ele>796.859597</ele>
        <time>2021-11-14T15:12:11.983Z</time>
      </trkpt>
      <trkpt lat="47.612728" lon="7.958409">
        <ele>797.179879</ele>
        <time>2021-11-14T15:12:14.239Z</time>
      </trkpt>
      <trkpt lat="47.612719" lon="7.958171">
        <ele>797.483156</ele>
        <time>2021-11-14T15:12:16.337Z</time>
      </trkpt>
      <trkpt lat="47.612661" lon="7.957964">
        <ele>797.488290</ele>
        <time>2021-11-14T15:12:18.061Z</time>
      </trkpt>
      <trkpt lat="47.612606" lon="7.957836">
        <ele>797.395979</ele>
        <time>2021-11-14T15:12:19.439Z</time>
      </trkpt>
      <trkpt lat="47.612517" lon="7.957628">
        <ele>797.246156</ele>
        <time>2021-11-14T15:12:21.360Z</time>
      </trkpt>
      <trkpt lat="47.612456" lon="7.957566">
        <ele>797.179449</ele>
        <time>2021-11-14T15:12:22.154Z</time>
      </trkpt>
      <trkpt lat="47.612391" lon="7.957530">
        <ele>797.116859</ele>
        <time>2021-11-14T15:12:23.172Z</time>
      </trkpt>
      <trkpt lat="47.612291" lon="7.957543">
        <ele>797.026302</ele>
        <time>2021-11-14T15:12:24.446Z</time>
      </trkpt>
      <trkpt lat="47.612270" lon="7.957550">
        <ele>797.006885</ele>
        <time>2021-11-14T15:12:24.688Z</time>
      </trkpt>
      <trkpt lat="47.612102" lon="7.957603">
        <ele>796.851942</ele>
        <time>2021-11-14T15:12:26.549Z</time>
      </trkpt>
      <trkpt lat="47.611972" lon="7.957626">
        <ele>796.733837</ele>
        <time>2021-11-14T15:12:28.283Z</time>
      </trkpt>
      <trkpt lat="47.611743" lon="7.957534">
        <ele>796.519812</ele>
        <time>2021-11-14T15:12:30.932Z</time>
      </trkpt>
      <trkpt lat="47.611408" lon="7.957164">
        <ele>796.143034</ele>
        <time>2021-11-14T15:12:36.133Z</time>
      </trkpt>
      <trkpt lat="47.611301" lon="7.956962">
        <ele>795.986800</ele>
        <time>2021-11-14T15:12:38.645Z</time>
      </trkpt>
      <trkpt lat="47.611267" lon="7.956824">
        <ele>796.006292</ele>
        <time>2021-11-14T15:12:39.763Z</time>
      </trkpt>
      <trkpt lat="47.611164" lon="7.956405">
        <ele>796.236692</ele>
        <time>2021-11-14T15:12:44.178Z</time>
      </trkpt>
      <trkpt lat="47.611155" lon="7.956085">
        <ele>796.402151</ele>
        <time>2021-11-14T15:12:47.645Z</time>
      </trkpt>
      <trkpt lat="47.611237" lon="7.955554">
        <ele>796.683575</ele>
        <time>2021-11-14T15:12:54.380Z</time>
      </trkpt>
      <trkpt lat="47.611344" lon="7.955262">
        <ele>796.855268</ele>
        <time>2021-11-14T15:12:58.177Z</time>
      </trkpt>
      <trkpt lat="47.611423" lon="7.955105">
        <ele>796.956477</ele>
        <time>2021-11-14T15:13:01.174Z</time>
      </trkpt>
      <trkpt lat="47.611466" lon="7.955017">
        <ele>797.012624</ele>
        <time>2021-11-14T15:13:02.517Z</time>
      </trkpt>
      <trkpt lat="47.611563" lon="7.954771">
        <ele>797.159851</ele>
        <time>2021-11-14T15:13:06.153Z</time>
      </trkpt>
      <trkpt lat="47.611609" lon="7.954585">
        <ele>797.262201</ele>
        <time>2021-11-14T15:13:09.121Z</time>
      </trkpt>
      <trkpt lat="47.611583" lon="7.954201">
        <ele>797.711240</ele>
        <time>2021-11-14T15:13:15.244Z</time>
      </trkpt>
      <trkpt lat="47.611379" lon="7.953732">
        <ele>798.566542</ele>
        <time>2021-11-14T15:13:24.317Z</time>
      </trkpt>
      <trkpt lat="47.611213" lon="7.953569">
        <ele>799.019054</ele>
        <time>2021-11-14T15:13:29.206Z</time>
      </trkpt>
      <trkpt lat="47.610867" lon="7.953623">
        <ele>799.809876</ele>
        <time>2021-11-14T15:13:38.562Z</time>
      </trkpt>
      <trkpt lat="47.610622" lon="7.953678">
        <ele>800.373118</ele>
        <time>2021-11-14T15:13:44.609Z</time>
      </trkpt>
      <trkpt lat="47.610534" lon="7.953698">
        <ele>800.575482</ele>
        <time>2021-11-14T15:13:46.418Z</time>
      </trkpt>
      <trkpt lat="47.610442" lon="7.953689">
        <ele>800.785058</ele>
        <time>2021-11-14T15:13:49.229Z</time>
      </trkpt>
      <trkpt lat="47.610173" lon="7.953576">
        <ele>801.420559</ele>
        <time>2021-11-14T15:13:55.162Z</time>
      </trkpt>
      <trkpt lat="47.609991" lon="7.953325">
        <ele>801.773306</ele>
        <time>2021-11-14T15:14:01.115Z</time>
      </trkpt>
      <trkpt lat="47.609848" lon="7.952864">
        <ele>802.257632</ele>
        <time>2021-11-14T15:14:08.987Z</time>
      </trkpt>
      <trkpt lat="47.609390" lon="7.951204">
        <ele>803.969243</ele>
        <time>2021-11-14T15:14:33.071Z</time>
      </trkpt>
      <trkpt lat="47.609119" lon="7.950532">
        <ele>803.555357</ele>
        <time>2021-11-14T15:14:41.520Z</time>
      </trkpt>
      <trkpt lat="47.608916" lon="7.950126">
        <ele>803.288185</ele>
        <time>2021-11-14T15:14:46.017Z</time>
      </trkpt>
      <trkpt lat="47.608814" lon="7.949946">
        <ele>803.163901</ele>
        <time>2021-11-14T15:14:48.129Z</time>
      </trkpt>
      <trkpt lat="47.608598" lon="7.949608">
        <ele>802.917740</ele>
        <time>2021-11-14T15:14:51.871Z</time>
      </trkpt>
      <trkpt lat="47.608258" lon="7.949098">
        <ele>802.470334</ele>
        <time>2021-11-14T15:14:57.169Z</time>
      </trkpt>
      <trkpt lat="47.607428" lon="7.947861">
        <ele>798.485137</ele>
        <time>2021-11-14T15:15:09.067Z</time>
      </trkpt>
      <trkpt lat="47.607177" lon="7.947456">
        <ele>797.228936</ele>
        <time>2021-11-14T15:15:12.664Z</time>
      </trkpt>
      <trkpt lat="47.607053" lon="7.947037">
        <ele>796.185950</ele>
        <time>2021-11-14T15:15:15.637Z</time>
      </trkpt>
      <trkpt lat="47.607026" lon="7.946800">
        <ele>795.640831</ele>
        <time>2021-11-14T15:15:17.205Z</time>
      </trkpt>
      <trkpt lat="47.607053" lon="7.946387">
        <ele>794.699784</ele>
        <time>2021-11-14T15:15:19.929Z</time>
      </trkpt>
      <trkpt lat="47.607219" lon="7.945696">
        <ele>793.036138</ele>
        <time>2021-11-14T15:15:24.805Z</time>
      </trkpt>
      <trkpt lat="47.607532" lon="7.944721">
        <ele>790.587051</ele>
        <time>2021-11-14T15:15:32.440Z</time>
      </trkpt>
      <trkpt lat="47.607673" lon="7.944452">
        <ele>789.479291</ele>
        <time>2021-11-14T15:15:34.974Z</time>
      </trkpt>
      <trkpt lat="47.607934" lon="7.944298">
        <ele>788.009121</ele>
        <time>2021-11-14T15:15:38.146Z</time>
      </trkpt>
      <trkpt lat="47.608484" lon="7.944152">
        <ele>785.084735</ele>
        <time>2021-11-14T15:15:43.486Z</time>
      </trkpt>
      <trkpt lat="47.609294" lon="7.943637">
        <ele>779.909123</ele>
        <time>2021-11-14T15:15:51.445Z</time>
      </trkpt>
      <trkpt lat="47.609350" lon="7.943593">
        <ele>779.225573</ele>
        <time>2021-11-14T15:15:51.981Z</time>
      </trkpt>
      <trkpt lat="47.609814" lon="7.943160">
        <ele>773.312572</ele>
        <time>2021-11-14T15:15:56.674Z</time>
      </trkpt>
      <trkpt lat="47.610014" lon="7.942918">
        <ele>770.528553</ele>
        <time>2021-11-14T15:15:58.841Z</time>
      </trkpt>
      <trkpt lat="47.610065" lon="7.942722">
        <ele>769.000786</ele>
        <time>2021-11-14T15:16:00.034Z</time>
      </trkpt>
      <trkpt lat="47.610075" lon="7.942547">
        <ele>767.723642</ele>
        <time>2021-11-14T15:16:01.017Z</time>
      </trkpt>
      <trkpt lat="47.609950" lon="7.942351">
        <ele>765.761661</ele>
        <time>2021-11-14T15:16:02.608Z</time>
      </trkpt>
      <trkpt lat="47.609824" lon="7.942206">
        <ele>764.041506</ele>
        <time>2021-11-14T15:16:03.929Z</time>
      </trkpt>
      <trkpt lat="47.609660" lon="7.942072">
        <ele>762.021906</ele>
        <time>2021-11-14T15:16:05.553Z</time>
      </trkpt>
      <trkpt lat="47.609328" lon="7.941802">
        <ele>759.110359</ele>
        <time>2021-11-14T15:16:08.811Z</time>
      </trkpt>
      <trkpt lat="47.609231" lon="7.941717">
        <ele>758.283980</ele>
        <time>2021-11-14T15:16:09.763Z</time>
      </trkpt>
      <trkpt lat="47.608985" lon="7.941282">
        <ele>755.476272</ele>
        <time>2021-11-14T15:16:13.149Z</time>
      </trkpt>
      <trkpt lat="47.608976" lon="7.941180">
        <ele>754.967566</ele>
        <time>2021-11-14T15:16:13.736Z</time>
      </trkpt>
      <trkpt lat="47.608986" lon="7.941047">
        <ele>754.305785</ele>
        <time>2021-11-14T15:16:15.150Z</time>
      </trkpt>
      <trkpt lat="47.609156" lon="7.940638">
        <ele>751.929736</ele>
        <time>2021-11-14T15:16:18.024Z</time>
      </trkpt>
      <trkpt lat="47.609697" lon="7.940207">
        <ele>747.777227</ele>
        <time>2021-11-14T15:16:24.021Z</time>
      </trkpt>
      <trkpt lat="47.610427" lon="7.939448">
        <ele>743.577093</ele>
        <time>2021-11-14T15:16:33.056Z</time>
      </trkpt>
      <trkpt lat="47.610663" lon="7.939057">
        <ele>741.910151</ele>
        <time>2021-11-14T15:16:36.367Z</time>
      </trkpt>
      <trkpt lat="47.611668" lon="7.937036">
        <ele>732.107012</ele>
        <time>2021-11-14T15:16:51.654Z</time>
      </trkpt>
      <trkpt lat="47.612157" lon="7.936591">
        <ele>728.657127</ele>
        <time>2021-11-14T15:16:56.990Z</time>
      </trkpt>
      <trkpt lat="47.612760" lon="7.936192">
        <ele>725.622120</ele>
        <time>2021-11-14T15:17:03.401Z</time>
      </trkpt>
      <trkpt lat="47.613611" lon="7.935811">
        <ele>721.536138</ele>
        <time>2021-11-14T15:17:12.063Z</time>
      </trkpt>
      <trkpt lat="47.613843" lon="7.935758">
        <ele>720.370397</ele>
        <time>2021-11-14T15:17:14.315Z</time>
      </trkpt>
      <trkpt lat="47.614095" lon="7.935725">
        <ele>718.564259</ele>
        <time>2021-11-14T15:17:16.666Z</time>
      </trkpt>
      <trkpt lat="47.615166" lon="7.935713">
        <ele>710.917691</ele>
        <time>2021-11-14T15:17:26.284Z</time>
      </trkpt>
      <trkpt lat="47.615451" lon="7.935602">
        <ele>708.813988</ele>
        <time>2021-11-14T15:17:28.848Z</time>
      </trkpt>
      <trkpt lat="47.615705" lon="7.935396">
        <ele>706.435592</ele>
        <time>2021-11-14T15:17:31.354Z</time>
      </trkpt>
      <trkpt lat="47.616262" lon="7.934487">
        <ele>698.726692</ele>
        <time>2021-11-14T15:17:38.534Z</time>
      </trkpt>
      <trkpt lat="47.616672" lon="7.934051">
        <ele>694.030494</ele>
        <time>2021-11-14T15:17:42.907Z</time>
      </trkpt>
      <trkpt lat="47.616878" lon="7.934048">
        <ele>692.112671</ele>
        <time>2021-11-14T15:17:44.688Z</time>
      </trkpt>
      <trkpt lat="47.617409" lon="7.934240">
        <ele>686.802719</ele>
        <time>2021-11-14T15:17:49.439Z</time>
      </trkpt>
      <trkpt lat="47.617581" lon="7.934210">
        <ele>685.101099</ele>
        <time>2021-11-14T15:17:50.940Z</time>
      </trkpt>
      <trkpt lat="47.618969" lon="7.933585">
        <ele>670.418735</ele>
        <time>2021-11-14T15:18:03.430Z</time>
      </trkpt>
      <trkpt lat="47.619096" lon="7.933469">
        <ele>668.701870</ele>
        <time>2021-11-14T15:18:04.697Z</time>
      </trkpt>
      <trkpt lat="47.619255" lon="7.933163">
        <ele>665.703847</ele>
        <time>2021-11-14T15:18:06.929Z</time>
      </trkpt>
      <trkpt lat="47.619818" lon="7.932353">
        <ele>656.675636</ele>
        <time>2021-11-14T15:18:13.552Z</time>
      </trkpt>
      <trkpt lat="47.620106" lon="7.931975">
        <ele>652.323059</ele>
        <time>2021-11-14T15:18:16.785Z</time>
      </trkpt>
      <trkpt lat="47.620440" lon="7.931519">
        <ele>648.061423</ele>
        <time>2021-11-14T15:18:20.643Z</time>
      </trkpt>
      <trkpt lat="47.620523" lon="7.931338">
        <ele>646.676025</ele>
        <time>2021-11-14T15:18:21.883Z</time>
      </trkpt>
      <trkpt lat="47.620633" lon="7.930854">
        <ele>643.443626</ele>
        <time>2021-11-14T15:18:24.853Z</time>
      </trkpt>
      <trkpt lat="47.620770" lon="7.930392">
        <ele>640.249454</ele>
        <time>2021-11-14T15:18:27.823Z</time>
      </trkpt>
      <trkpt lat="47.621014" lon="7.929789">
        <ele>635.798583</ele>
        <time>2021-11-14T15:18:32.100Z</time>
      </trkpt>
      <trkpt lat="47.621153" lon="7.929574">
        <ele>634.747817</ele>
        <time>2021-11-14T15:18:33.947Z</time>
      </trkpt>
      <trkpt lat="47.621561" lon="7.929312">
        <ele>632.456805</ele>
        <time>2021-11-14T15:18:38.208Z</time>
      </trkpt>
      <trkpt lat="47.622199" lon="7.929159">
        <ele>629.126374</ele>
        <time>2021-11-14T15:18:44.482Z</time>
      </trkpt>
      <trkpt lat="47.622516" lon="7.929178">
        <ele>627.491469</ele>
        <time>2021-11-14T15:18:47.502Z</time>
      </trkpt>
      <trkpt lat="47.622878" lon="7.929322">
        <ele>624.913079</ele>
        <time>2021-11-14T15:18:50.998Z</time>
      </trkpt>
      <trkpt lat="47.622967" lon="7.929237">
        <ele>623.989864</ele>
        <time>2021-11-14T15:18:51.996Z</time>
      </trkpt>
      <trkpt lat="47.622989" lon="7.929175">
        <ele>623.577946</ele>
        <time>2021-11-14T15:18:52.483Z</time>
      </trkpt>
      <trkpt lat="47.622990" lon="7.929067">
        <ele>622.942966</ele>
        <time>2021-11-14T15:18:53.089Z</time>
      </trkpt>
      <trkpt lat="47.622913" lon="7.928884">
        <ele>621.674700</ele>
        <time>2021-11-14T15:18:54.432Z</time>
      </trkpt>
      <trkpt lat="47.621861" lon="7.928723">
        <ele>612.450138</ele>
        <time>2021-11-14T15:19:03.569Z</time>
      </trkpt>
      <trkpt lat="47.620569" lon="7.928919">
        <ele>599.212018</ele>
        <time>2021-11-14T15:19:14.615Z</time>
      </trkpt>
      <trkpt lat="47.619928" lon="7.929124">
        <ele>592.364433</ele>
        <time>2021-11-14T15:19:20.281Z</time>
      </trkpt>
      <trkpt lat="47.619604" lon="7.929315">
        <ele>589.601794</ele>
        <time>2021-11-14T15:19:23.319Z</time>
      </trkpt>
      <trkpt lat="47.619329" lon="7.929527">
        <ele>587.226786</ele>
        <time>2021-11-14T15:19:26.047Z</time>
      </trkpt>
      <trkpt lat="47.619138" lon="7.929783">
        <ele>585.254163</ele>
        <time>2021-11-14T15:19:28.327Z</time>
      </trkpt>
      <trkpt lat="47.618921" lon="7.930073">
        <ele>583.015946</ele>
        <time>2021-11-14T15:19:30.942Z</time>
      </trkpt>
      <trkpt lat="47.618761" lon="7.930033">
        <ele>581.772497</ele>
        <time>2021-11-14T15:19:32.447Z</time>
      </trkpt>
      <trkpt lat="47.618733" lon="7.929945">
        <ele>581.269818</ele>
        <time>2021-11-14T15:19:33.037Z</time>
      </trkpt>
      <trkpt lat="47.618734" lon="7.929873">
        <ele>580.897811</ele>
        <time>2021-11-14T15:19:33.448Z</time>
      </trkpt>
      <trkpt lat="47.618861" lon="7.929607">
        <ele>579.213975</ele>
        <time>2021-11-14T15:19:35.518Z</time>
      </trkpt>
      <trkpt lat="47.619053" lon="7.929381">
        <ele>577.296547</ele>
        <time>2021-11-14T15:19:37.747Z</time>
      </trkpt>
      <trkpt lat="47.620384" lon="7.928242">
        <ele>565.010881</ele>
        <time>2021-11-14T15:19:51.429Z</time>
      </trkpt>
      <trkpt lat="47.620670" lon="7.927946">
        <ele>561.371411</ele>
        <time>2021-11-14T15:19:54.411Z</time>
      </trkpt>
      <trkpt lat="47.620796" lon="7.927816">
        <ele>559.505513</ele>
        <time>2021-11-14T15:19:55.702Z</time>
      </trkpt>
      <trkpt lat="47.620873" lon="7.927631">
        <ele>557.723734</ele>
        <time>2021-11-14T15:19:56.943Z</time>
      </trkpt>
      <trkpt lat="47.620930" lon="7.927423">
        <ele>555.883735</ele>
        <time>2021-11-14T15:19:58.205Z</time>
      </trkpt>
      <trkpt lat="47.620993" lon="7.927078">
        <ele>552.954629</ele>
        <time>2021-11-14T15:20:00.242Z</time>
      </trkpt>
      <trkpt lat="47.621010" lon="7.926916">
        <ele>551.611087</ele>
        <time>2021-11-14T15:20:01.170Z</time>
      </trkpt>
      <trkpt lat="47.621008" lon="7.926716">
        <ele>549.971958</ele>
        <time>2021-11-14T15:20:02.307Z</time>
      </trkpt>
      <trkpt lat="47.621092" lon="7.926230">
        <ele>545.860462</ele>
        <time>2021-11-14T15:20:05.150Z</time>
      </trkpt>
      <trkpt lat="47.621290" lon="7.925709">
        <ele>541.030155</ele>
        <time>2021-11-14T15:20:08.533Z</time>
      </trkpt>
      <trkpt lat="47.621339" lon="7.925596">
        <ele>540.004900</ele>
        <time>2021-11-14T15:20:09.285Z</time>
      </trkpt>
      <trkpt lat="47.621723" lon="7.924936">
        <ele>533.352164</ele>
        <time>2021-11-14T15:20:14.225Z</time>
      </trkpt>
      <trkpt lat="47.623053" lon="7.924259">
        <ele>517.541357</ele>
        <time>2021-11-14T15:20:26.329Z</time>
      </trkpt>
      <trkpt lat="47.623206" lon="7.923969">
        <ele>514.803060</ele>
        <time>2021-11-14T15:20:28.494Z</time>
      </trkpt>
      <trkpt lat="47.623246" lon="7.923768">
        <ele>513.244769</ele>
        <time>2021-11-14T15:20:29.690Z</time>
      </trkpt>
      <trkpt lat="47.623227" lon="7.922954">
        <ele>507.188755</ele>
        <time>2021-11-14T15:20:34.359Z</time>
      </trkpt>
      <trkpt lat="47.623251" lon="7.922713">
        <ele>505.377378</ele>
        <time>2021-11-14T15:20:35.737Z</time>
      </trkpt>
      <trkpt lat="47.623298" lon="7.922501">
        <ele>503.717999</ele>
        <time>2021-11-14T15:20:37.020Z</time>
      </trkpt>
      <trkpt lat="47.623564" lon="7.921962">
        <ele>498.722177</ele>
        <time>2021-11-14T15:20:40.828Z</time>
      </trkpt>
      <trkpt lat="47.623626" lon="7.921633">
        <ele>496.158106</ele>
        <time>2021-11-14T15:20:42.787Z</time>
      </trkpt>
      <trkpt lat="47.623611" lon="7.921528">
        <ele>495.352503</ele>
        <time>2021-11-14T15:20:43.390Z</time>
      </trkpt>
      <trkpt lat="47.623588" lon="7.921368">
        <ele>494.124586</ele>
        <time>2021-11-14T15:20:44.324Z</time>
      </trkpt>
      <trkpt lat="47.623561" lon="7.920975">
        <ele>491.159573</ele>
        <time>2021-11-14T15:20:46.579Z</time>
      </trkpt>
      <trkpt lat="47.623430" lon="7.919875">
        <ele>482.775430</ele>
        <time>2021-11-14T15:20:53.046Z</time>
      </trkpt>
      <trkpt lat="47.623255" lon="7.919315">
        <ele>478.597508</ele>
        <time>2021-11-14T15:20:56.620Z</time>
      </trkpt>
      <trkpt lat="47.623010" lon="7.918947">
        <ele>475.203903</ele>
        <time>2021-11-14T15:20:59.602Z</time>
      </trkpt>
      <trkpt lat="47.622446" lon="7.918652">
        <ele>469.382753</ele>
        <time>2021-11-14T15:21:04.824Z</time>
      </trkpt>
      <trkpt lat="47.622366" lon="7.918470">
        <ele>467.957194</ele>
        <time>2021-11-14T15:21:06.077Z</time>
      </trkpt>
      <trkpt lat="47.622381" lon="7.918164">
        <ele>465.944270</ele>
        <time>2021-11-14T15:21:07.888Z</time>
      </trkpt>
      <trkpt lat="47.622424" lon="7.918069">
        <ele>465.193488</ele>
        <time>2021-11-14T15:21:08.544Z</time>
      </trkpt>
      <trkpt lat="47.622587" lon="7.917873">
        <ele>463.116158</ele>
        <time>2021-11-14T15:21:10.358Z</time>
      </trkpt>
      <trkpt lat="47.622656" lon="7.917625">
        <ele>461.299751</ele>
        <time>2021-11-14T15:21:11.921Z</time>
      </trkpt>
      <trkpt lat="47.622677" lon="7.917170">
        <ele>458.212146</ele>
        <time>2021-11-14T15:21:14.577Z</time>
      </trkpt>
      <trkpt lat="47.622647" lon="7.916647">
        <ele>454.658589</ele>
        <time>2021-11-14T15:21:17.612Z</time>
      </trkpt>
      <trkpt lat="47.622576" lon="7.916379">
        <ele>452.709078</ele>
        <time>2021-11-14T15:21:19.268Z</time>
      </trkpt>
      <trkpt lat="47.622393" lon="7.916077">
        <ele>449.959705</ele>
        <time>2021-11-14T15:21:21.603Z</time>
      </trkpt>
      <trkpt lat="47.621809" lon="7.915582">
        <ele>443.245534</ele>
        <time>2021-11-14T15:21:27.417Z</time>
      </trkpt>
      <trkpt lat="47.621530" lon="7.915222">
        <ele>439.583405</ele>
        <time>2021-11-14T15:21:30.623Z</time>
      </trkpt>
      <trkpt lat="47.621037" lon="7.914355">
        <ele>432.011061</ele>
        <time>2021-11-14T15:21:37.252Z</time>
      </trkpt>
      <trkpt lat="47.620869" lon="7.913635">
        <ele>426.975482</ele>
        <time>2021-11-14T15:21:41.616Z</time>
      </trkpt>
      <trkpt lat="47.620841" lon="7.913331">
        <ele>424.999277</ele>
        <time>2021-11-14T15:21:43.394Z</time>
      </trkpt>
      <trkpt lat="47.620822" lon="7.912670">
        <ele>420.738025</ele>
        <time>2021-11-14T15:21:47.223Z</time>
      </trkpt>
      <trkpt lat="47.620858" lon="7.912289">
        <ele>418.260078</ele>
        <time>2021-11-14T15:21:49.483Z</time>
      </trkpt>
      <trkpt lat="47.620910" lon="7.911951">
        <ele>416.027095</ele>
        <time>2021-11-14T15:21:51.497Z</time>
      </trkpt>
      <trkpt lat="47.620953" lon="7.911653">
        <ele>414.064246</ele>
        <time>2021-11-14T15:21:53.287Z</time>
      </trkpt>
      <trkpt lat="47.620946" lon="7.911321">
        <ele>411.924852</ele>
        <time>2021-11-14T15:21:55.258Z</time>
      </trkpt>
      <trkpt lat="47.620846" lon="7.911023">
        <ele>410.224968</ele>
        <time>2021-11-14T15:21:57.230Z</time>
      </trkpt>
      <trkpt lat="47.620625" lon="7.910808">
        <ele>408.500588</ele>
        <time>2021-11-14T15:21:59.559Z</time>
      </trkpt>
      <trkpt lat="47.620181" lon="7.910694">
        <ele>405.560464</ele>
        <time>2021-11-14T15:22:03.566Z</time>
      </trkpt>
      <trkpt lat="47.620162" lon="7.910587">
        <ele>405.073815</ele>
        <time>2021-11-14T15:22:04.234Z</time>
      </trkpt>
      <trkpt lat="47.620245" lon="7.910440">
        <ele>404.230443</ele>
        <time>2021-11-14T15:22:05.406Z</time>
      </trkpt>
      <trkpt lat="47.620712" lon="7.910483">
        <ele>401.177448</ele>
        <time>2021-11-14T15:22:09.860Z</time>
      </trkpt>
      <trkpt lat="47.621308" lon="7.910162">
        <ele>397.645113</ele>
        <time>2021-11-14T15:22:15.914Z</time>
      </trkpt>
      <trkpt lat="47.621461" lon="7.910146">
        <ele>396.896012</ele>
        <time>2021-11-14T15:22:17.326Z</time>
      </trkpt>
      <trkpt lat="47.622368" lon="7.910396">
        <ele>392.390455</ele>
        <time>2021-11-14T15:22:26.024Z</time>
      </trkpt>
      <trkpt lat="47.622666" lon="7.910254">
        <ele>390.861809</ele>
        <time>2021-11-14T15:22:29.039Z</time>
      </trkpt>
      <trkpt lat="47.622755" lon="7.910176">
        <ele>390.350372</ele>
        <time>2021-11-14T15:22:29.990Z</time>
      </trkpt>
      <trkpt lat="47.622850" lon="7.910055">
        <ele>389.725607</ele>
        <time>2021-11-14T15:22:31.203Z</time>
      </trkpt>
      <trkpt lat="47.623414" lon="7.909173">
        <ele>385.636615</ele>
        <time>2021-11-14T15:22:39.047Z</time>
      </trkpt>
      <trkpt lat="47.623851" lon="7.909030">
        <ele>383.403603</ele>
        <time>2021-11-14T15:22:43.219Z</time>
      </trkpt>
      <trkpt lat="47.624367" lon="7.909092">
        <ele>380.309375</ele>
        <time>2021-11-14T15:22:48.138Z</time>
      </trkpt>
      <trkpt lat="47.624823" lon="7.909229">
        <ele>376.616780</ele>
        <time>2021-11-14T15:22:52.350Z</time>
      </trkpt>
      <trkpt lat="47.624962" lon="7.909272">
        <ele>375.489852</ele>
        <time>2021-11-14T15:22:53.580Z</time>
      </trkpt>
      <trkpt lat="47.625366" lon="7.909623">
        <ele>371.774150</ele>
        <time>2021-11-14T15:22:57.700Z</time>
      </trkpt>
      <trkpt lat="47.625586" lon="7.909712">
        <ele>369.964334</ele>
        <time>2021-11-14T15:22:59.687Z</time>
      </trkpt>
      <trkpt lat="47.625630" lon="7.909700">
        <ele>369.609268</ele>
        <time>2021-11-14T15:23:00.059Z</time>
      </trkpt>
      <trkpt lat="47.625660" lon="7.909693">
        <ele>369.368240</ele>
        <time>2021-11-14T15:23:00.315Z</time>
      </trkpt>
      <trkpt lat="47.625738" lon="7.909657">
        <ele>368.719917</ele>
        <time>2021-11-14T15:23:01.062Z</time>
      </trkpt>
      <trkpt lat="47.625820" lon="7.909530">
        <ele>367.779145</ele>
        <time>2021-11-14T15:23:02.098Z</time>
      </trkpt>
      <trkpt lat="47.625875" lon="7.909372">
        <ele>366.783750</ele>
        <time>2021-11-14T15:23:03.103Z</time>
      </trkpt>
      <trkpt lat="47.626074" lon="7.908682">
        <ele>362.464730</ele>
        <time>2021-11-14T15:23:07.472Z</time>
      </trkpt>
      <trkpt lat="47.626373" lon="7.908242">
        <ele>358.869009</ele>
        <time>2021-11-14T15:23:11.104Z</time>
      </trkpt>
      <trkpt lat="47.626436" lon="7.907974">
        <ele>357.235642</ele>
        <time>2021-11-14T15:23:12.731Z</time>
      </trkpt>
      <trkpt lat="47.626446" lon="7.907798">
        <ele>356.219232</ele>
        <time>2021-11-14T15:23:13.813Z</time>
      </trkpt>
      <trkpt lat="47.626442" lon="7.907543">
        <ele>354.751401</ele>
        <time>2021-11-14T15:23:15.302Z</time>
      </trkpt>
      <trkpt lat="47.626436" lon="7.907187">
        <ele>352.702108</ele>
        <time>2021-11-14T15:23:17.532Z</time>
      </trkpt>
      <trkpt lat="47.626436" lon="7.907061">
        <ele>352.037349</ele>
        <time>2021-11-14T15:23:18.356Z</time>
      </trkpt>
      <trkpt lat="47.626436" lon="7.906623">
        <ele>351.529960</ele>
        <time>2021-11-14T15:23:21.222Z</time>
      </trkpt>
      <trkpt lat="47.626439" lon="7.906299">
        <ele>351.154595</ele>
        <time>2021-11-14T15:23:23.375Z</time>
      </trkpt>
      <trkpt lat="47.626443" lon="7.905945">
        <ele>350.744455</ele>
        <time>2021-11-14T15:23:25.927Z</time>
      </trkpt>
      <trkpt lat="47.626460" lon="7.905124">
        <ele>349.792941</ele>
        <time>2021-11-14T15:23:32.833Z</time>
      </trkpt>
      <trkpt lat="47.626440" lon="7.905007">
        <ele>349.653114</ele>
        <time>2021-11-14T15:23:34.630Z</time>
      </trkpt>
      <trkpt lat="47.626399" lon="7.904961">
        <ele>349.564764</ele>
        <time>2021-11-14T15:23:35.430Z</time>
      </trkpt>
      <trkpt lat="47.626221" lon="7.904920">
        <ele>349.255148</ele>
        <time>2021-11-14T15:23:38.462Z</time>
      </trkpt>
      <trkpt lat="47.626086" lon="7.904879">
        <ele>349.018295</ele>
        <time>2021-11-14T15:23:41.650Z</time>
      </trkpt>
      <trkpt lat="47.625742" lon="7.904774">
        <ele>349.241341</ele>
        <time>2021-11-14T15:23:49.274Z</time>
      </trkpt>
      <trkpt lat="47.625516" lon="7.904701">
        <ele>349.445331</ele>
        <time>2021-11-14T15:23:53.906Z</time>
      </trkpt>
      <trkpt lat="47.625088" lon="7.904563">
        <ele>349.831616</ele>
        <time>2021-11-14T15:24:03.229Z</time>
      </trkpt>
      <trkpt lat="47.624956" lon="7.904522">
        <ele>349.950557</ele>
        <time>2021-11-14T15:24:05.985Z</time>
      </trkpt>
      <trkpt lat="47.624761" lon="7.904481">
        <ele>350.124255</ele>
        <time>2021-11-14T15:24:09.156Z</time>
      </trkpt>
      <trkpt lat="47.624565" lon="7.904455">
        <ele>350.297807</ele>
        <time>2021-11-14T15:24:12.215Z</time>
      </trkpt>
      <trkpt lat="47.624472" lon="7.904367">
        <ele>350.395089</ele>
        <time>2021-11-14T15:24:13.902Z</time>
      </trkpt>
      <trkpt lat="47.624451" lon="7.904332">
        <ele>350.422944</ele>
        <time>2021-11-14T15:24:14.423Z</time>
      </trkpt>
      <trkpt lat="47.624399" lon="7.904386">
        <ele>350.478922</ele>
        <time>2021-11-14T15:24:15.340Z</time>
      </trkpt>
      <trkpt lat="47.624263" lon="7.904484">
        <ele>350.490093</ele>
        <time>2021-11-14T15:24:17.562Z</time>
      </trkpt>
      <trkpt lat="47.624120" lon="7.904530">
        <ele>350.376409</ele>
        <time>2021-11-14T15:24:19.734Z</time>
      </trkpt>
      <trkpt lat="47.623650" lon="7.904642">
        <ele>350.006565</ele>
        <time>2021-11-14T15:24:26.012Z</time>
      </trkpt>
      <trkpt lat="47.622648" lon="7.904863">
        <ele>349.219512</ele>
        <time>2021-11-14T15:24:38.422Z</time>
      </trkpt>
      <trkpt lat="47.622424" lon="7.904919">
        <ele>348.901718</ele>
        <time>2021-11-14T15:24:41.030Z</time>
      </trkpt>
      <trkpt lat="47.622235" lon="7.904957">
        <ele>348.557553</ele>
        <time>2021-11-14T15:24:43.192Z</time>
      </trkpt>
      <trkpt lat="47.621248" lon="7.905159">
        <ele>346.759662</ele>
        <time>2021-11-14T15:24:54.300Z</time>
      </trkpt>
      <trkpt lat="47.621107" lon="7.905191">
        <ele>346.502270</ele>
        <time>2021-11-14T15:24:55.869Z</time>
      </trkpt>
      <trkpt lat="47.620699" lon="7.905223">
        <ele>345.682398</ele>
        <time>2021-11-14T15:25:00.296Z</time>
      </trkpt>
      <trkpt lat="47.620426" lon="7.905244">
        <ele>344.896418</ele>
        <time>2021-11-14T15:25:03.261Z</time>
      </trkpt>
      <trkpt lat="47.620141" lon="7.905260">
        <ele>344.076403</ele>
        <time>2021-11-14T15:25:06.392Z</time>
      </trkpt>
      <trkpt lat="47.619782" lon="7.905281">
        <ele>343.043408</ele>
        <time>2021-11-14T15:25:10.090Z</time>
      </trkpt>
      <trkpt lat="47.619447" lon="7.905300">
        <ele>342.079517</ele>
        <time>2021-11-14T15:25:13.439Z</time>
      </trkpt>
      <trkpt lat="47.619299" lon="7.905308">
        <ele>341.653707</ele>
        <time>2021-11-14T15:25:14.841Z</time>
      </trkpt>
      <trkpt lat="47.619155" lon="7.905319">
        <ele>341.239131</ele>
        <time>2021-11-14T15:25:16.421Z</time>
      </trkpt>
      <trkpt lat="47.618976" lon="7.905535">
        <ele>340.547646</ele>
        <time>2021-11-14T15:25:18.667Z</time>
      </trkpt>
      <trkpt lat="47.618920" lon="7.906208">
        <ele>338.998569</ele>
        <time>2021-11-14T15:25:23.363Z</time>
      </trkpt>
      <trkpt lat="47.618888" lon="7.906392">
        <ele>338.564472</ele>
        <time>2021-11-14T15:25:24.624Z</time>
      </trkpt>
      <trkpt lat="47.618867" lon="7.906514">
        <ele>338.276830</ele>
        <time>2021-11-14T15:25:25.408Z</time>
      </trkpt>
      <trkpt lat="47.618719" lon="7.906838">
        <ele>337.382736</ele>
        <time>2021-11-14T15:25:28.118Z</time>
      </trkpt>
      <trkpt lat="47.618579" lon="7.906988">
        <ele>336.797471</ele>
        <time>2021-11-14T15:25:29.777Z</time>
      </trkpt>
      <trkpt lat="47.618470" lon="7.907083">
        <ele>336.369034</ele>
        <time>2021-11-14T15:25:31.077Z</time>
      </trkpt>
      <trkpt lat="47.617957" lon="7.907285">
        <ele>334.596405</ele>
        <time>2021-11-14T15:25:36.385Z</time>
      </trkpt>
      <trkpt lat="47.617238" lon="7.908130">
        <ele>332.703092</ele>
        <time>2021-11-14T15:25:46.205Z</time>
      </trkpt>
      <trkpt lat="47.617086" lon="7.908230">
        <ele>332.359888</ele>
        <time>2021-11-14T15:25:48.094Z</time>
      </trkpt>
      <trkpt lat="47.616832" lon="7.908284">
        <ele>331.830261</ele>
        <time>2021-11-14T15:25:50.971Z</time>
      </trkpt>
      <trkpt lat="47.616604" lon="7.908203">
        <ele>331.346350</ele>
        <time>2021-11-14T15:25:53.598Z</time>
      </trkpt>
      <trkpt lat="47.616124" lon="7.907729">
        <ele>330.905683</ele>
        <time>2021-11-14T15:26:00.418Z</time>
      </trkpt>
      <trkpt lat="47.616009" lon="7.907686">
        <ele>330.899646</ele>
        <time>2021-11-14T15:26:01.982Z</time>
      </trkpt>
      <trkpt lat="47.615946" lon="7.907692">
        <ele>330.896433</ele>
        <time>2021-11-14T15:26:02.749Z</time>
      </trkpt>
      <trkpt lat="47.615821" lon="7.907747">
        <ele>330.889796</ele>
        <time>2021-11-14T15:26:04.827Z</time>
      </trkpt>
      <trkpt lat="47.615669" lon="7.907870">
        <ele>330.880983</ele>
        <time>2021-11-14T15:26:07.507Z</time>
      </trkpt>
      <trkpt lat="47.615460" lon="7.908111">
        <ele>330.867508</ele>
        <time>2021-11-14T15:26:11.878Z</time>
      </trkpt>
      <trkpt lat="47.615374" lon="7.908222">
        <ele>330.861705</ele>
        <time>2021-11-14T15:26:13.796Z</time>
      </trkpt>
      <trkpt lat="47.615246" lon="7.908385">
        <ele>330.853118</ele>
        <time>2021-11-14T15:26:16.820Z</time>
      </trkpt>
      <trkpt lat="47.615085" lon="7.908567">
        <ele>330.842815</ele>
        <time>2021-11-14T15:26:20.231Z</time>
      </trkpt>
      <trkpt lat="47.614876" lon="7.908760">
        <ele>330.894230</ele>
        <time>2021-11-14T15:26:24.549Z</time>
      </trkpt>
      <trkpt lat="47.614784" lon="7.908839">
        <ele>331.012581</ele>
        <time>2021-11-14T15:26:26.353Z</time>
      </trkpt>
      <trkpt lat="47.614412" lon="7.909095">
        <ele>331.469143</ele>
        <time>2021-11-14T15:26:33.624Z</time>
      </trkpt>
      <trkpt lat="47.614063" lon="7.909285">
        <ele>331.883042</ele>
        <time>2021-11-14T15:26:40.703Z</time>
      </trkpt>
      <trkpt lat="47.613934" lon="7.909339">
        <ele>332.032273</ele>
        <time>2021-11-14T15:26:43.280Z</time>
      </trkpt>
      <trkpt lat="47.613360" lon="7.909602">
        <ele>332.701126</ele>
        <time>2021-11-14T15:26:56.085Z</time>
      </trkpt>
      <trkpt lat="47.613280" lon="7.909624">
        <ele>332.791712</ele>
        <time>2021-11-14T15:26:57.773Z</time>
      </trkpt>
      <trkpt lat="47.612897" lon="7.909812">
        <ele>333.159660</ele>
        <time>2021-11-14T15:27:06.329Z</time>
      </trkpt>
      <trkpt lat="47.612216" lon="7.910134">
        <ele>333.795988</ele>
        <time>2021-11-14T15:27:19.340Z</time>
      </trkpt>
      <trkpt lat="47.612131" lon="7.910214">
        <ele>333.885608</ele>
        <time>2021-11-14T15:27:21.232Z</time>
      </trkpt>
      <trkpt lat="47.612082" lon="7.910269">
        <ele>333.940312</ele>
        <time>2021-11-14T15:27:22.311Z</time>
      </trkpt>
      <trkpt lat="47.612020" lon="7.910364">
        <ele>334.019669</ele>
        <time>2021-11-14T15:27:23.870Z</time>
      </trkpt>
      <trkpt lat="47.611986" lon="7.910466">
        <ele>334.087961</ele>
        <time>2021-11-14T15:27:25.140Z</time>
      </trkpt>
      <trkpt lat="47.611981" lon="7.910534">
        <ele>334.129015</ele>
        <time>2021-11-14T15:27:25.767Z</time>
      </trkpt>
      <trkpt lat="47.611988" lon="7.910610">
        <ele>334.175052</ele>
        <time>2021-11-14T15:27:26.726Z</time>
      </trkpt>
      <trkpt lat="47.611994" lon="7.910676">
        <ele>334.215022</ele>
        <time>2021-11-14T15:27:27.653Z</time>
      </trkpt>
      <trkpt lat="47.612005" lon="7.910790">
        <ele>334.284139</ele>
        <time>2021-11-14T15:27:28.917Z</time>
      </trkpt>
      <trkpt lat="47.612029" lon="7.910940">
        <ele>334.376665</ele>
        <time>2021-11-14T15:27:30.805Z</time>
      </trkpt>
      <trkpt lat="47.611260" lon="7.911383">
        <ele>334.100480</ele>
        <time>2021-11-14T15:27:43.910Z</time>
      </trkpt>
      <trkpt lat="47.610416" lon="7.911983">
        <ele>333.684761</ele>
        <time>2021-11-14T15:27:55.626Z</time>
      </trkpt>
      <trkpt lat="47.609914" lon="7.912278">
        <ele>333.041257</ele>
        <time>2021-11-14T15:28:01.830Z</time>
      </trkpt>
      <trkpt lat="47.609570" lon="7.912396">
        <ele>332.556459</ele>
        <time>2021-11-14T15:28:05.930Z</time>
      </trkpt>
      <trkpt lat="47.608679" lon="7.912703">
        <ele>331.300489</ele>
        <time>2021-11-14T15:28:16.553Z</time>
      </trkpt>
      <trkpt lat="47.607663" lon="7.913198">
        <ele>329.919072</ele>
        <time>2021-11-14T15:28:28.989Z</time>
      </trkpt>
      <trkpt lat="47.607292" lon="7.913435">
        <ele>329.400518</ele>
        <time>2021-11-14T15:28:33.718Z</time>
      </trkpt>
      <trkpt lat="47.606938" lon="7.913697">
        <ele>328.892648</ele>
        <time>2021-11-14T15:28:38.492Z</time>
      </trkpt>
      <trkpt lat="47.606706" lon="7.913869">
        <ele>328.568848</ele>
        <time>2021-11-14T15:28:41.680Z</time>
      </trkpt>
      <trkpt lat="47.606558" lon="7.913988">
        <ele>328.359339</ele>
        <time>2021-11-14T15:28:43.770Z</time>
      </trkpt>
      <trkpt lat="47.606450" lon="7.914067">
        <ele>328.209477</ele>
        <time>2021-11-14T15:28:45.270Z</time>
      </trkpt>
      <trkpt lat="47.606200" lon="7.914255">
        <ele>327.860648</ele>
        <time>2021-11-14T15:28:48.684Z</time>
      </trkpt>
      <trkpt lat="47.605929" lon="7.914457">
        <ele>327.483195</ele>
        <time>2021-11-14T15:28:52.367Z</time>
      </trkpt>
      <trkpt lat="47.605648" lon="7.914613">
        <ele>327.109797</ele>
        <time>2021-11-14T15:28:55.931Z</time>
      </trkpt>
      <trkpt lat="47.605408" lon="7.914750">
        <ele>326.789760</ele>
        <time>2021-11-14T15:28:58.882Z</time>
      </trkpt>
      <trkpt lat="47.605105" lon="7.914869">
        <ele>326.043512</ele>
        <time>2021-11-14T15:29:02.453Z</time>
      </trkpt>
      <trkpt lat="47.604722" lon="7.914915">
        <ele>324.795564</ele>
        <time>2021-11-14T15:29:06.624Z</time>
      </trkpt>
      <trkpt lat="47.604393" lon="7.914885">
        <ele>323.725048</ele>
        <time>2021-11-14T15:29:10.042Z</time>
      </trkpt>
      <trkpt lat="47.604062" lon="7.914772">
        <ele>322.621942</ele>
        <time>2021-11-14T15:29:13.432Z</time>
      </trkpt>
      <trkpt lat="47.603884" lon="7.914671">
        <ele>322.002985</ele>
        <time>2021-11-14T15:29:15.220Z</time>
      </trkpt>
      <trkpt lat="47.603615" lon="7.914449">
        <ele>321.003202</ele>
        <time>2021-11-14T15:29:18.168Z</time>
      </trkpt>
      <trkpt lat="47.603373" lon="7.914188">
        <ele>319.743371</ele>
        <time>2021-11-14T15:29:21.011Z</time>
      </trkpt>
      <trkpt lat="47.603038" lon="7.913754">
        <ele>317.742480</ele>
        <time>2021-11-14T15:29:25.203Z</time>
      </trkpt>
      <trkpt lat="47.602861" lon="7.913538">
        <ele>316.711396</ele>
        <time>2021-11-14T15:29:27.407Z</time>
      </trkpt>
      <trkpt lat="47.602742" lon="7.913448">
        <ele>316.110516</ele>
        <time>2021-11-14T15:29:28.643Z</time>
      </trkpt>
      <trkpt lat="47.602118" lon="7.913280">
        <ele>313.257705</ele>
        <time>2021-11-14T15:29:34.698Z</time>
      </trkpt>
      <trkpt lat="47.600086" lon="7.913316">
        <ele>306.936952</ele>
        <time>2021-11-14T15:29:55.511Z</time>
      </trkpt>
      <trkpt lat="47.599361" lon="7.913211">
        <ele>305.403939</ele>
        <time>2021-11-14T15:30:03.361Z</time>
      </trkpt>
      <trkpt lat="47.598263" lon="7.912768">
        <ele>303.127449</ele>
        <time>2021-11-14T15:30:15.996Z</time>
      </trkpt>
      <trkpt lat="47.597324" lon="7.912182">
        <ele>301.672881</ele>
        <time>2021-11-14T15:30:27.805Z</time>
      </trkpt>
      <trkpt lat="47.596928" lon="7.912047">
        <ele>301.092731</ele>
        <time>2021-11-14T15:30:32.630Z</time>
      </trkpt>
      <trkpt lat="47.596840" lon="7.912041">
        <ele>300.966953</ele>
        <time>2021-11-14T15:30:33.682Z</time>
      </trkpt>
      <trkpt lat="47.596657" lon="7.912027">
        <ele>300.750470</ele>
        <time>2021-11-14T15:30:35.901Z</time>
      </trkpt>
      <trkpt lat="47.596383" lon="7.912050">
        <ele>300.529554</ele>
        <time>2021-11-14T15:30:39.227Z</time>
      </trkpt>
      <trkpt lat="47.595919" lon="7.912182">
        <ele>300.149233</ele>
        <time>2021-11-14T15:30:45.049Z</time>
      </trkpt>
      <trkpt lat="47.595049" lon="7.912419">
        <ele>299.437185</ele>
        <time>2021-11-14T15:30:56.336Z</time>
      </trkpt>
      <trkpt lat="47.594246" lon="7.912426">
        <ele>299.508993</ele>
        <time>2021-11-14T15:31:07.459Z</time>
      </trkpt>
      <trkpt lat="47.593192" lon="7.912179">
        <ele>299.732003</ele>
        <time>2021-11-14T15:31:25.345Z</time>
      </trkpt>
      <trkpt lat="47.592198" lon="7.912030">
        <ele>300.183107</ele>
        <time>2021-11-14T15:31:44.263Z</time>
      </trkpt>
      <trkpt lat="47.591524" lon="7.911777">
        <ele>300.501052</ele>
        <time>2021-11-14T15:31:55.560Z</time>
      </trkpt>
      <trkpt lat="47.591361" lon="7.911643">
        <ele>300.457158</ele>
        <time>2021-11-14T15:31:58.922Z</time>
      </trkpt>
      <trkpt lat="47.591227" lon="7.911486">
        <ele>300.160346</ele>
        <time>2021-11-14T15:32:00.896Z</time>
      </trkpt>
      <trkpt lat="47.590486" lon="7.910371">
        <ele>298.325567</ele>
        <time>2021-11-14T15:32:12.637Z</time>
      </trkpt>
      <trkpt lat="47.590199" lon="7.910097">
        <ele>297.732329</ele>
        <time>2021-11-14T15:32:16.227Z</time>
      </trkpt>
      <trkpt lat="47.589984" lon="7.909953">
        <ele>297.309360</ele>
        <time>2021-11-14T15:32:18.627Z</time>
      </trkpt>
      <trkpt lat="47.589846" lon="7.909880">
        <ele>297.025023</ele>
        <time>2021-11-14T15:32:20.206Z</time>
      </trkpt>
      <trkpt lat="47.589453" lon="7.909790">
        <ele>296.253320</ele>
        <time>2021-11-14T15:32:24.412Z</time>
      </trkpt>
      <trkpt lat="47.589186" lon="7.909798">
        <ele>295.735071</ele>
        <time>2021-11-14T15:32:27.279Z</time>
      </trkpt>
      <trkpt lat="47.588985" lon="7.909827">
        <ele>295.343166</ele>
        <time>2021-11-14T15:32:29.458Z</time>
      </trkpt>
      <trkpt lat="47.587926" lon="7.910125">
        <ele>293.603936</ele>
        <time>2021-11-14T15:32:42.110Z</time>
      </trkpt>
      <trkpt lat="47.587479" lon="7.910228">
        <ele>293.173574</ele>
        <time>2021-11-14T15:32:48.168Z</time>
      </trkpt>
      <trkpt lat="47.587167" lon="7.910236">
        <ele>292.876706</ele>
        <time>2021-11-14T15:32:52.281Z</time>
      </trkpt>
      <trkpt lat="47.586985" lon="7.910183">
        <ele>292.700251</ele>
        <time>2021-11-14T15:32:54.575Z</time>
      </trkpt>
      <trkpt lat="47.586813" lon="7.910134">
        <ele>292.533624</ele>
        <time>2021-11-14T15:32:56.715Z</time>
      </trkpt>
      <trkpt lat="47.586540" lon="7.909941">
        <ele>292.245889</ele>
        <time>2021-11-14T15:33:00.324Z</time>
      </trkpt>
      <trkpt lat="47.586265" lon="7.909589">
        <ele>291.758101</ele>
        <time>2021-11-14T15:33:04.500Z</time>
      </trkpt>
      <trkpt lat="47.586062" lon="7.909215">
        <ele>291.317998</ele>
        <time>2021-11-14T15:33:08.453Z</time>
      </trkpt>
      <trkpt lat="47.585956" lon="7.908983">
        <ele>291.061103</ele>
        <time>2021-11-14T15:33:10.592Z</time>
      </trkpt>
      <trkpt lat="47.585899" lon="7.908777">
        <ele>290.856975</ele>
        <time>2021-11-14T15:33:12.536Z</time>
      </trkpt>
      <trkpt lat="47.585750" lon="7.908439">
        <ele>290.486795</ele>
        <time>2021-11-14T15:33:15.596Z</time>
      </trkpt>
      <trkpt lat="47.585760" lon="7.908367">
        <ele>290.419402</ele>
        <time>2021-11-14T15:33:16.254Z</time>
      </trkpt>
      <trkpt lat="47.585751" lon="7.908295">
        <ele>290.352271</ele>
        <time>2021-11-14T15:33:17.085Z</time>
      </trkpt>
      <trkpt lat="47.585729" lon="7.908244">
        <ele>290.296771</ele>
        <time>2021-11-14T15:33:17.533Z</time>
      </trkpt>
      <trkpt lat="47.585696" lon="7.908207">
        <ele>290.240535</ele>
        <time>2021-11-14T15:33:18.019Z</time>
      </trkpt>
      <trkpt lat="47.585658" lon="7.908188">
        <ele>290.186027</ele>
        <time>2021-11-14T15:33:18.464Z</time>
      </trkpt>
      <trkpt lat="47.585629" lon="7.908186">
        <ele>290.146567</ele>
        <time>2021-11-14T15:33:18.766Z</time>
      </trkpt>
      <trkpt lat="47.585601" lon="7.908195">
        <ele>290.107625</ele>
        <time>2021-11-14T15:33:19.103Z</time>
      </trkpt>
      <trkpt lat="47.585575" lon="7.908213">
        <ele>290.068622</ele>
        <time>2021-11-14T15:33:19.406Z</time>
      </trkpt>
      <trkpt lat="47.585551" lon="7.908241">
        <ele>290.027113</ele>
        <time>2021-11-14T15:33:19.762Z</time>
      </trkpt>
      <trkpt lat="47.585532" lon="7.908279">
        <ele>289.983747</ele>
        <time>2021-11-14T15:33:20.145Z</time>
      </trkpt>
      <trkpt lat="47.585521" lon="7.908321">
        <ele>289.942441</ele>
        <time>2021-11-14T15:33:20.531Z</time>
      </trkpt>
      <trkpt lat="47.585517" lon="7.908375">
        <ele>289.892638</ele>
        <time>2021-11-14T15:33:21.082Z</time>
      </trkpt>
      <trkpt lat="47.585525" lon="7.908428">
        <ele>289.842847</ele>
        <time>2021-11-14T15:33:21.544Z</time>
      </trkpt>
      <trkpt lat="47.585502" lon="7.908551">
        <ele>289.701643</ele>
        <time>2021-11-14T15:33:22.885Z</time>
      </trkpt>
      <trkpt lat="47.585467" lon="7.908664">
        <ele>289.542645</ele>
        <time>2021-11-14T15:33:24.172Z</time>
      </trkpt>
      <trkpt lat="47.585435" lon="7.908792">
        <ele>289.368092</ele>
        <time>2021-11-14T15:33:25.632Z</time>
      </trkpt>
      <trkpt lat="47.585427" lon="7.908874">
        <ele>289.262148</ele>
        <time>2021-11-14T15:33:26.620Z</time>
      </trkpt>
      <trkpt lat="47.585419" lon="7.908887">
        <ele>289.239646</ele>
        <time>2021-11-14T15:33:26.904Z</time>
      </trkpt>
      <trkpt lat="47.585337" lon="7.909031">
        <ele>288.998668</ele>
        <time>2021-11-14T15:33:28.876Z</time>
      </trkpt>
      <trkpt lat="47.585222" lon="7.908901">
        <ele>288.724510</ele>
        <time>2021-11-14T15:33:30.388Z</time>
      </trkpt>
      <trkpt lat="47.585149" lon="7.908804">
        <ele>288.538669</ele>
        <time>2021-11-14T15:33:31.581Z</time>
      </trkpt>
      <trkpt lat="47.585084" lon="7.908692">
        <ele>288.349738</ele>
        <time>2021-11-14T15:33:32.647Z</time>
      </trkpt>
      <trkpt lat="47.584719" lon="7.908091">
        <ele>287.315619</ele>
        <time>2021-11-14T15:33:38.562Z</time>
      </trkpt>
      <trkpt lat="47.583887" lon="7.907113">
        <ele>285.682317</ele>
        <time>2021-11-14T15:33:50.412Z</time>
      </trkpt>
      <trkpt lat="47.583711" lon="7.906911">
        <ele>285.409425</ele>
        <time>2021-11-14T15:33:52.873Z</time>
      </trkpt>
      <trkpt lat="47.583451" lon="7.906619">
        <ele>285.009512</ele>
        <time>2021-11-14T15:33:56.643Z</time>
      </trkpt>
      <trkpt lat="47.583245" lon="7.906443">
        <ele>284.718006</ele>
        <time>2021-11-14T15:33:59.530Z</time>
      </trkpt>
      <trkpt lat="47.583077" lon="7.906399">
        <ele>284.508839</ele>
        <time>2021-11-14T15:34:01.539Z</time>
      </trkpt>
      <trkpt lat="47.582951" lon="7.906415">
        <ele>284.353790</ele>
        <time>2021-11-14T15:34:03.402Z</time>
      </trkpt>
      <trkpt lat="47.582657" lon="7.906618">
        <ele>284.316056</ele>
        <time>2021-11-14T15:34:08.095Z</time>
      </trkpt>
      <trkpt lat="47.582248" lon="7.907090">
        <ele>284.740066</ele>
        <time>2021-11-14T15:34:17.215Z</time>
      </trkpt>
      <trkpt lat="47.581793" lon="7.907472">
        <ele>285.167827</ele>
        <time>2021-11-14T15:34:27.534Z</time>
      </trkpt>
      <trkpt lat="47.581568" lon="7.907612">
        <ele>285.367445</ele>
        <time>2021-11-14T15:34:32.730Z</time>
      </trkpt>
      <trkpt lat="47.580552" lon="7.908081">
        <ele>286.083315</ele>
        <time>2021-11-14T15:34:53.134Z</time>
      </trkpt>
      <trkpt lat="47.580470" lon="7.908164">
        <ele>286.143414</ele>
        <time>2021-11-14T15:34:54.729Z</time>
      </trkpt>
      <trkpt lat="47.580422" lon="7.908273">
        <ele>286.196561</ele>
        <time>2021-11-14T15:34:56.662Z</time>
      </trkpt>
      <trkpt lat="47.580194" lon="7.908192">
        <ele>286.338472</ele>
        <time>2021-11-14T15:35:00.595Z</time>
      </trkpt>
      <trkpt lat="47.580105" lon="7.908168">
        <ele>286.393226</ele>
        <time>2021-11-14T15:35:02.144Z</time>
      </trkpt>
      <trkpt lat="47.579708" lon="7.908314">
        <ele>286.640805</ele>
        <time>2021-11-14T15:35:08.553Z</time>
      </trkpt>
      <trkpt lat="47.579056" lon="7.908962">
        <ele>286.418075</ele>
        <time>2021-11-14T15:35:19.160Z</time>
      </trkpt>
      <trkpt lat="47.578895" lon="7.909087">
        <ele>286.328074</ele>
        <time>2021-11-14T15:35:21.358Z</time>
      </trkpt>
      <trkpt lat="47.577771" lon="7.909710">
        <ele>285.791551</ele>
        <time>2021-11-14T15:35:36.960Z</time>
      </trkpt>
      <trkpt lat="47.577424" lon="7.909886">
        <ele>285.707389</ele>
        <time>2021-11-14T15:35:41.890Z</time>
      </trkpt>
      <trkpt lat="47.576932" lon="7.910134">
        <ele>285.588135</ele>
        <time>2021-11-14T15:35:49.185Z</time>
      </trkpt>
      <trkpt lat="47.575854" lon="7.910743">
        <ele>285.598835</ele>
        <time>2021-11-14T15:36:06.418Z</time>
      </trkpt>
      <trkpt lat="47.575539" lon="7.910898">
        <ele>285.721995</ele>
        <time>2021-11-14T15:36:11.810Z</time>
      </trkpt>
      <trkpt lat="47.575508" lon="7.910912">
        <ele>285.734020</ele>
        <time>2021-11-14T15:36:12.280Z</time>
      </trkpt>
      <trkpt lat="47.574901" lon="7.911251">
        <ele>285.974716</ele>
        <time>2021-11-14T15:36:23.146Z</time>
      </trkpt>
      <trkpt lat="47.574566" lon="7.911447">
        <ele>286.119530</ele>
        <time>2021-11-14T15:36:29.336Z</time>
      </trkpt>
      <trkpt lat="47.573998" lon="7.911915">
        <ele>286.579940</ele>
        <time>2021-11-14T15:36:40.754Z</time>
      </trkpt>
      <trkpt lat="47.573759" lon="7.912034">
        <ele>286.758565</ele>
        <time>2021-11-14T15:36:45.444Z</time>
      </trkpt>
      <trkpt lat="47.572921" lon="7.912369">
        <ele>287.371431</ele>
        <time>2021-11-14T15:37:00.939Z</time>
      </trkpt>
      <trkpt lat="47.572843" lon="7.912399">
        <ele>287.390730</ele>
        <time>2021-11-14T15:37:02.543Z</time>
      </trkpt>
      <trkpt lat="47.572195" lon="7.912650">
        <ele>287.551137</ele>
        <time>2021-11-14T15:37:13.524Z</time>
      </trkpt>
      <trkpt lat="47.571842" lon="7.912780">
        <ele>287.638250</ele>
        <time>2021-11-14T15:37:19.159Z</time>
      </trkpt>
      <trkpt lat="47.571815" lon="7.912822">
        <ele>287.647624</ele>
        <time>2021-11-14T15:37:19.903Z</time>
      </trkpt>
      <trkpt lat="47.571801" lon="7.912878">
        <ele>287.657274</ele>
        <time>2021-11-14T15:37:20.522Z</time>
      </trkpt>
      <trkpt lat="47.571807" lon="7.913030">
        <ele>287.681876</ele>
        <time>2021-11-14T15:37:22.039Z</time>
      </trkpt>
      <trkpt lat="47.571638" lon="7.913041">
        <ele>287.722390</ele>
        <time>2021-11-14T15:37:24.422Z</time>
      </trkpt>
      <trkpt lat="47.569682" lon="7.913220">
        <ele>287.592399</ele>
        <time>2021-11-14T15:37:52.084Z</time>
      </trkpt>
      <trkpt lat="47.569155" lon="7.913298">
        <ele>287.699951</ele>
        <time>2021-11-14T15:38:00.255Z</time>
      </trkpt>
      <trkpt lat="47.568566" lon="7.913414">
        <ele>287.911826</ele>
        <time>2021-11-14T15:38:09.996Z</time>
      </trkpt>
      <trkpt lat="47.568301" lon="7.913554">
        <ele>288.012145</ele>
        <time>2021-11-14T15:38:14.772Z</time>
      </trkpt>
      <trkpt lat="47.567374" lon="7.914028">
        <ele>288.344166</ele>
        <time>2021-11-14T15:38:31.265Z</time>
      </trkpt>
      <trkpt lat="47.567335" lon="7.914048">
        <ele>288.357144</ele>
        <time>2021-11-14T15:38:32.121Z</time>
      </trkpt>
      <trkpt lat="47.566984" lon="7.914229">
        <ele>288.474020</ele>
        <time>2021-11-14T15:38:38.346Z</time>
      </trkpt>
      <trkpt lat="47.566601" lon="7.914411">
        <ele>288.600508</ele>
        <time>2021-11-14T15:38:44.810Z</time>
      </trkpt>
      <trkpt lat="47.566534" lon="7.914439">
        <ele>288.622401</ele>
        <time>2021-11-14T15:38:45.870Z</time>
      </trkpt>
      <trkpt lat="47.566489" lon="7.914461">
        <ele>288.637303</ele>
        <time>2021-11-14T15:38:46.579Z</time>
      </trkpt>
      <trkpt lat="47.566474" lon="7.914468">
        <ele>288.642248</ele>
        <time>2021-11-14T15:38:46.827Z</time>
      </trkpt>
      <trkpt lat="47.566250" lon="7.914580">
        <ele>288.716594</ele>
        <time>2021-11-14T15:38:50.523Z</time>
      </trkpt>
      <trkpt lat="47.566096" lon="7.914676">
        <ele>288.769135</ele>
        <time>2021-11-14T15:38:52.960Z</time>
      </trkpt>
      <trkpt lat="47.566025" lon="7.914720">
        <ele>288.768966</ele>
        <time>2021-11-14T15:38:54.064Z</time>
      </trkpt>
      <trkpt lat="47.565995" lon="7.914739">
        <ele>288.762982</ele>
        <time>2021-11-14T15:38:54.615Z</time>
      </trkpt>
      <trkpt lat="47.565830" lon="7.914880">
        <ele>288.728048</ele>
        <time>2021-11-14T15:38:57.350Z</time>
      </trkpt>
      <trkpt lat="47.565748" lon="7.914949">
        <ele>288.710752</ele>
        <time>2021-11-14T15:38:58.653Z</time>
      </trkpt>
      <trkpt lat="47.565672" lon="7.915025">
        <ele>288.693936</ele>
        <time>2021-11-14T15:38:59.928Z</time>
      </trkpt>
      <trkpt lat="47.565627" lon="7.915066">
        <ele>288.684247</ele>
        <time>2021-11-14T15:39:00.675Z</time>
      </trkpt>
      <trkpt lat="47.564899" lon="7.915798">
        <ele>288.522889</ele>
        <time>2021-11-14T15:39:12.967Z</time>
      </trkpt>
      <trkpt lat="47.564526" lon="7.916174">
        <ele>288.457168</ele>
        <time>2021-11-14T15:39:19.216Z</time>
      </trkpt>
      <trkpt lat="47.564500" lon="7.916200">
        <ele>288.463819</ele>
        <time>2021-11-14T15:39:19.653Z</time>
      </trkpt>
      <trkpt lat="47.564482" lon="7.916219">
        <ele>288.468505</ele>
        <time>2021-11-14T15:39:19.971Z</time>
      </trkpt>
      <trkpt lat="47.563485" lon="7.917258">
        <ele>288.726954</ele>
        <time>2021-11-14T15:39:37.731Z</time>
      </trkpt>
      <trkpt lat="47.563304" lon="7.917434">
        <ele>288.772859</ele>
        <time>2021-11-14T15:39:41.406Z</time>
      </trkpt>
      <trkpt lat="47.562783" lon="7.917983">
        <ele>289.320052</ele>
        <time>2021-11-14T15:39:53.594Z</time>
      </trkpt>
      <trkpt lat="47.562766" lon="7.918001">
        <ele>289.347575</ele>
        <time>2021-11-14T15:39:54.123Z</time>
      </trkpt>
      <trkpt lat="47.562491" lon="7.918206">
        <ele>289.753075</ele>
        <time>2021-11-14T15:40:00.439Z</time>
      </trkpt>
      <trkpt lat="47.562330" lon="7.918325">
        <ele>289.990072</ele>
        <time>2021-11-14T15:40:04.263Z</time>
      </trkpt>
      <trkpt lat="47.562192" lon="7.918413">
        <ele>290.187972</ele>
        <time>2021-11-14T15:40:07.351Z</time>
      </trkpt>
      <trkpt lat="47.562098" lon="7.918473">
        <ele>290.322794</ele>
        <time>2021-11-14T15:40:09.551Z</time>
      </trkpt>
      <trkpt lat="47.561792" lon="7.918633">
        <ele>290.750237</ele>
        <time>2021-11-14T15:40:16.263Z</time>
      </trkpt>
      <trkpt lat="47.561405" lon="7.918835">
        <ele>291.251148</ele>
        <time>2021-11-14T15:40:24.985Z</time>
      </trkpt>
      <trkpt lat="47.561244" lon="7.918902">
        <ele>291.376640</ele>
        <time>2021-11-14T15:40:28.504Z</time>
      </trkpt>
      <trkpt lat="47.558098" lon="7.920440">
        <ele>293.391515</ele>
        <time>2021-11-14T15:41:24.997Z</time>
      </trkpt>
      <trkpt lat="47.557147" lon="7.921064">
        <ele>293.536817</ele>
        <time>2021-11-14T15:41:40.642Z</time>
      </trkpt>
      <trkpt lat="47.556542" lon="7.921551">
        <ele>293.621755</ele>
        <time>2021-11-14T15:41:50.901Z</time>
      </trkpt>
      <trkpt lat="47.555272" lon="7.922934">
        <ele>293.839302</ele>
        <time>2021-11-14T15:42:14.943Z</time>
      </trkpt>
      <trkpt lat="47.554705" lon="7.923835">
        <ele>293.960050</ele>
        <time>2021-11-14T15:42:28.096Z</time>
      </trkpt>
      <trkpt lat="47.554226" lon="7.924713">
        <ele>294.073885</ele>
        <time>2021-11-14T15:42:39.909Z</time>
      </trkpt>
      <trkpt lat="47.553834" lon="7.925632">
        <ele>294.126529</ele>
        <time>2021-11-14T15:42:51.305Z</time>
      </trkpt>
      <trkpt lat="47.553539" lon="7.926451">
        <ele>294.030583</ele>
        <time>2021-11-14T15:43:00.674Z</time>
      </trkpt>
      <trkpt lat="47.553408" lon="7.926803">
        <ele>293.989039</ele>
        <time>2021-11-14T15:43:04.477Z</time>
      </trkpt>
      <trkpt lat="47.553381" lon="7.926895">
        <ele>293.978670</ele>
        <time>2021-11-14T15:43:05.414Z</time>
      </trkpt>
      <trkpt lat="47.553248" lon="7.927068">
        <ele>293.951568</ele>
        <time>2021-11-14T15:43:07.814Z</time>
      </trkpt>
      <trkpt lat="47.553139" lon="7.927147">
        <ele>293.932986</ele>
        <time>2021-11-14T15:43:09.481Z</time>
      </trkpt>
      <trkpt lat="47.553077" lon="7.927196">
        <ele>293.922226</ele>
        <time>2021-11-14T15:43:10.403Z</time>
      </trkpt>
      <trkpt lat="47.552729" lon="7.927061">
        <ele>293.852072</ele>
        <time>2021-11-14T15:43:15.158Z</time>
      </trkpt>
      <trkpt lat="47.552388" lon="7.926860">
        <ele>293.729683</ele>
        <time>2021-11-14T15:43:20.070Z</time>
      </trkpt>
      <trkpt lat="47.552250" lon="7.926787">
        <ele>293.680817</ele>
        <time>2021-11-14T15:43:22.078Z</time>
      </trkpt>
      <trkpt lat="47.551788" lon="7.926512">
        <ele>293.514776</ele>
        <time>2021-11-14T15:43:29.133Z</time>
      </trkpt>
      <trkpt lat="47.551676" lon="7.926477">
        <ele>293.476603</ele>
        <time>2021-11-14T15:43:30.615Z</time>
      </trkpt>
      <trkpt lat="47.551423" lon="7.926561">
        <ele>293.390138</ele>
        <time>2021-11-14T15:43:34.364Z</time>
      </trkpt>
      <trkpt lat="47.551345" lon="7.926636">
        <ele>293.359128</ele>
        <time>2021-11-14T15:43:35.551Z</time>
      </trkpt>
      <trkpt lat="47.551300" lon="7.926708">
        <ele>293.337041</ele>
        <time>2021-11-14T15:43:36.488Z</time>
      </trkpt>
      <trkpt lat="47.551262" lon="7.926787">
        <ele>293.315206</ele>
        <time>2021-11-14T15:43:37.423Z</time>
      </trkpt>
      <trkpt lat="47.551236" lon="7.926890">
        <ele>293.290454</ele>
        <time>2021-11-14T15:43:38.511Z</time>
      </trkpt>
      <trkpt lat="47.551209" lon="7.927048">
        <ele>293.212345</ele>
        <time>2021-11-14T15:43:39.939Z</time>
      </trkpt>
      <trkpt lat="47.551183" lon="7.927256">
        <ele>293.089832</ele>
        <time>2021-11-14T15:43:41.912Z</time>
      </trkpt>
      <trkpt lat="47.551129" lon="7.927498">
        <ele>292.942214</ele>
        <time>2021-11-14T15:43:44.248Z</time>
      </trkpt>
      <trkpt lat="47.551096" lon="7.927696">
        <ele>292.824096</ele>
        <time>2021-11-14T15:43:45.989Z</time>
      </trkpt>
      <trkpt lat="47.551076" lon="7.927850">
        <ele>292.733270</ele>
        <time>2021-11-14T15:43:47.447Z</time>
      </trkpt>
      <trkpt lat="47.550669" lon="7.927757">
        <ele>292.379895</ele>
        <time>2021-11-14T15:43:52.911Z</time>
      </trkpt>
      <trkpt lat="47.550481" lon="7.927724">
        <ele>292.217444</ele>
        <time>2021-11-14T15:43:55.348Z</time>
      </trkpt>
      <trkpt lat="47.550381" lon="7.927709">
        <ele>292.131195</ele>
        <time>2021-11-14T15:43:56.538Z</time>
      </trkpt>
      <trkpt lat="47.550041" lon="7.927651">
        <ele>291.837514</ele>
        <time>2021-11-14T15:44:00.501Z</time>
      </trkpt>
      <trkpt lat="47.549697" lon="7.927581">
        <ele>291.267153</ele>
        <time>2021-11-14T15:44:04.414Z</time>
      </trkpt>
      <trkpt lat="47.549059" lon="7.927444">
        <ele>289.949545</ele>
        <time>2021-11-14T15:44:11.291Z</time>
      </trkpt>
      <trkpt lat="47.548912" lon="7.927437">
        <ele>289.648942</ele>
        <time>2021-11-14T15:44:12.852Z</time>
      </trkpt>
      <trkpt lat="47.548777" lon="7.927430">
        <ele>289.372852</ele>
        <time>2021-11-14T15:44:14.238Z</time>
      </trkpt>
      <trkpt lat="47.548534" lon="7.927518">
        <ele>288.861572</ele>
        <time>2021-11-14T15:44:16.912Z</time>
      </trkpt>
      <trkpt lat="47.548298" lon="7.927820">
        <ele>288.224206</ele>
        <time>2021-11-14T15:44:20.537Z</time>
      </trkpt>
      <trkpt lat="47.548275" lon="7.927880">
        <ele>288.129016</ele>
        <time>2021-11-14T15:44:20.967Z</time>
      </trkpt>
      <trkpt lat="47.548228" lon="7.928033">
        <ele>287.966354</ele>
        <time>2021-11-14T15:44:22.290Z</time>
      </trkpt>
      <trkpt lat="47.548186" lon="7.928343">
        <ele>287.715003</ele>
        <time>2021-11-14T15:44:24.869Z</time>
      </trkpt>
      <trkpt lat="47.548192" lon="7.928866">
        <ele>287.299184</ele>
        <time>2021-11-14T15:44:28.893Z</time>
      </trkpt>
      <trkpt lat="47.548226" lon="7.929841">
        <ele>286.523072</ele>
        <time>2021-11-14T15:44:36.860Z</time>
      </trkpt>
      <trkpt lat="47.548236" lon="7.930144">
        <ele>286.281914</ele>
        <time>2021-11-14T15:44:39.313Z</time>
      </trkpt>
      <trkpt lat="47.548241" lon="7.930335">
        <ele>286.129965</ele>
        <time>2021-11-14T15:44:41.167Z</time>
      </trkpt>
      <trkpt lat="47.548252" lon="7.930989">
        <ele>285.740434</ele>
        <time>2021-11-14T15:44:47.166Z</time>
      </trkpt>
      <trkpt lat="47.548144" lon="7.932614">
        <ele>284.952365</ele>
        <time>2021-11-14T15:45:01.226Z</time>
      </trkpt>
      <trkpt lat="47.547956" lon="7.933604">
        <ele>284.500452</ele>
        <time>2021-11-14T15:45:09.781Z</time>
      </trkpt>
      <trkpt lat="47.547663" lon="7.934665">
        <ele>284.070105</ele>
        <time>2021-11-14T15:45:19.832Z</time>
      </trkpt>
      <trkpt lat="47.547539" lon="7.935068">
        <ele>283.903840</ele>
        <time>2021-11-14T15:45:23.841Z</time>
      </trkpt>
      <trkpt lat="47.547523" lon="7.935115">
        <ele>283.884079</ele>
        <time>2021-11-14T15:45:24.333Z</time>
      </trkpt>
      <trkpt lat="47.547020" lon="7.936617">
        <ele>283.548882</ele>
        <time>2021-11-14T15:45:39.978Z</time>
      </trkpt>
      <trkpt lat="47.546895" lon="7.937196">
        <ele>283.488109</ele>
        <time>2021-11-14T15:45:45.843Z</time>
      </trkpt>
      <trkpt lat="47.546890" lon="7.937591">
        <ele>283.448612</ele>
        <time>2021-11-14T15:45:49.774Z</time>
      </trkpt>
      <trkpt lat="47.546890" lon="7.937602">
        <ele>283.447512</ele>
        <time>2021-11-14T15:45:49.879Z</time>
      </trkpt>
      <trkpt lat="47.546915" lon="7.937800">
        <ele>283.427374</ele>
        <time>2021-11-14T15:45:51.750Z</time>
      </trkpt>
      <trkpt lat="47.546969" lon="7.938023">
        <ele>283.403689</ele>
        <time>2021-11-14T15:45:54.111Z</time>
      </trkpt>
      <trkpt lat="47.547044" lon="7.938237">
        <ele>283.412169</ele>
        <time>2021-11-14T15:45:56.613Z</time>
      </trkpt>
      <trkpt lat="47.547115" lon="7.938377">
        <ele>283.453471</ele>
        <time>2021-11-14T15:45:58.417Z</time>
      </trkpt>
      <trkpt lat="47.547174" lon="7.938475">
        <ele>283.484444</ele>
        <time>2021-11-14T15:45:59.774Z</time>
      </trkpt>
      <trkpt lat="47.547474" lon="7.938844">
        <ele>283.620694</ele>
        <time>2021-11-14T15:46:05.775Z</time>
      </trkpt>
      <trkpt lat="47.548085" lon="7.939422">
        <ele>283.874009</ele>
        <time>2021-11-14T15:46:17.454Z</time>
      </trkpt>
      <trkpt lat="47.548129" lon="7.939460">
        <ele>283.891806</ele>
        <time>2021-11-14T15:46:18.342Z</time>
      </trkpt>
      <trkpt lat="47.548150" lon="7.939478">
        <ele>283.900283</ele>
        <time>2021-11-14T15:46:18.762Z</time>
      </trkpt>
      <trkpt lat="47.548194" lon="7.939601">
        <ele>283.933116</ele>
        <time>2021-11-14T15:46:20.507Z</time>
      </trkpt>
      <trkpt lat="47.548314" lon="7.939849">
        <ele>284.005086</ele>
        <time>2021-11-14T15:46:23.932Z</time>
      </trkpt>
      <trkpt lat="47.548349" lon="7.940187">
        <ele>284.203582</ele>
        <time>2021-11-14T15:46:28.093Z</time>
      </trkpt>
      <trkpt lat="47.548195" lon="7.940950">
        <ele>284.717167</ele>
        <time>2021-11-14T15:46:38.221Z</time>
      </trkpt>
      <trkpt lat="47.547852" lon="7.942144">
        <ele>285.554016</ele>
        <time>2021-11-14T15:46:54.966Z</time>
      </trkpt>
      <trkpt lat="47.547772" lon="7.942416">
        <ele>285.742914</ele>
        <time>2021-11-14T15:46:58.823Z</time>
      </trkpt>
      <trkpt lat="47.547436" lon="7.943731">
        <ele>286.405048</ele>
        <time>2021-11-14T15:47:16.349Z</time>
      </trkpt>
      <trkpt lat="47.547380" lon="7.943952">
        <ele>286.516212</ele>
        <time>2021-11-14T15:47:19.146Z</time>
      </trkpt>
      <trkpt lat="47.547280" lon="7.944357">
        <ele>286.719293</ele>
        <time>2021-11-14T15:47:24.133Z</time>
      </trkpt>
      <trkpt lat="47.547254" lon="7.944465">
        <ele>286.773290</ele>
        <time>2021-11-14T15:47:25.394Z</time>
      </trkpt>
      <trkpt lat="47.547245" lon="7.944501">
        <ele>286.791368</ele>
        <time>2021-11-14T15:47:25.805Z</time>
      </trkpt>
      <trkpt lat="47.547226" lon="7.944591">
        <ele>286.835775</ele>
        <time>2021-11-14T15:47:26.876Z</time>
      </trkpt>
      <trkpt lat="47.547133" lon="7.944987">
        <ele>287.000005</ele>
        <time>2021-11-14T15:47:31.133Z</time>
      </trkpt>
      <trkpt lat="47.547004" lon="7.945514">
        <ele>287.055526</ele>
        <time>2021-11-14T15:47:37.110Z</time>
      </trkpt>
      <trkpt lat="47.546971" lon="7.945673">
        <ele>287.072001</ele>
        <time>2021-11-14T15:47:38.905Z</time>
      </trkpt>
      <trkpt lat="47.546954" lon="7.945755">
        <ele>287.080497</ele>
        <time>2021-11-14T15:47:39.866Z</time>
      </trkpt>
      <trkpt lat="47.546780" lon="7.946530">
        <ele>287.161390</ele>
        <time>2021-11-14T15:47:48.473Z</time>
      </trkpt>
      <trkpt lat="47.546755" lon="7.946638">
        <ele>287.172698</ele>
        <time>2021-11-14T15:47:49.706Z</time>
      </trkpt>
      <trkpt lat="47.546682" lon="7.946947">
        <ele>287.205122</ele>
        <time>2021-11-14T15:47:53.036Z</time>
      </trkpt>
      <trkpt lat="47.546677" lon="7.946975">
        <ele>287.207991</ele>
        <time>2021-11-14T15:47:53.286Z</time>
      </trkpt>
      <trkpt lat="47.546709" lon="7.946954">
        <ele>287.213126</ele>
        <time>2021-11-14T15:47:53.819Z</time>
      </trkpt>
      <trkpt lat="47.546749" lon="7.946929">
        <ele>287.219496</ele>
        <time>2021-11-14T15:47:54.447Z</time>
      </trkpt>
      <trkpt lat="47.546772" lon="7.946847">
        <ele>287.228291</ele>
        <time>2021-11-14T15:47:55.303Z</time>
      </trkpt>
      <trkpt lat="47.546815" lon="7.946690">
        <ele>287.245072</ele>
        <time>2021-11-14T15:47:56.994Z</time>
      </trkpt>
      <trkpt lat="47.546959" lon="7.946071">
        <ele>287.187512</ele>
        <time>2021-11-14T15:48:03.249Z</time>
      </trkpt>
      <trkpt lat="47.547022" lon="7.945790">
        <ele>287.151383</ele>
        <time>2021-11-14T15:48:06.132Z</time>
      </trkpt>
      <trkpt lat="47.547053" lon="7.945649">
        <ele>287.133288</ele>
        <time>2021-11-14T15:48:07.576Z</time>
      </trkpt>
      <trkpt lat="47.547075" lon="7.945550">
        <ele>287.120571</ele>
        <time>2021-11-14T15:48:08.592Z</time>
      </trkpt>
      <trkpt lat="47.547150" lon="7.945242">
        <ele>287.080618</ele>
        <time>2021-11-14T15:48:11.968Z</time>
      </trkpt>
      <trkpt lat="47.547161" lon="7.945196">
        <ele>287.074664</ele>
        <time>2021-11-14T15:48:12.415Z</time>
      </trkpt>
      <trkpt lat="47.547282" lon="7.944699">
        <ele>287.010197</ele>
        <time>2021-11-14T15:48:17.831Z</time>
      </trkpt>
      <trkpt lat="47.547318" lon="7.944515">
        <ele>286.986821</ele>
        <time>2021-11-14T15:48:19.517Z</time>
      </trkpt>
      <trkpt lat="47.547344" lon="7.944382">
        <ele>286.969926</ele>
        <time>2021-11-14T15:48:20.892Z</time>
      </trkpt>
      <trkpt lat="47.547354" lon="7.944331">
        <ele>286.963446</ele>
        <time>2021-11-14T15:48:21.423Z</time>
      </trkpt>
      <trkpt lat="47.547734" lon="7.942722">
        <ele>286.388654</ele>
        <time>2021-11-14T15:48:36.407Z</time>
      </trkpt>
      <trkpt lat="47.547790" lon="7.942490">
        <ele>286.295391</ele>
        <time>2021-11-14T15:48:38.442Z</time>
      </trkpt>
      <trkpt lat="47.548087" lon="7.941446">
        <ele>285.879930</ele>
        <time>2021-11-14T15:48:48.490Z</time>
      </trkpt>
      <trkpt lat="47.548484" lon="7.940313">
        <ele>285.514855</ele>
        <time>2021-11-14T15:48:59.525Z</time>
      </trkpt>
      <trkpt lat="47.548550" lon="7.940126">
        <ele>285.454507</ele>
        <time>2021-11-14T15:49:01.489Z</time>
      </trkpt>
      <trkpt lat="47.548587" lon="7.940118">
        <ele>285.438664</ele>
        <time>2021-11-14T15:49:02.011Z</time>
      </trkpt>
      <trkpt lat="47.548632" lon="7.940087">
        <ele>285.417638</ele>
        <time>2021-11-14T15:49:02.676Z</time>
      </trkpt>
      <trkpt lat="47.548653" lon="7.940052">
        <ele>285.404246</ele>
        <time>2021-11-14T15:49:03.109Z</time>
      </trkpt>
      <trkpt lat="47.548676" lon="7.939951">
        <ele>285.373762</ele>
        <time>2021-11-14T15:49:04.078Z</time>
      </trkpt>
      <trkpt lat="47.548673" lon="7.939890">
        <ele>285.356271</ele>
        <time>2021-11-14T15:49:04.696Z</time>
      </trkpt>
      <trkpt lat="47.548643" lon="7.939810">
        <ele>285.330099</ele>
        <time>2021-11-14T15:49:05.570Z</time>
      </trkpt>
      <trkpt lat="47.548614" lon="7.939778">
        <ele>285.314779</ele>
        <time>2021-11-14T15:49:06.078Z</time>
      </trkpt>
      <trkpt lat="47.548563" lon="7.939753">
        <ele>285.292018</ele>
        <time>2021-11-14T15:49:06.824Z</time>
      </trkpt>
      <trkpt lat="47.548509" lon="7.939765">
        <ele>285.268883</ele>
        <time>2021-11-14T15:49:07.578Z</time>
      </trkpt>
      <trkpt lat="47.548479" lon="7.939789">
        <ele>285.254437</ele>
        <time>2021-11-14T15:49:08.050Z</time>
      </trkpt>
      <trkpt lat="47.548455" lon="7.939823">
        <ele>285.240368</ele>
        <time>2021-11-14T15:49:08.508Z</time>
      </trkpt>
      <trkpt lat="47.548437" lon="7.939866">
        <ele>285.225898</ele>
        <time>2021-11-14T15:49:08.982Z</time>
      </trkpt>
      <trkpt lat="47.548426" lon="7.939924">
        <ele>285.208669</ele>
        <time>2021-11-14T15:49:09.584Z</time>
      </trkpt>
      <trkpt lat="47.548427" lon="7.939957">
        <ele>285.199222</ele>
        <time>2021-11-14T15:49:09.961Z</time>
      </trkpt>
      <trkpt lat="47.548446" lon="7.940038">
        <ele>285.174698</ele>
        <time>2021-11-14T15:49:10.785Z</time>
      </trkpt>
      <trkpt lat="47.548468" lon="7.940081">
        <ele>285.159268</ele>
        <time>2021-11-14T15:49:11.325Z</time>
      </trkpt>
      <trkpt lat="47.548420" lon="7.940256">
        <ele>285.213103</ele>
        <time>2021-11-14T15:49:13.217Z</time>
      </trkpt>
      <trkpt lat="47.548303" lon="7.940599">
        <ele>285.322917</ele>
        <time>2021-11-14T15:49:17.337Z</time>
      </trkpt>
      <trkpt lat="47.548195" lon="7.940950">
        <ele>285.433143</ele>
        <time>2021-11-14T15:49:21.677Z</time>
      </trkpt>
      <trkpt lat="47.547852" lon="7.942144">
        <ele>285.803938</ele>
        <time>2021-11-14T15:49:36.380Z</time>
      </trkpt>
      <trkpt lat="47.547772" lon="7.942416">
        <ele>285.888719</ele>
        <time>2021-11-14T15:49:39.997Z</time>
      </trkpt>
      <trkpt lat="47.547436" lon="7.943731">
        <ele>286.368344</ele>
        <time>2021-11-14T15:49:56.992Z</time>
      </trkpt>
      <trkpt lat="47.547380" lon="7.943952">
        <ele>286.449994</ele>
        <time>2021-11-14T15:49:59.803Z</time>
      </trkpt>
      <trkpt lat="47.547280" lon="7.944357">
        <ele>286.599159</ele>
        <time>2021-11-14T15:50:04.712Z</time>
      </trkpt>
      <trkpt lat="47.547254" lon="7.944465">
        <ele>286.638820</ele>
        <time>2021-11-14T15:50:05.938Z</time>
      </trkpt>
      <trkpt lat="47.547245" lon="7.944501">
        <ele>286.652099</ele>
        <time>2021-11-14T15:50:06.333Z</time>
      </trkpt>
      <trkpt lat="47.547186" lon="7.944630">
        <ele>286.705997</ele>
        <time>2021-11-14T15:50:07.921Z</time>
      </trkpt>
      <trkpt lat="47.547164" lon="7.944724">
        <ele>286.740410</ele>
        <time>2021-11-14T15:50:08.979Z</time>
      </trkpt>
      <trkpt lat="47.547155" lon="7.944757">
        <ele>286.752721</ele>
        <time>2021-11-14T15:50:09.396Z</time>
      </trkpt>
      <trkpt lat="47.547020" lon="7.945146">
        <ele>286.981705</ele>
        <time>2021-11-14T15:50:13.728Z</time>
      </trkpt>
      <trkpt lat="47.546975" lon="7.945238">
        <ele>287.070512</ele>
        <time>2021-11-14T15:50:14.839Z</time>
      </trkpt>
      <trkpt lat="47.546915" lon="7.945468">
        <ele>287.263249</ele>
        <time>2021-11-14T15:50:17.069Z</time>
      </trkpt>
      <trkpt lat="47.546868" lon="7.945669">
        <ele>287.429519</ele>
        <time>2021-11-14T15:50:19.299Z</time>
      </trkpt>
      <trkpt lat="47.546859" lon="7.945706">
        <ele>287.460261</ele>
        <time>2021-11-14T15:50:19.760Z</time>
      </trkpt>
      <trkpt lat="47.546795" lon="7.946005">
        <ele>287.705442</ele>
        <time>2021-11-14T15:50:23.050Z</time>
      </trkpt>
      <trkpt lat="47.546735" lon="7.946282">
        <ele>287.932832</ele>
        <time>2021-11-14T15:50:26.729Z</time>
      </trkpt>
      <trkpt lat="47.546664" lon="7.946504">
        <ele>288.124851</ele>
        <time>2021-11-14T15:50:29.765Z</time>
      </trkpt>
      <trkpt lat="47.546655" lon="7.946544">
        <ele>288.157808</ele>
        <time>2021-11-14T15:50:30.328Z</time>
      </trkpt>
      <trkpt lat="47.546592" lon="7.946809">
        <ele>288.377416</ele>
        <time>2021-11-14T15:50:34.451Z</time>
      </trkpt>
      <trkpt lat="47.546633" lon="7.946946">
        <ele>288.494555</ele>
        <time>2021-11-14T15:50:36.633Z</time>
      </trkpt>
      <trkpt lat="47.546648" lon="7.947009">
        <ele>288.546773</ele>
        <time>2021-11-14T15:50:37.558Z</time>
      </trkpt>
      <trkpt lat="47.546651" lon="7.947115">
        <ele>288.629700</ele>
        <time>2021-11-14T15:50:39.281Z</time>
      </trkpt>
      <trkpt lat="47.546572" lon="7.947545">
        <ele>289.091538</ele>
        <time>2021-11-14T15:50:46.386Z</time>
      </trkpt>
      <trkpt lat="47.546159" lon="7.949303">
        <ele>293.672066</ele>
        <time>2021-11-14T15:51:24.509Z</time>
      </trkpt>
      <trkpt lat="47.546033" lon="7.949833">
        <ele>295.054799</ele>
        <time>2021-11-14T15:51:36.898Z</time>
      </trkpt>
      <trkpt lat="47.545949" lon="7.950185">
        <ele>295.733005</ele>
        <time>2021-11-14T15:51:44.824Z</time>
      </trkpt>
      <trkpt lat="47.545884" lon="7.950363">
        <ele>295.987158</ele>
        <time>2021-11-14T15:51:48.702Z</time>
      </trkpt>
      <trkpt lat="47.545822" lon="7.950627">
        <ele>296.338190</ele>
        <time>2021-11-14T15:51:54.050Z</time>
      </trkpt>
      <trkpt lat="47.545810" lon="7.950694">
        <ele>296.425242</ele>
        <time>2021-11-14T15:51:55.283Z</time>
      </trkpt>
      <trkpt lat="47.545763" lon="7.950733">
        <ele>296.525467</ele>
        <time>2021-11-14T15:51:56.765Z</time>
      </trkpt>
      <trkpt lat="47.545659" lon="7.950771">
        <ele>296.724756</ele>
        <time>2021-11-14T15:51:59.173Z</time>
      </trkpt>
      <trkpt lat="47.545625" lon="7.950771">
        <ele>296.788013</ele>
        <time>2021-11-14T15:52:00.079Z</time>
      </trkpt>
      <trkpt lat="47.545567" lon="7.950765">
        <ele>296.896184</ele>
        <time>2021-11-14T15:52:01.506Z</time>
      </trkpt>
      <trkpt lat="47.545494" lon="7.950684">
        <ele>297.065870</ele>
        <time>2021-11-14T15:52:03.666Z</time>
      </trkpt>
      <trkpt lat="47.545434" lon="7.950668">
        <ele>297.179293</ele>
        <time>2021-11-14T15:52:05.118Z</time>
      </trkpt>
      <trkpt lat="47.545166" lon="7.950366">
        <ele>297.805755</ele>
        <time>2021-11-14T15:52:11.900Z</time>
      </trkpt>
      <trkpt lat="47.544901" lon="7.950044">
        <ele>298.443410</ele>
        <time>2021-11-14T15:52:17.682Z</time>
      </trkpt>
      <trkpt lat="47.544521" lon="7.949558">
        <ele>298.973044</ele>
        <time>2021-11-14T15:52:24.379Z</time>
      </trkpt>
      <trkpt lat="47.544239" lon="7.949202">
        <ele>299.154395</ele>
        <time>2021-11-14T15:52:29.341Z</time>
      </trkpt>
      <trkpt lat="47.543864" lon="7.948694">
        <ele>299.403119</ele>
        <time>2021-11-14T15:52:37.305Z</time>
      </trkpt>
      <trkpt lat="47.543760" lon="7.948548">
        <ele>299.473251</ele>
        <time>2021-11-14T15:52:39.547Z</time>
      </trkpt>
      <trkpt lat="47.543579" lon="7.948287">
        <ele>299.596887</ele>
        <time>2021-11-14T15:52:45.264Z</time>
      </trkpt>
      <trkpt lat="47.543532" lon="7.948214">
        <ele>299.630219</ele>
        <time>2021-11-14T15:52:46.391Z</time>
      </trkpt>
      <trkpt lat="47.543435" lon="7.948000">
        <ele>299.742172</ele>
        <time>2021-11-14T15:52:49.453Z</time>
      </trkpt>
      <trkpt lat="47.543407" lon="7.947938">
        <ele>299.871286</ele>
        <time>2021-11-14T15:52:51.310Z</time>
      </trkpt>
      <trkpt lat="47.543280" lon="7.947656">
        <ele>300.458041</ele>
        <time>2021-11-14T15:52:55.797Z</time>
      </trkpt>
      <trkpt lat="47.543142" lon="7.947250">
        <ele>301.244824</ele>
        <time>2021-11-14T15:53:03.261Z</time>
      </trkpt>
      <trkpt lat="47.543086" lon="7.947052">
        <ele>301.616398</ele>
        <time>2021-11-14T15:53:06.690Z</time>
      </trkpt>
      <trkpt lat="47.543056" lon="7.946935">
        <ele>301.833025</ele>
        <time>2021-11-14T15:53:09.532Z</time>
      </trkpt>
      <trkpt lat="47.543045" lon="7.946881">
        <ele>301.930654</ele>
        <time>2021-11-14T15:53:10.688Z</time>
      </trkpt>
      <trkpt lat="47.542982" lon="7.946547">
        <ele>302.530905</ele>
        <time>2021-11-14T15:53:16.088Z</time>
      </trkpt>
      <trkpt lat="47.542974" lon="7.946495">
        <ele>302.623217</ele>
        <time>2021-11-14T15:53:17.729Z</time>
      </trkpt>
      <trkpt lat="47.542960" lon="7.946400">
        <ele>302.791522</ele>
        <time>2021-11-14T15:53:19.794Z</time>
      </trkpt>
      <trkpt lat="47.542916" lon="7.945730">
        <ele>303.956672</ele>
        <time>2021-11-14T15:53:32.460Z</time>
      </trkpt>
      <trkpt lat="47.542913" lon="7.945267">
        <ele>304.573897</ele>
        <time>2021-11-14T15:53:40.955Z</time>
      </trkpt>
      <trkpt lat="47.543007" lon="7.943867">
        <ele>305.982948</ele>
        <time>2021-11-14T15:54:02.122Z</time>
      </trkpt>
      <trkpt lat="47.543161" lon="7.942213">
        <ele>306.619263</ele>
        <time>2021-11-14T15:54:20.528Z</time>
      </trkpt>
      <trkpt lat="47.543435" lon="7.940670">
        <ele>305.730408</ele>
        <time>2021-11-14T15:54:33.476Z</time>
      </trkpt>
      <trkpt lat="47.543826" lon="7.939433">
        <ele>304.365370</ele>
        <time>2021-11-14T15:54:43.878Z</time>
      </trkpt>
      <trkpt lat="47.544472" lon="7.937932">
        <ele>302.258628</ele>
        <time>2021-11-14T15:54:57.201Z</time>
      </trkpt>
      <trkpt lat="47.544705" lon="7.937395">
        <ele>301.530051</ele>
        <time>2021-11-14T15:55:02.041Z</time>
      </trkpt>
      <trkpt lat="47.544903" lon="7.936917">
        <ele>300.889979</ele>
        <time>2021-11-14T15:55:06.302Z</time>
      </trkpt>
      <trkpt lat="47.545074" lon="7.936484">
        <ele>300.317433</ele>
        <time>2021-11-14T15:55:10.132Z</time>
      </trkpt>
      <trkpt lat="47.545457" lon="7.935110">
        <ele>299.050890</ele>
        <time>2021-11-14T15:55:21.501Z</time>
      </trkpt>
      <trkpt lat="47.545674" lon="7.933625">
        <ele>298.406104</ele>
        <time>2021-11-14T15:55:34.581Z</time>
      </trkpt>
      <trkpt lat="47.545702" lon="7.933290">
        <ele>298.262856</ele>
        <time>2021-11-14T15:55:38.161Z</time>
      </trkpt>
      <trkpt lat="47.545724" lon="7.932758">
        <ele>298.520777</ele>
        <time>2021-11-14T15:55:44.428Z</time>
      </trkpt>
      <trkpt lat="47.545721" lon="7.931992">
        <ele>299.336168</ele>
        <time>2021-11-14T15:55:54.467Z</time>
      </trkpt>
      <trkpt lat="47.545696" lon="7.931497">
        <ele>299.864549</ele>
        <time>2021-11-14T15:56:01.673Z</time>
      </trkpt>
      <trkpt lat="47.545661" lon="7.930955">
        <ele>300.444122</ele>
        <time>2021-11-14T15:56:10.368Z</time>
      </trkpt>
      <trkpt lat="47.545563" lon="7.929641">
        <ele>301.493419</ele>
        <time>2021-11-14T15:56:32.708Z</time>
      </trkpt>
      <trkpt lat="47.545475" lon="7.928419">
        <ele>302.244354</ele>
        <time>2021-11-14T15:56:49.010Z</time>
      </trkpt>
      <trkpt lat="47.545421" lon="7.927686">
        <ele>302.463174</ele>
        <time>2021-11-14T15:56:55.114Z</time>
      </trkpt>
      <trkpt lat="47.545406" lon="7.927306">
        <ele>301.726703</ele>
        <time>2021-11-14T15:56:58.018Z</time>
      </trkpt>
      <trkpt lat="47.545407" lon="7.927001">
        <ele>301.136590</ele>
        <time>2021-11-14T15:57:00.304Z</time>
      </trkpt>
      <trkpt lat="47.545409" lon="7.926773">
        <ele>300.695424</ele>
        <time>2021-11-14T15:57:01.933Z</time>
      </trkpt>
      <trkpt lat="47.545417" lon="7.925848">
        <ele>298.905610</ele>
        <time>2021-11-14T15:57:08.268Z</time>
      </trkpt>
      <trkpt lat="47.545446" lon="7.925350">
        <ele>297.938514</ele>
        <time>2021-11-14T15:57:11.560Z</time>
      </trkpt>
      <trkpt lat="47.545466" lon="7.924880">
        <ele>296.968870</ele>
        <time>2021-11-14T15:57:14.614Z</time>
      </trkpt>
      <trkpt lat="47.545481" lon="7.924396">
        <ele>295.911324</ele>
        <time>2021-11-14T15:57:17.697Z</time>
      </trkpt>
      <trkpt lat="47.545521" lon="7.923709">
        <ele>294.406232</ele>
        <time>2021-11-14T15:57:22.222Z</time>
      </trkpt>
      <trkpt lat="47.545536" lon="7.923407">
        <ele>293.745271</ele>
        <time>2021-11-14T15:57:24.612Z</time>
      </trkpt>
      <trkpt lat="47.545553" lon="7.923142">
        <ele>293.164246</ele>
        <time>2021-11-14T15:57:26.333Z</time>
      </trkpt>
      <trkpt lat="47.545587" lon="7.922895">
        <ele>292.614021</ele>
        <time>2021-11-14T15:57:28.734Z</time>
      </trkpt>
      <trkpt lat="47.545641" lon="7.922610">
        <ele>291.967906</ele>
        <time>2021-11-14T15:57:30.733Z</time>
      </trkpt>
      <trkpt lat="47.545690" lon="7.922369">
        <ele>291.592934</ele>
        <time>2021-11-14T15:57:33.424Z</time>
      </trkpt>
      <trkpt lat="47.545699" lon="7.922325">
        <ele>291.562829</ele>
        <time>2021-11-14T15:57:33.685Z</time>
      </trkpt>
      <trkpt lat="47.545714" lon="7.922249">
        <ele>291.510979</ele>
        <time>2021-11-14T15:57:34.275Z</time>
      </trkpt>
      <trkpt lat="47.545778" lon="7.921947">
        <ele>291.303708</ele>
        <time>2021-11-14T15:57:37.431Z</time>
      </trkpt>
      <trkpt lat="47.545810" lon="7.921755">
        <ele>291.174207</ele>
        <time>2021-11-14T15:57:38.788Z</time>
      </trkpt>
      <trkpt lat="47.545881" lon="7.921096">
        <ele>290.737223</ele>
        <time>2021-11-14T15:57:44.137Z</time>
      </trkpt>
      <trkpt lat="47.545913" lon="7.920765">
        <ele>290.518268</ele>
        <time>2021-11-14T15:57:47.004Z</time>
      </trkpt>
      <trkpt lat="47.545973" lon="7.920313">
        <ele>290.216624</ele>
        <time>2021-11-14T15:57:52.151Z</time>
      </trkpt>
      <trkpt lat="47.546128" lon="7.919617">
        <ele>289.840513</ele>
        <time>2021-11-14T15:57:58.614Z</time>
      </trkpt>
      <trkpt lat="47.546262" lon="7.919081">
        <ele>289.674982</ele>
        <time>2021-11-14T15:58:04.613Z</time>
      </trkpt>
      <trkpt lat="47.546821" lon="7.916867">
        <ele>289.019551</ele>
        <time>2021-11-14T15:58:25.366Z</time>
      </trkpt>
      <trkpt lat="47.547032" lon="7.916218">
        <ele>288.848752</ele>
        <time>2021-11-14T15:58:31.856Z</time>
      </trkpt>
      <trkpt lat="47.547091" lon="7.916039">
        <ele>288.801521</ele>
        <time>2021-11-14T15:58:33.674Z</time>
      </trkpt>
      <trkpt lat="47.547113" lon="7.915971">
        <ele>288.783642</ele>
        <time>2021-11-14T15:58:34.273Z</time>
      </trkpt>
      <trkpt lat="47.547423" lon="7.915080">
        <ele>288.545972</ele>
        <time>2021-11-14T15:58:43.917Z</time>
      </trkpt>
      <trkpt lat="47.547994" lon="7.913433">
        <ele>289.087807</ele>
        <time>2021-11-14T15:59:03.636Z</time>
      </trkpt>
      <trkpt lat="47.548027" lon="7.913334">
        <ele>289.123898</ele>
        <time>2021-11-14T15:59:04.995Z</time>
      </trkpt>
      <trkpt lat="47.548412" lon="7.912168">
        <ele>289.758328</ele>
        <time>2021-11-14T15:59:21.398Z</time>
      </trkpt>
      <trkpt lat="47.549012" lon="7.910340">
        <ele>291.307370</ele>
        <time>2021-11-14T15:59:48.342Z</time>
      </trkpt>
      <trkpt lat="47.549102" lon="7.910058">
        <ele>291.590062</ele>
        <time>2021-11-14T15:59:52.504Z</time>
      </trkpt>
      <trkpt lat="47.549195" lon="7.909756">
        <ele>291.934808</ele>
        <time>2021-11-14T15:59:56.761Z</time>
      </trkpt>
      <trkpt lat="47.549226" lon="7.909652">
        <ele>292.052882</ele>
        <time>2021-11-14T15:59:58.344Z</time>
      </trkpt>
      <trkpt lat="47.549296" lon="7.909422">
        <ele>292.314910</ele>
        <time>2021-11-14T16:00:01.486Z</time>
      </trkpt>
      <trkpt lat="47.549376" lon="7.909155">
        <ele>292.618299</ele>
        <time>2021-11-14T16:00:05.377Z</time>
      </trkpt>
      <trkpt lat="47.549520" lon="7.908678">
        <ele>293.160982</ele>
        <time>2021-11-14T16:00:12.127Z</time>
      </trkpt>
      <trkpt lat="47.549539" lon="7.908625">
        <ele>293.223307</ele>
        <time>2021-11-14T16:00:12.845Z</time>
      </trkpt>
      <trkpt lat="47.550497" lon="7.905558">
        <ele>298.404652</ele>
        <time>2021-11-14T16:01:07.695Z</time>
      </trkpt>
      <trkpt lat="47.550283" lon="7.905413">
        <ele>299.116601</ele>
        <time>2021-11-14T16:01:15.862Z</time>
      </trkpt>
      <trkpt lat="47.550067" lon="7.905245">
        <ele>300.041273</ele>
        <time>2021-11-14T16:01:24.548Z</time>
      </trkpt>
      <trkpt lat="47.549867" lon="7.905155">
        <ele>300.833539</ele>
        <time>2021-11-14T16:01:32.176Z</time>
      </trkpt>
      <trkpt lat="47.549868" lon="7.905010">
        <ele>301.204511</ele>
        <time>2021-11-14T16:01:35.582Z</time>
      </trkpt>
      <trkpt lat="47.550025" lon="7.904774">
        <ele>302.052242</ele>
        <time>2021-11-14T16:01:43.733Z</time>
      </trkpt>
      <trkpt lat="47.550302" lon="7.904164">
        <ele>303.933111</ele>
        <time>2021-11-14T16:02:02.032Z</time>
      </trkpt>
      <trkpt lat="47.550498" lon="7.903445">
        <ele>305.909781</ele>
        <time>2021-11-14T16:02:21.604Z</time>
      </trkpt>
      <trkpt lat="47.550688" lon="7.902451">
        <ele>308.495059</ele>
        <time>2021-11-14T16:02:44.152Z</time>
      </trkpt>
      <trkpt lat="47.550757" lon="7.901591">
        <ele>310.662324</ele>
        <time>2021-11-14T16:03:03.948Z</time>
      </trkpt>
      <trkpt lat="47.550769" lon="7.901362">
        <ele>311.237111</ele>
        <time>2021-11-14T16:03:09.856Z</time>
      </trkpt>
      <trkpt lat="47.550801" lon="7.900244">
        <ele>314.278983</ele>
        <time>2021-11-14T16:03:34.254Z</time>
      </trkpt>
      <trkpt lat="47.550819" lon="7.898109">
        <ele>320.118779</ele>
        <time>2021-11-14T16:04:21.294Z</time>
      </trkpt>
      <trkpt lat="47.550648" lon="7.896481">
        <ele>322.699257</ele>
        <time>2021-11-14T16:04:48.949Z</time>
      </trkpt>
      <trkpt lat="47.550639" lon="7.896345">
        <ele>322.913283</ele>
        <time>2021-11-14T16:04:51.324Z</time>
      </trkpt>
      <trkpt lat="47.550660" lon="7.896255">
        <ele>323.062428</ele>
        <time>2021-11-14T16:04:52.125Z</time>
      </trkpt>
      <trkpt lat="47.550838" lon="7.895509">
        <ele>324.189444</ele>
        <time>2021-11-14T16:05:02.293Z</time>
      </trkpt>
      <trkpt lat="47.550878" lon="7.895158">
        <ele>324.532169</ele>
        <time>2021-11-14T16:05:06.355Z</time>
      </trkpt>
      <trkpt lat="47.550908" lon="7.894308">
        <ele>325.351664</ele>
        <time>2021-11-14T16:05:16.827Z</time>
      </trkpt>
      <trkpt lat="47.550892" lon="7.893176">
        <ele>326.441787</ele>
        <time>2021-11-14T16:05:31.545Z</time>
      </trkpt>
      <trkpt lat="47.550904" lon="7.891725">
        <ele>330.736204</ele>
        <time>2021-11-14T16:06:01.307Z</time>
      </trkpt>
      <trkpt lat="47.550915" lon="7.890600">
        <ele>334.304861</ele>
        <time>2021-11-14T16:06:30.147Z</time>
      </trkpt>
      <trkpt lat="47.550833" lon="7.889069">
        <ele>340.555498</ele>
        <time>2021-11-14T16:07:12.781Z</time>
      </trkpt>
      <trkpt lat="47.550831" lon="7.888611">
        <ele>342.491355</ele>
        <time>2021-11-14T16:07:25.351Z</time>
      </trkpt>
      <trkpt lat="47.550789" lon="7.887816">
        <ele>345.861839</ele>
        <time>2021-11-14T16:07:45.962Z</time>
      </trkpt>
      <trkpt lat="47.550758" lon="7.887295">
        <ele>347.856994</ele>
        <time>2021-11-14T16:07:59.784Z</time>
      </trkpt>
      <trkpt lat="47.550677" lon="7.886476">
        <ele>350.932092</ele>
        <time>2021-11-14T16:08:21.273Z</time>
      </trkpt>
      <trkpt lat="47.550548" lon="7.885799">
        <ele>353.545478</ele>
        <time>2021-11-14T16:08:38.476Z</time>
      </trkpt>
      <trkpt lat="47.550391" lon="7.885109">
        <ele>356.235424</ele>
        <time>2021-11-14T16:08:56.113Z</time>
      </trkpt>
      <trkpt lat="47.550332" lon="7.884727">
        <ele>357.310265</ele>
        <time>2021-11-14T16:09:04.804Z</time>
      </trkpt>
      <trkpt lat="47.550234" lon="7.883221">
        <ele>361.460114</ele>
        <time>2021-11-14T16:09:37.635Z</time>
      </trkpt>
      <trkpt lat="47.549927" lon="7.881490">
        <ele>366.149807</ele>
        <time>2021-11-14T16:10:09.899Z</time>
      </trkpt>
      <trkpt lat="47.549726" lon="7.880786">
        <ele>368.086046</ele>
        <time>2021-11-14T16:10:25.875Z</time>
      </trkpt>
      <trkpt lat="47.549327" lon="7.879547">
        <ele>371.625031</ele>
        <time>2021-11-14T16:10:55.659Z</time>
      </trkpt>
      <trkpt lat="47.549318" lon="7.879398">
        <ele>372.021770</ele>
        <time>2021-11-14T16:10:58.848Z</time>
      </trkpt>
      <trkpt lat="47.549140" lon="7.879391">
        <ele>372.721426</ele>
        <time>2021-11-14T16:11:05.718Z</time>
      </trkpt>
      <trkpt lat="47.548718" lon="7.879258">
        <ele>374.416678</ele>
        <time>2021-11-14T16:11:19.389Z</time>
      </trkpt>
      <trkpt lat="47.548422" lon="7.878959">
        <ele>375.824349</ele>
        <time>2021-11-14T16:11:30.035Z</time>
      </trkpt>
      <trkpt lat="47.548234" lon="7.878638">
        <ele>376.951491</ele>
        <time>2021-11-14T16:11:38.467Z</time>
      </trkpt>
      <trkpt lat="47.547992" lon="7.877974">
        <ele>377.369861</ele>
        <time>2021-11-14T16:11:51.565Z</time>
      </trkpt>
      <trkpt lat="47.547574" lon="7.876801">
        <ele>377.478482</ele>
        <time>2021-11-14T16:12:05.328Z</time>
      </trkpt>
      <trkpt lat="47.547126" lon="7.875801">
        <ele>376.146187</ele>
        <time>2021-11-14T16:12:14.111Z</time>
      </trkpt>
      <trkpt lat="47.546309" lon="7.874154">
        <ele>370.193606</ele>
        <time>2021-11-14T16:12:27.299Z</time>
      </trkpt>
      <trkpt lat="47.546135" lon="7.873859">
        <ele>368.644050</ele>
        <time>2021-11-14T16:12:29.681Z</time>
      </trkpt>
      <trkpt lat="47.546077" lon="7.873763">
        <ele>368.057205</ele>
        <time>2021-11-14T16:12:30.492Z</time>
      </trkpt>
      <trkpt lat="47.545934" lon="7.873549">
        <ele>366.685604</ele>
        <time>2021-11-14T16:12:32.297Z</time>
      </trkpt>
      <trkpt lat="47.545746" lon="7.873302">
        <ele>364.989969</ele>
        <time>2021-11-14T16:12:34.585Z</time>
      </trkpt>
      <trkpt lat="47.545515" lon="7.873015">
        <ele>362.955573</ele>
        <time>2021-11-14T16:12:37.284Z</time>
      </trkpt>
      <trkpt lat="47.545478" lon="7.872968">
        <ele>362.626682</ele>
        <time>2021-11-14T16:12:37.726Z</time>
      </trkpt>
      <trkpt lat="47.545375" lon="7.872836">
        <ele>361.707665</ele>
        <time>2021-11-14T16:12:38.919Z</time>
      </trkpt>
      <trkpt lat="47.545131" lon="7.872664">
        <ele>359.884259</ele>
        <time>2021-11-14T16:12:41.378Z</time>
      </trkpt>
      <trkpt lat="47.544883" lon="7.872555">
        <ele>358.138656</ele>
        <time>2021-11-14T16:12:43.700Z</time>
      </trkpt>
      <trkpt lat="47.544390" lon="7.872423">
        <ele>355.010810</ele>
        <time>2021-11-14T16:12:48.163Z</time>
      </trkpt>
      <trkpt lat="47.543332" lon="7.872237">
        <ele>348.452029</ele>
        <time>2021-11-14T16:12:57.925Z</time>
      </trkpt>
      <trkpt lat="47.543251" lon="7.872152">
        <ele>347.840960</ele>
        <time>2021-11-14T16:12:58.874Z</time>
      </trkpt>
      <trkpt lat="47.543233" lon="7.872082">
        <ele>347.529683</ele>
        <time>2021-11-14T16:12:59.295Z</time>
      </trkpt>
      <trkpt lat="47.543013" lon="7.872182">
        <ele>346.567413</ele>
        <time>2021-11-14T16:13:01.522Z</time>
      </trkpt>
      <trkpt lat="47.542919" lon="7.872226">
        <ele>346.567413</ele>
        <time>2021-11-14T16:13:02.452Z</time>
      </trkpt>
      <trkpt lat="47.542814" lon="7.872280">
        <ele>346.567413</ele>
        <time>2021-11-14T16:13:03.505Z</time>
      </trkpt>
      <trkpt lat="47.542714" lon="7.872334">
        <ele>346.567413</ele>
        <time>2021-11-14T16:13:04.574Z</time>
      </trkpt>
      <trkpt lat="47.542537" lon="7.872430">
        <ele>346.567413</ele>
        <time>2021-11-14T16:13:06.316Z</time>
      </trkpt>
      <trkpt lat="47.542436" lon="7.872494">
        <ele>346.567413</ele>
        <time>2021-11-14T16:13:07.646Z</time>
      </trkpt>
      <trkpt lat="47.542394" lon="7.872341">
        <ele>346.567413</ele>
        <time>2021-11-14T16:13:08.734Z</time>
      </trkpt>
      <trkpt lat="47.542218" lon="7.871866">
        <ele>346.567413</ele>
        <time>2021-11-14T16:13:12.455Z</time>
      </trkpt>
      <trkpt lat="47.542091" lon="7.871721">
        <ele>346.567413</ele>
        <time>2021-11-14T16:13:14.000Z</time>
      </trkpt>
      <trkpt lat="47.542067" lon="7.871664">
        <ele>346.567413</ele>
        <time>2021-11-14T16:13:14.765Z</time>
      </trkpt>
      <trkpt lat="47.542039" lon="7.871556">
        <ele>346.567413</ele>
        <time>2021-11-14T16:13:15.653Z</time>
      </trkpt>
      <trkpt lat="47.541953" lon="7.871286">
        <ele>346.567413</ele>
        <time>2021-11-14T16:13:17.918Z</time>
      </trkpt>
      <trkpt lat="47.541796" lon="7.871042">
        <ele>346.567413</ele>
        <time>2021-11-14T16:13:20.511Z</time>
      </trkpt>
      <trkpt lat="47.541576" lon="7.870664">
        <ele>346.567413</ele>
        <time>2021-11-14T16:13:24.371Z</time>
      </trkpt>
      <trkpt lat="47.541410" lon="7.870791">
        <ele>346.567413</ele>
        <time>2021-11-14T16:13:26.448Z</time>
      </trkpt>
      <trkpt lat="47.541345" lon="7.870845">
        <ele>346.567413</ele>
        <time>2021-11-14T16:13:27.558Z</time>
      </trkpt>
    </trkseg>
  </trk>
</gpx>